[[{"header":{"parameterUnit":"m.s-1","parameterCategory":1,"la1":30.6,"la2":28.766,"lo1":-90.7593,"lo2":-88.6598,"dy":0.0162,"dx":0.0183,"nx":116,"ny":114,"refTime":"2023-10-13T12:00:00:Z","depth":0,"parameterNumber":2,"parameterNumberName":"U-component_of_WINDS"},"data":[0.0,0.0,0.0,0.0,0.0,0.0,0.0,0.0,0.0,0.0,0.0,0.0,0.0,0.0,0.0,0.0,0.0,0.0,0.0,0.0,0.0,0.0,0.0,0.0,0.0,0.0,0.0,0.0,0.0,0.0,0.0,0.0,0.0,0.0,0.0,0.0,0.0,0.0,0.0,0.0,0.0,0.0,0.0,0.0,0.0,0.0,0.0,0.0,0.0,0.0,0.0,0.0,0.0,0.0,0.0,0.0,0.0,0.0,0.0,0.0,0.0,0.0,0.0,0.0,0.0,0.0,0.0,0.0,0.0,0.0,0.0,0.0,0.0,0.0,0.0,0.0,0.0,0.0,0.0,0.0,0.0,0.0,0.0,0.0,0.0,0.0,0.0,0.0,0.0,0.0,0.0,0.0,0.0,0.0,0.0,0.0,0.0,0.0,0.0,0.0,0.0,0.0,0.0,0.0,0.0,0.0,0.0,0.0,0.0,0.0,0.0,0.0,0.0,0.0,0.0,0.0,0.0,0.0,0.0,0.0,0.0,0.0,0.0,0.0,0.0,0.0,0.0,0.0,0.0,0.0,0.0,0.0,0.0,0.0,0.0,0.0,0.0,0.0,0.0,0.0,0.0,0.0,0.0,0.0,0.0,0.0,0.0,0.0,0.0,0.0,0.0,0.0,0.0,0.0,0.0,0.0,0.0,0.0,0.0,0.0,0.0,0.0,0.0,0.0,0.0,0.0,0.0,0.0,0.0,0.0,0.0,0.0,0.0,0.0,0.0,0.0,0.0,0.0,0.0,0.0,0.0,0.0,0.0,0.0,0.0,0.0,0.0,0.0,0.0,0.0,0.0,0.0,0.0,0.0,0.0,0.0,0.0,0.0,0.0,0.0,0.0,0.0,0.0,0.0,0.0,0.0,0.0,0.0,0.0,0.0,0.0,0.0,0.0,0.0,0.0,0.0,0.0,0.0,0.0,0.0,0.0,0.0,0.0,0.0,0.0,0.0,0.0,0.0,0.0,0.0,0.0,0.0,0.0,0.0,0.0,0.0,0.0,0.0,0.0,0.0,0.0,0.0,0.0,0.0,0.0,0.0,0.0,0.0,0.0,0.0,0.0,0.0,0.0,0.0,0.0,0.0,0.0,0.0,0.0,0.0,0.0,0.0,0.0,0.0,0.0,0.0,0.0,0.0,0.0,0.0,0.0,0.0,0.0,0.0,0.0,0.0,0.0,0.0,0.0,0.0,0.0,0.0,0.0,0.0,0.0,0.0,0.0,0.0,0.0,0.0,0.0,0.0,0.0,0.0,0.0,0.0,0.0,0.0,0.0,0.0,0.0,0.0,0.0,0.0,0.0,0.0,0.0,0.0,0.0,0.0,0.0,0.0,0.0,0.0,0.0,0.0,0.0,0.0,0.0,0.0,0.0,0.0,0.0,0.0,0.0,0.0,0.0,0.0,0.0,0.0,0.0,0.0,0.0,0.0,0.0,0.0,0.0,0.0,0.0,0.0,0.0,0.0,0.0,0.0,0.0,0.0,0.0,0.0,0.0,0.0,0.0,0.0,0.0,0.0,0.0,0.0,0.0,0.0,0.0,0.0,0.0,0.0,0.0,0.0,0.0,0.0,0.0,0.0,0.0,0.0,0.0,0.0,0.0,0.0,0.0,0.0,0.0,0.0,0.0,0.0,0.0,0.0,0.0,0.0,0.0,0.0,0.0,0.0,0.0,0.0,0.0,0.0,0.0,0.0,0.0,0.0,0.0,0.0,0.0,0.0,0.0,0.0,0.0,0.0,0.0,0.0,0.0,0.0,0.0,0.0,0.0,0.0,0.0,0.0,0.0,0.0,0.0,0.0,0.0,0.0,0.0,0.0,0.0,0.0,0.0,0.0,0.0,0.0,0.0,0.0,0.0,0.0,0.0,0.0,0.0,0.0,0.0,0.0,0.0,0.0,0.0,0.0,0.0,0.0,0.0,0.0,0.0,0.0,0.0,0.0,0.0,0.0,0.0,0.0,0.0,0.0,0.0,0.0,0.0,0.0,0.0,0.0,0.0,0.0,0.0,0.0,0.0,0.0,0.0,0.0,0.0,0.0,0.0,0.0,0.0,0.0,0.0,0.0,0.0,0.0,0.0,0.0,0.0,0.0,0.0,0.0,0.0,0.0,0.0,0.0,0.0,0.0,0.0,0.0,0.0,0.0,0.0,0.0,0.0,0.0,0.0,0.0,0.0,0.0,0.0,0.0,0.0,0.0,0.0,0.0,0.0,0.0,0.0,0.0,0.0,0.0,0.0,0.0,0.0,0.0,0.0,0.0,0.0,0.0,0.0,0.0,0.0,0.0,0.0,0.0,0.0,0.0,0.0,0.0,0.0,0.0,0.0,0.0,0.0,0.0,0.0,0.0,0.0,0.0,0.0,0.0,0.0,0.0,0.0,0.0,0.0,0.0,0.0,0.0,0.0,0.0,0.0,0.0,0.0,0.0,0.0,0.0,0.0,0.0,0.0,0.0,0.0,0.0,0.0,0.0,0.0,0.0,0.0,0.0,0.0,0.0,0.0,0.0,0.0,0.0,0.0,0.0,0.0,0.0,0.0,0.0,0.0,0.0,0.0,0.0,0.0,0.0,0.0,0.0,0.0,0.0,0.0,0.0,0.0,0.0,0.0,0.0,0.0,0.0,0.0,0.0,0.0,0.0,0.0,0.0,0.0,0.0,0.0,0.0,0.0,0.0,0.0,0.0,0.0,0.0,0.0,0.0,0.0,0.0,0.0,0.0,0.0,0.0,0.0,0.0,0.0,0.0,0.0,0.0,0.0,0.0,0.0,0.0,0.0,0.0,0.0,0.0,0.0,0.0,0.0,0.0,0.0,0.0,0.0,0.0,0.0,0.0,0.0,0.0,0.0,0.0,0.0,0.0,0.0,0.0,0.0,0.0,0.0,0.0,0.0,0.0,0.0,0.0,0.0,0.0,0.0,0.0,0.0,0.0,0.0,0.0,0.0,0.0,0.0,0.0,0.0,0.0,0.0,0.0,0.0,0.0,0.0,0.0,0.0,0.0,0.0,0.0,0.0,0.0,0.0,0.0,0.0,0.0,0.0,0.0,0.0,0.0,0.0,0.0,0.0,0.0,0.0,0.0,0.0,0.0,0.0,0.0,0.0,0.0,0.0,0.0,0.0,0.0,0.0,0.0,0.0,0.0,0.0,0.0,0.0,0.0,0.0,0.0,0.0,0.0,0.0,0.0,0.0,0.0,0.0,0.0,0.0,0.0,0.0,0.0,0.0,0.0,0.0,0.0,0.0,0.0,0.0,0.0,0.0,0.0,0.0,0.0,0.0,0.0,0.0,0.0,0.0,0.0,0.0,0.0,0.0,0.0,0.0,0.0,0.0,0.0,0.0,0.0,0.0,0.0,0.0,0.0,0.0,0.0,0.0,0.0,0.0,0.0,0.0,0.0,0.0,0.0,0.0,0.0,0.0,0.0,0.0,0.0,0.0,0.0,0.0,0.0,0.0,0.0,0.0,0.0,0.0,0.0,0.0,0.0,0.0,0.0,0.0,0.0,0.0,0.0,0.0,0.0,0.0,0.0,0.0,0.0,0.0,0.0,0.0,0.0,0.0,0.0,0.0,0.0,0.0,0.0,0.0,0.0,0.0,0.0,0.0,0.0,0.0,0.0,0.0,0.0,0.0,0.0,0.0,0.0,0.0,0.0,0.0,0.0,0.0,0.0,0.0,0.0,0.0,0.0,0.0,0.0,0.0,0.0,0.0,0.0,0.0,0.0,0.0,0.0,0.0,0.0,0.0,0.0,0.0,0.0,0.0,0.0,0.0,0.0,0.0,0.0,0.0,0.0,0.0,0.0,0.0,0.0,0.0,0.0,0.0,0.0,0.0,0.0,0.0,0.0,0.0,0.0,0.0,0.0,0.0,0.0,0.0,0.0,0.0,0.0,0.0,0.0,0.0,0.0,0.0,0.0,0.0,0.0,0.0,0.0,0.0,0.0,0.0,0.0,0.0,0.0,0.0,0.0,0.0,0.0,0.0,0.0,0.0,0.0,0.0,0.0,0.0,0.0,0.0,0.0,0.0,0.0,0.0,0.0,0.0,0.0,0.0,0.0,0.0,0.0,0.0,0.0,0.0,0.0,0.0,0.0,0.0,0.0,0.0,0.0,0.0,0.0,0.0,0.0,0.0,0.0,0.0,0.0,0.0,0.0,0.0,0.0,0.0,0.0,0.0,0.0,0.0,0.0,0.0,0.0,0.0,0.0,0.0,0.0,0.0,0.0,0.0,0.0,0.0,0.0,0.0,0.0,0.0,0.0,0.0,0.0,0.0,0.0,0.0,0.0,0.0,0.0,0.0,0.0,0.0,0.0,0.0,0.0,0.0,0.0,0.0,0.0,0.0,0.0,0.0,0.0,0.0,0.0,0.0,0.0,0.0,0.0,0.0,0.0,0.0,0.0,0.0,0.0,0.0,0.0,0.0,0.0,0.0,0.0,0.0,0.0,0.0,0.0,0.0,0.0,0.0,0.0,0.0,0.0,0.0,0.0,0.0,0.0,0.0,0.0,0.0,0.0,0.0,0.0,0.0,0.0,0.0,0.0,0.0,0.0,0.0,0.0,0.0,0.0,0.0,0.0,0.0,0.0,0.0,0.0,0.0,0.0,0.0,0.0,0.0,0.0,0.0,0.0,0.0,0.0,0.0,0.0,0.0,0.0,0.0,0.0,0.0,0.0,0.0,0.0,0.0,0.0,0.0,0.0,0.0,0.0,0.0,0.0,0.0,0.0,0.0,0.0,0.0,0.0,0.0,0.0,0.0,0.0,0.0,0.0,0.0,0.0,0.0,0.0,0.0,0.0,0.0,0.0,0.0,0.0,0.0,0.0,0.0,0.0,0.0,0.0,0.0,0.0,0.0,0.0,0.0,0.0,0.0,0.0,0.0,0.0,0.0,0.0,0.0,0.0,0.0,0.0,0.0,0.0,0.0,0.0,0.0,0.0,0.0,0.0,0.0,0.0,0.0,0.0,0.0,0.0,0.0,0.0,0.0,0.0,0.0,0.0,0.0,0.0,0.0,0.0,0.0,0.0,0.0,0.0,0.0,0.0,0.0,0.0,0.0,0.0,0.0,0.0,0.0,0.0,0.0,0.0,0.0,0.0,0.0,0.0,0.0,0.0,0.0,0.0,0.0,0.0,0.0,0.0,0.0,0.0,0.0,0.0,0.0,0.0,0.0,0.0,0.0,0.0,0.0,0.0,0.0,0.0,0.0,0.0,0.0,0.0,0.0,0.0,0.0,0.0,0.0,0.0,0.0,0.0,0.0,0.0,0.0,0.0,0.0,0.0,0.0,0.0,0.0,0.0,0.0,0.0,0.0,0.0,0.0,0.0,0.0,0.0,0.0,0.0,0.0,0.0,0.0,0.0,0.0,0.0,0.0,0.0,0.0,0.0,0.0,0.0,0.0,0.0,0.0,0.0,0.0,0.0,0.0,0.0,0.0,0.0,0.0,0.0,0.0,0.0,0.0,0.0,0.0,0.0,0.0,0.0,0.0,0.0,0.0,0.0,0.0,0.0,0.0,0.0,0.0,0.0,0.0,0.0,0.0,0.0,0.0,0.0,0.0,0.0,0.0,0.0,0.0,0.0,0.0,0.0,0.0,0.0,0.0,0.0,0.0,0.0,0.0,0.0,0.0,0.0,0.0,0.0,0.0,0.0,0.0,0.0,0.0,0.0,0.0,0.0,0.0,0.0,0.0,0.0,0.0,0.0,0.0,0.0,0.0,0.0,0.0,0.0,0.0,0.0,0.0,0.0,0.0,0.0,0.0,0.0,0.0,0.0,0.0,0.0,0.0,0.0,0.0,0.0,0.0,0.0,0.0,0.0,0.0,0.0,0.0,0.0,0.0,0.0,0.0,0.0,0.0,0.0,0.0,0.0,0.0,0.0,0.0,0.0,0.0,0.0,0.0,0.0,0.0,0.0,0.0,0.0,0.0,0.0,0.0,0.0,0.0,0.0,0.0,0.0,0.0,0.0,0.0,0.0,0.0,0.0,0.0,0.0,0.0,0.0,0.0,0.0,0.0,0.0,0.0,0.0,0.0,0.0,-3.1173,0.0,0.0,0.0,0.0,0.0,0.0,0.0,0.0,0.0,0.0,0.0,0.0,0.0,0.0,0.0,0.0,0.0,0.0,0.0,0.0,0.0,0.0,0.0,0.0,0.0,0.0,0.0,0.0,0.0,0.0,0.0,0.0,0.0,0.0,0.0,0.0,0.0,0.0,0.0,0.0,0.0,0.0,0.0,0.0,0.0,0.0,0.0,0.0,0.0,0.0,0.0,0.0,0.0,0.0,0.0,0.0,0.0,0.0,0.0,0.0,0.0,0.0,0.0,0.0,0.0,0.0,0.0,0.0,0.0,0.0,0.0,0.0,0.0,0.0,0.0,0.0,0.0,0.0,0.0,0.0,0.0,0.0,0.0,0.0,0.0,0.0,0.0,0.0,0.0,0.0,0.0,0.0,0.0,0.0,0.0,0.0,0.0,0.0,0.0,0.0,0.0,0.0,0.0,0.0,0.0,0.0,0.0,0.0,0.0,0.0,0.0,0.0,0.0,0.0,0.0,0.0,-3.0261,0.0,0.0,0.0,0.0,0.0,0.0,0.0,0.0,0.0,0.0,0.0,0.0,0.0,0.0,0.0,0.0,0.0,0.0,0.0,0.0,0.0,0.0,0.0,0.0,0.0,0.0,0.0,0.0,0.0,0.0,0.0,0.0,0.0,0.0,0.0,0.0,0.0,0.0,0.0,0.0,0.0,0.0,0.0,0.0,0.0,0.0,0.0,0.0,0.0,0.0,0.0,0.0,0.0,0.0,0.0,0.0,0.0,0.0,0.0,0.0,0.0,0.0,0.0,0.0,0.0,0.0,0.0,0.0,0.0,0.0,0.0,0.0,0.0,0.0,0.0,0.0,0.0,0.0,0.0,0.0,0.0,0.0,0.0,0.0,0.0,0.0,0.0,0.0,0.0,0.0,0.0,0.0,0.0,0.0,0.0,0.0,0.0,0.0,0.0,0.0,0.0,0.0,0.0,0.0,0.0,0.0,0.0,0.0,-2.6256,-2.6583,-2.7257,-2.7148,-2.6909,-2.665,-2.8916,-2.9795,-2.9613,0.0,0.0,0.0,0.0,0.0,0.0,0.0,0.0,0.0,0.0,0.0,0.0,0.0,0.0,0.0,0.0,0.0,0.0,0.0,0.0,0.0,0.0,0.0,0.0,0.0,0.0,0.0,0.0,0.0,0.0,0.0,0.0,0.0,0.0,0.0,0.0,0.0,0.0,0.0,-2.0842,-2.1424,-2.2104,-2.2892,0.0,0.0,0.0,0.0,0.0,0.0,0.0,0.0,0.0,0.0,0.0,0.0,0.0,0.0,0.0,0.0,0.0,0.0,0.0,0.0,0.0,0.0,0.0,0.0,0.0,0.0,0.0,0.0,0.0,0.0,0.0,0.0,0.0,0.0,0.0,0.0,0.0,0.0,0.0,0.0,0.0,0.0,0.0,0.0,-2.6504,-2.6972,0.0,0.0,0.0,0.0,0.0,0.0,0.0,0.0,0.0,0.0,0.0,0.0,0.0,-2.6263,-2.677,-2.7095,-2.7314,-2.7393,-2.7228,-2.7554,-2.8285,-2.7808,-2.7964,-2.8512,-2.7277,0.0,-2.7412,-2.7349,0.0,0.0,0.0,0.0,0.0,0.0,0.0,0.0,0.0,0.0,0.0,0.0,0.0,0.0,0.0,0.0,0.0,0.0,0.0,0.0,0.0,0.0,0.0,0.0,0.0,0.0,0.0,0.0,0.0,0.0,0.0,0.0,0.0,0.0,0.0,0.0,-2.0719,-2.1474,-2.2041,-2.2365,-2.2697,-2.3138,-2.3851,-2.4078,-2.3944,-2.4204,0.0,0.0,0.0,0.0,0.0,0.0,0.0,0.0,0.0,0.0,0.0,0.0,0.0,0.0,0.0,0.0,0.0,0.0,0.0,0.0,0.0,0.0,0.0,0.0,0.0,0.0,0.0,0.0,0.0,0.0,0.0,0.0,0.0,0.0,0.0,0.0,0.0,0.0,0.0,-2.6304,-2.6654,-2.6405,-2.715,-2.7045,0.0,0.0,0.0,0.0,0.0,0.0,0.0,0.0,0.0,-2.6809,-2.6868,-2.698,-2.715,-2.7636,-2.7579,-2.6985,-2.6895,-2.6712,-2.6394,-2.6178,-2.6275,-2.6562,-2.5487,-2.5182,-2.5484,-2.6212,-2.6654,-2.6829,0.0,0.0,0.0,0.0,-2.5259,-2.5541,0.0,0.0,0.0,0.0,0.0,0.0,0.0,0.0,0.0,0.0,0.0,0.0,0.0,0.0,0.0,0.0,0.0,0.0,0.0,0.0,0.0,0.0,0.0,0.0,0.0,0.0,0.0,0.0,-2.0748,-2.1709,-2.275,-2.275,-2.2888,-2.311,-2.311,-2.343,-2.4005,0.0,0.0,0.0,0.0,0.0,0.0,0.0,0.0,0.0,0.0,0.0,0.0,0.0,0.0,0.0,0.0,0.0,0.0,0.0,0.0,0.0,0.0,0.0,0.0,0.0,0.0,0.0,0.0,0.0,0.0,0.0,0.0,0.0,0.0,0.0,0.0,0.0,0.0,0.0,0.0,-2.5758,-2.6363,-2.5683,-2.6618,-2.6644,0.0,0.0,0.0,0.0,0.0,0.0,-2.5994,-2.5592,-2.5588,-2.6177,-2.6631,-2.6791,-2.6639,-2.7175,-2.7067,-2.6255,-2.6255,-2.5819,-2.5004,-2.4842,-2.4787,-2.4765,-2.4486,-2.433,-2.4408,-2.5151,-2.5466,-2.5557,-2.5839,-2.5484,-2.4804,-2.4764,-2.4921,-2.497,0.0,0.0,0.0,0.0,0.0,0.0,0.0,0.0,0.0,0.0,0.0,0.0,0.0,0.0,0.0,0.0,0.0,0.0,0.0,0.0,0.0,0.0,0.0,0.0,0.0,0.0,0.0,-1.7861,-1.8738,-1.9709,-2.075,-2.075,-2.1231,-2.2065,0.0,0.0,0.0,0.0,0.0,0.0,0.0,0.0,0.0,0.0,0.0,0.0,0.0,0.0,0.0,0.0,0.0,0.0,0.0,0.0,0.0,0.0,0.0,0.0,0.0,0.0,0.0,0.0,0.0,0.0,0.0,0.0,0.0,0.0,0.0,0.0,0.0,0.0,0.0,0.0,0.0,0.0,0.0,0.0,0.0,-2.484,-2.6511,0.0,0.0,0.0,0.0,-2.3698,-2.3289,-2.3221,-2.3467,-2.3453,-2.3865,-2.4864,-2.492,-2.4953,-2.4937,-2.547,-2.5716,-2.5636,-2.5636,-2.5636,-2.5545,-2.5037,-2.4787,-2.4787,-2.4804,-2.4781,-2.4715,-2.3962,-2.4091,-2.4729,-2.348,-2.343,-2.3855,-2.2091,-2.206,-2.277,0.0,0.0,0.0,0.0,0.0,0.0,0.0,0.0,0.0,0.0,0.0,0.0,0.0,0.0,0.0,0.0,0.0,0.0,0.0,0.0,0.0,0.0,0.0,0.0,0.0,0.0,-1.6009,-1.6615,-1.7494,-1.8109,-1.847,-1.847,-1.9058,0.0,0.0,0.0,0.0,0.0,0.0,0.0,0.0,0.0,0.0,0.0,0.0,0.0,0.0,0.0,0.0,0.0,0.0,0.0,0.0,0.0,0.0,0.0,0.0,0.0,0.0,0.0,0.0,0.0,0.0,0.0,0.0,0.0,0.0,0.0,0.0,0.0,0.0,0.0,0.0,0.0,0.0,0.0,0.0,0.0,0.0,-2.3362,-2.4047,0.0,-2.338,-2.3758,-2.3622,-2.2563,-2.328,-2.3813,-2.3899,-2.4125,-2.4603,-2.5311,-2.5333,-2.5489,-2.5894,-2.6073,-2.5823,-2.5079,-2.5079,-2.4714,-2.3975,-2.3769,-2.3697,-2.3677,-2.3442,-2.332,-2.3268,-2.2704,-2.3245,-2.4354,-2.3572,-2.3448,-2.36,-2.2934,-2.2917,-2.3078,0.0,0.0,0.0,0.0,0.0,0.0,0.0,0.0,0.0,0.0,0.0,0.0,0.0,0.0,0.0,0.0,0.0,0.0,0.0,0.0,0.0,0.0,0.0,0.0,0.0,-1.4576,-1.532,-1.5897,-1.6492,-1.6927,-1.7302,0.0,0.0,0.0,0.0,0.0,0.0,0.0,0.0,0.0,0.0,0.0,-1.975,0.0,0.0,0.0,0.0,0.0,0.0,0.0,0.0,0.0,0.0,0.0,0.0,0.0,0.0,0.0,0.0,0.0,0.0,0.0,0.0,0.0,0.0,0.0,0.0,0.0,0.0,0.0,0.0,0.0,0.0,0.0,0.0,0.0,0.0,0.0,-2.2002,-2.2367,-2.276,-2.2827,-2.2468,-2.2438,-2.239,-2.2165,-2.2784,-2.3306,-2.3616,-2.3887,-2.4271,-2.473,-2.474,-2.4942,-2.5347,-2.5358,-2.4967,-2.4211,-2.4211,-2.3833,-2.3091,-2.3091,-2.2945,-2.2715,-2.2682,-2.2568,-2.2295,-2.2158,-2.2706,-2.3574,-2.2981,-2.2628,-2.2526,-2.2526,-2.2526,-2.2366,0.0,0.0,0.0,0.0,0.0,0.0,0.0,0.0,0.0,0.0,0.0,0.0,0.0,0.0,0.0,0.0,0.0,0.0,0.0,0.0,0.0,0.0,0.0,0.0,-1.3061,-1.3147,-1.3978,-1.5572,-1.5613,-1.6191,-1.722,0.0,0.0,0.0,0.0,0.0,0.0,0.0,0.0,0.0,0.0,0.0,-1.9137,0.0,0.0,0.0,0.0,0.0,0.0,0.0,0.0,0.0,0.0,0.0,0.0,0.0,0.0,0.0,0.0,0.0,0.0,0.0,0.0,0.0,0.0,0.0,0.0,0.0,0.0,0.0,0.0,0.0,0.0,0.0,0.0,0.0,-1.9638,-2.1397,-2.2419,-2.1905,-2.28,-2.3404,-2.3404,-2.2526,-2.2161,-2.2621,-2.1789,-2.16,-2.2461,-2.25,-2.2676,-2.3042,-2.3052,-2.3052,-2.3052,-2.3038,-2.3047,-2.3047,-2.3003,-2.3003,-2.3003,-2.3003,-2.2557,-2.188,-2.2654,-2.2547,-2.187,-2.2236,-2.2392,-2.2295,-2.1481,-2.0927,-2.0547,-2.0527,-2.0489,-2.0362,0.0,0.0,0.0,0.0,0.0,0.0,0.0,0.0,0.0,0.0,0.0,0.0,0.0,0.0,0.0,0.0,0.0,0.0,0.0,0.0,0.0,0.0,0.0,0.0,-1.063,-1.1893,-1.2776,-1.3207,-1.409,-1.4699,0.0,0.0,0.0,0.0,0.0,0.0,0.0,0.0,0.0,0.0,0.0,0.0,-2.0045,0.0,0.0,0.0,0.0,0.0,0.0,0.0,0.0,0.0,0.0,0.0,0.0,0.0,0.0,0.0,0.0,0.0,0.0,0.0,0.0,0.0,0.0,0.0,0.0,0.0,0.0,0.0,0.0,0.0,0.0,0.0,0.0,-1.9828,-2.0685,-2.0462,-2.0429,-2.0883,-2.1232,-2.1423,-2.1423,-2.1418,-2.1471,-2.16,-2.192,-2.2266,-2.25,-2.2217,-2.2119,-2.2227,-2.2227,-2.2227,-2.2227,-2.1926,-2.18,-2.18,-2.0899,-2.0494,-2.0494,-2.0494,-2.0381,-2.0155,-2.0407,-2.0373,-2.0155,-2.0303,-2.0129,-1.9852,-1.9974,-1.9968,-1.9749,-1.8607,-1.8221,-1.8103,0.0,0.0,0.0,0.0,0.0,0.0,0.0,0.0,0.0,0.0,0.0,0.0,0.0,0.0,0.0,0.0,0.0,0.0,0.0,0.0,0.0,0.0,0.0,-0.9741,-1.0055,-1.107,-1.1595,-1.1595,-1.2297,-1.265,0.0,0.0,0.0,0.0,0.0,0.0,0.0,0.0,0.0,0.0,0.0,0.0,-1.9265,-1.9265,-1.9278,-1.9311,-1.9629,-1.9727,-1.9706,-1.9491,0.0,0.0,0.0,0.0,0.0,0.0,0.0,0.0,0.0,0.0,0.0,0.0,0.0,0.0,0.0,0.0,0.0,0.0,0.0,0.0,0.0,0.0,0.0,0.0,-1.7761,-1.858,-1.944,-1.9753,-2.0048,-2.0546,-2.0605,-2.0605,-2.0605,-2.0967,-2.1268,-2.1494,-2.2129,-2.2588,-2.2721,-2.2539,-2.2068,-2.1316,-2.1513,-2.1259,-2.0536,-2.0563,-2.0531,-2.0531,-1.9852,-1.9497,-1.9497,-1.9497,-1.9278,0.0,-1.9364,-1.9278,-1.8978,-1.9373,-1.9327,0.0,0.0,0.0,0.0,0.0,-1.7009,-1.6578,0.0,0.0,0.0,0.0,0.0,0.0,0.0,0.0,0.0,0.0,0.0,0.0,0.0,0.0,0.0,0.0,0.0,0.0,0.0,0.0,0.0,-0.9306,-0.9363,-0.9646,-1.0168,-1.0351,-1.0394,-1.0394,-1.0524,-1.0611,0.0,0.0,0.0,0.0,0.0,0.0,0.0,0.0,0.0,0.0,0.0,0.0,-1.7648,-1.7648,-1.777,-1.8004,-1.8791,-1.9087,-1.9201,-1.9887,0.0,0.0,0.0,0.0,0.0,0.0,0.0,0.0,0.0,0.0,0.0,0.0,0.0,0.0,0.0,0.0,0.0,0.0,0.0,0.0,0.0,0.0,0.0,0.0,-1.6045,-1.6427,-1.7203,-1.8988,-2.0235,-2.0235,-2.0235,-2.0235,-2.0235,-2.0638,-2.1048,-2.1464,-2.1924,-2.2337,-2.2668,0.0,0.0,0.0,0.0,-2.0166,-1.8553,-1.9044,-1.9314,-1.9314,-1.9177,-1.9077,-1.9077,-1.9077,-1.8648,-1.7962,-1.8765,-1.864,-1.7978,-1.8773,-1.9037,-1.8945,-1.8401,-1.7878,-1.7321,-1.696,-1.6293,-1.553,0.0,0.0,0.0,0.0,0.0,0.0,0.0,0.0,0.0,0.0,0.0,0.0,0.0,0.0,0.0,0.0,0.0,0.0,0.0,0.0,-0.6869,-0.7256,-0.7399,-0.7558,-0.779,-0.8711,-0.9235,-0.9235,-1.0139,-1.0611,0.0,0.0,0.0,0.0,0.0,0.0,0.0,0.0,0.0,0.0,0.0,0.0,-1.7368,-1.7368,-1.7403,-1.7591,-1.8643,-1.9028,-1.9088,-1.9383,-1.9479,-1.9479,-1.9479,0.0,0.0,0.0,0.0,0.0,0.0,0.0,0.0,0.0,0.0,0.0,0.0,0.0,0.0,0.0,0.0,0.0,0.0,0.0,0.0,-1.6462,-1.684,-1.7097,-1.7277,-1.7658,-1.794,-1.794,-1.794,-1.794,-1.794,-1.8555,-1.8991,-1.9059,-1.9691,-2.0101,-2.0169,-1.9518,0.0,-1.863,-1.8721,-1.8642,-1.8286,-1.8114,-1.8056,-1.8048,0.0,0.0,-1.652,-1.652,-1.6411,-1.6253,-1.6418,-1.6404,-1.626,-1.6472,-1.6281,-1.5953,-1.6771,-1.6152,-1.4762,-1.4209,-1.4151,-1.4343,0.0,0.0,0.0,0.0,0.0,0.0,0.0,0.0,0.0,0.0,0.0,0.0,0.0,0.0,0.0,0.0,0.0,0.0,0.0,-0.6405,-0.6532,-0.6905,-0.695,-0.7024,-0.7095,-0.7709,-0.8017,-0.8017,-0.8575,-0.8834,0.0,0.0,0.0,0.0,0.0,0.0,0.0,0.0,0.0,0.0,0.0,0.0,-1.576,-1.6273,-1.6846,-1.7374,-1.7948,-1.8149,-1.8169,-1.8264,-1.8285,-1.8285,-1.8285,-1.8015,-1.7502,0.0,0.0,0.0,0.0,0.0,0.0,0.0,0.0,0.0,0.0,0.0,0.0,0.0,0.0,-1.5541,0.0,0.0,-1.5227,-1.498,-1.5215,-1.5524,-1.5647,-1.5718,-1.6083,-1.718,-1.7302,-1.7302,-1.7302,-1.7994,-1.8415,-1.8415,-1.9084,-1.9497,-1.9497,-1.9105,-1.8434,-1.7514,-1.7807,-1.7511,-1.6617,-1.6721,-1.6763,-1.6756,-1.6109,-1.5784,-1.5784,-1.5784,-1.5784,-1.5784,-1.5784,-1.5784,-1.5771,-1.5671,-1.5357,-1.5033,-1.5476,-1.501,-1.4048,-1.3761,-1.3834,-1.4048,0.0,0.0,0.0,0.0,0.0,0.0,0.0,0.0,0.0,0.0,0.0,0.0,0.0,0.0,0.0,0.0,0.0,0.0,0.0,-0.6491,-0.6692,-0.7038,-0.7082,-0.7095,-0.7095,-0.7095,-0.7095,-0.7095,-0.7095,-0.7095,0.0,0.0,0.0,0.0,0.0,0.0,0.0,0.0,0.0,0.0,0.0,0.0,-1.4208,-1.5054,-1.591,-1.669,-1.6927,-1.6968,-1.7009,-1.7212,-1.7302,-1.7302,-1.7302,-1.7302,-1.7038,-1.5757,-1.5663,0.0,0.0,0.0,0.0,0.0,0.0,0.0,0.0,0.0,-1.5417,-1.5237,-1.5424,-1.5327,-1.4352,-1.4358,-1.4262,-1.3494,-1.3581,-1.3773,-1.4055,-1.4088,-1.4741,-1.6486,-1.669,-1.669,-1.669,-1.7254,-1.7652,-1.7723,-1.8356,-1.8738,-1.8756,-1.8764,-1.8093,-1.6669,-1.7086,-1.6615,-1.5182,-1.5591,-1.5683,-1.5439,-1.5683,-1.5683,-1.5439,-1.5683,-1.5683,-1.5432,-1.5136,-1.5016,-1.4997,-1.4763,-1.4481,-1.4212,-1.3938,-1.3676,-1.3434,-1.3688,-1.3603,-1.3428,0.0,0.0,0.0,0.0,0.0,0.0,0.0,0.0,0.0,0.0,0.0,0.0,0.0,0.0,0.0,0.0,0.0,0.0,-0.5871,-0.6376,-0.6759,-0.6903,-0.7028,-0.7095,-0.7095,-0.7095,-0.7095,-0.7095,-0.7095,-0.7095,0.0,0.0,0.0,0.0,0.0,0.0,0.0,0.0,0.0,0.0,0.0,0.0,-1.413,-1.425,-1.4334,-1.4573,-1.5545,-1.5861,-1.6026,-1.6968,-1.7302,-1.7302,-1.7302,-1.7302,-1.7137,-1.6198,0.0,-1.569,-1.4274,-1.4048,-1.4221,-1.4328,-1.5222,-1.5827,0.0,0.0,-1.5448,-1.4675,-1.4425,-1.4261,-1.415,-1.4129,-1.4107,-1.403,-1.4015,-1.4048,-1.4082,-1.4088,-1.4173,-1.4419,-1.4454,-1.4454,-1.4454,-1.4756,-1.5064,-1.5377,-1.5661,-1.5963,-1.6183,-1.6197,-1.6116,-1.5913,-1.5981,-1.5934,-1.5732,-1.5751,-1.5242,-1.4118,-1.5242,-1.5194,-1.4166,-1.5289,-1.5194,-1.4058,-1.2733,-1.2168,-1.2152,-1.2007,-1.1772,-1.1515,-1.1488,-1.1291,-1.1128,-1.2114,-1.1858,-1.0999,0.0,0.0,0.0,0.0,0.0,0.0,0.0,0.0,0.0,0.0,0.0,0.0,0.0,0.0,0.0,0.0,0.0,0.0,-0.5661,-0.5501,-0.5557,-0.5823,-0.5366,-0.5071,-0.5082,-0.5082,-0.5398,-0.6115,-0.6115,-0.6473,0.0,0.0,0.0,0.0,0.0,0.0,0.0,0.0,0.0,0.0,0.0,0.0,-1.4088,-1.4088,-1.4088,-1.4099,-1.4037,-1.4113,0.0,0.0,-1.4788,-1.4977,-1.5318,-1.508,-1.4641,-1.4443,-1.4018,0.0,-1.3302,-1.3404,0.0,0.0,-1.4427,-1.4871,-1.4489,-1.4607,-1.4664,-1.4282,-1.4158,-1.4088,-1.4088,-1.3948,-1.3881,0.0,-1.3941,-1.3895,-1.4062,-1.4088,-1.4088,-1.4088,-1.3781,-1.3574,-1.3574,-1.4148,-1.4429,-1.4208,-1.4783,-1.5271,-1.5565,-1.5578,-1.5316,-1.4698,-1.4704,-1.4316,-1.3547,-1.3547,-1.3253,-1.2721,-1.3301,-1.3253,-1.2764,-1.3197,-1.3097,-1.2483,-1.1869,-1.1595,-1.158,-1.1353,-1.1204,-1.1062,-1.0885,-1.0304,-0.9749,-1.0907,-1.0999,-1.0611,0.0,0.0,0.0,0.0,0.0,0.0,0.0,0.0,0.0,0.0,0.0,0.0,0.0,0.0,0.0,0.0,0.0,0.0,0.0,-0.4522,-0.43,-0.4571,-0.3976,0.0,-0.3583,-0.3585,-0.4038,-0.491,-0.5225,-0.5805,0.0,0.0,0.0,0.0,0.0,0.0,0.0,0.0,0.0,0.0,0.0,0.0,-1.313,-1.313,-1.3203,-1.3212,-1.2902,-1.2931,0.0,0.0,-1.2692,-1.3113,-1.3293,-1.3112,-1.2797,-1.2819,-1.2325,-1.1891,-1.2603,0.0,0.0,-1.3467,-1.3766,-1.3988,-1.4068,-1.4088,-1.4088,-1.4088,-1.4088,-1.4088,-1.4088,-1.3908,0.0,-1.4055,-1.3908,-1.371,-1.362,-1.3603,-1.3455,-1.305,-1.2638,-1.2274,-1.2005,-1.3302,-1.3948,-1.3423,-1.4028,-1.436,-1.4314,-1.4333,-1.3997,-1.3271,-1.3235,-1.276,-1.1806,-1.1806,-1.1614,-1.1231,-1.1614,-1.1614,-1.1226,-1.1119,-1.1052,-1.0941,-1.0521,-1.036,-1.0346,-1.0095,-1.0011,-0.9993,-0.9717,-0.9144,-0.8496,-0.9314,-0.9614,-0.9614,0.0,0.0,0.0,0.0,0.0,0.0,0.0,0.0,0.0,0.0,0.0,0.0,0.0,0.0,0.0,0.0,0.0,0.0,0.0,-0.3536,-0.335,-0.3359,-0.3523,-0.3604,-0.3597,-0.3599,-0.3632,-0.3659,-0.4821,-0.5403,-0.5492,0.0,0.0,0.0,0.0,0.0,0.0,0.0,0.0,0.0,0.0,0.0,-1.0697,-1.0697,-1.0875,-1.1245,-1.2401,0.0,0.0,0.0,-1.2044,-1.265,-1.177,-1.2078,0.0,-1.2107,-1.169,0.0,0.0,0.0,-1.2228,-1.3313,-1.3613,-1.3693,-1.4021,-1.4088,-1.4088,-1.4088,-1.4088,-1.4088,-1.4088,-1.4082,-1.4075,-1.4088,-1.4082,-1.3675,-1.2504,-1.237,-1.1851,-1.0478,-1.0293,-0.9927,0.0,-1.1544,-1.3132,-1.2857,-1.2847,-1.2483,-1.168,-1.1604,-1.1604,-1.1563,-1.1563,-1.1569,-1.1523,-1.1523,-1.0874,-0.9583,-1.0874,-1.0828,-0.9583,-0.9575,-0.957,-0.9465,-0.8116,-0.7514,-0.75,-0.73,-0.7234,-0.7234,-0.7228,-0.7183,-0.7139,-0.7183,-0.7228,-0.7228,0.0,0.0,0.0,0.0,0.0,0.0,0.0,0.0,0.0,0.0,0.0,0.0,0.0,0.0,0.0,0.0,0.0,0.0,0.0,-0.2293,-0.1948,-0.2159,-0.1568,-0.1204,-0.1232,-0.1232,-0.1587,-0.2407,-0.2801,-0.3833,-0.5403,0.0,0.0,0.0,0.0,0.0,0.0,0.0,0.0,0.0,0.0,0.0,-1.058,-1.0413,-1.0307,-1.0214,0.0,0.0,0.0,0.0,-1.0889,-1.1275,-1.0876,0.0,0.0,-1.0822,-1.0765,-1.0888,0.0,0.0,-1.0594,-1.1208,-1.1495,-1.1634,-1.1761,-1.1783,-1.1783,-1.1783,-1.2247,-1.2635,-1.2635,-1.2577,-1.2521,-1.2646,-1.2029,-1.1413,-1.1209,-1.0891,-1.0672,-1.0479,-0.9953,0.0,0.0,0.0,0.0,-1.0498,-1.1021,-1.1301,-1.122,-1.123,-1.089,-1.0205,-1.0163,-0.9756,-0.8936,-0.8889,-0.8707,-0.8243,-0.8703,-0.8644,-0.8123,-0.8123,-0.8015,-0.7863,-0.7417,-0.7217,-0.7214,-0.7119,-0.7095,-0.7095,-0.7095,-0.7095,-0.7095,-0.7095,-0.7095,-0.7095,0.0,0.0,0.0,0.0,0.0,0.0,0.0,0.0,0.0,0.0,0.0,0.0,0.0,0.0,0.0,0.0,0.0,0.0,0.0,0.0,-0.081,-0.1014,-0.0375,0.0,0.0,0.0,-0.0369,-0.1173,-0.1573,-0.2813,-0.477,0.0,0.0,0.0,0.0,0.0,0.0,0.0,0.0,0.0,0.0,0.0,-0.9775,-0.9399,-0.9053,0.0,0.0,0.0,0.0,0.0,0.0,0.0,0.0,-0.9302,-0.9479,-0.9497,-0.9633,-0.9821,0.0,-0.9815,-0.982,-1.0243,-1.0462,-1.0611,-1.0611,-1.0611,-1.0611,-1.0611,-1.1049,-1.1425,-1.1377,-1.1279,-1.1269,-1.1338,-1.0739,-1.0201,-1.0005,-0.9745,-0.9458,-0.9248,-0.8707,0.0,0.0,0.0,0.0,-0.8965,-0.948,-0.971,-0.9548,-0.9509,-0.9239,-0.8683,-0.8645,-0.8242,-0.7434,-0.7434,-0.7434,-0.7434,-0.7434,-0.7383,-0.7288,-0.7288,-0.7177,-0.6943,-0.6609,-0.6417,-0.6334,-0.6433,-0.6473,-0.6517,-0.6962,-0.7095,-0.7095,-0.7095,-0.7095,-0.7095,0.0,0.0,0.0,0.0,0.0,0.0,0.0,0.0,0.0,0.0,0.0,0.0,0.0,0.0,0.0,0.0,0.0,0.0,0.0,0.0,0.0,0.0,0.0,0.0,0.0,0.0,0.0,0.0,-0.114,-0.2354,-0.3608,-0.472,0.0,0.0,0.0,0.0,0.0,0.0,0.0,0.0,0.0,0.0,-0.8374,-0.7806,0.0,0.0,0.0,0.0,0.0,0.0,0.0,0.0,0.0,0.0,-0.7604,-0.8238,-0.8389,-0.8573,-0.9375,-0.9583,-0.9715,-1.029,-1.0438,-1.0438,-1.0438,-1.0438,-1.0433,-1.0408,-1.0436,-1.0447,0.0,0.0,-1.0258,-1.0288,-1.0247,-0.9855,-0.8922,-0.8765,-0.8252,0.0,0.0,0.0,0.0,0.0,0.0,-0.8242,0.0,-0.7859,-0.6764,-0.6722,-0.6851,-0.7088,-0.7095,-0.7095,-0.7095,-0.7095,-0.7095,-0.7095,-0.7095,-0.7095,-0.7095,-0.7051,-0.6857,-0.6569,-0.5706,-0.5109,-0.4851,-0.5185,-0.5314,-0.5403,-0.6517,-0.6918,-0.6918,-0.6918,-0.6918,-0.6918,0.0,0.0,0.0,0.0,0.0,0.0,0.0,0.0,0.0,0.0,0.0,0.0,0.0,0.0,0.0,0.0,0.0,0.0,0.0,0.0,0.0,0.0,0.0,0.0,0.0,0.0,0.0,0.0,0.0,-0.1341,-0.3085,-0.3389,0.0,0.0,0.0,0.0,0.0,0.0,0.0,0.0,0.0,0.0,-0.8644,0.0,0.0,0.0,0.0,0.0,0.0,0.0,0.0,0.0,0.0,0.0,-0.7495,-0.8189,-0.8272,-0.8094,-0.813,-0.7951,-0.782,-0.7946,-0.8009,-0.8009,-0.8009,-0.8009,-0.7941,-0.7735,-0.8193,-0.8604,0.0,0.0,0.0,-0.8696,-0.8037,0.0,-0.729,-0.7168,0.0,0.0,0.0,-0.6756,-0.6902,-0.694,0.0,0.0,-0.7321,-0.7324,-0.7027,-0.6984,-0.7018,-0.7095,-0.7095,-0.7095,-0.7095,-0.7095,-0.7095,-0.7095,-0.7095,-0.7095,-0.7051,-0.6204,-0.5816,-0.567,-0.453,-0.3992,-0.3957,-0.4043,-0.4061,-0.4105,-0.4372,-0.4505,-0.4505,-0.4505,-0.4505,-0.4505,0.0,0.0,0.0,0.0,0.0,0.0,0.0,0.0,0.0,0.0,0.0,0.0,0.0,0.0,0.0,0.0,0.0,0.0,0.0,0.0,0.0,0.0,0.0,0.0,0.0,0.0,0.0,0.0,0.0,0.0,0.0,-0.3246,0.0,0.0,0.0,0.0,0.0,0.0,0.0,0.0,0.0,0.0,0.0,0.0,0.0,0.0,0.0,0.0,0.0,0.0,0.0,-0.6839,-0.8043,-0.7711,-0.6984,-0.7647,0.0,-0.742,-0.7379,-0.7261,-0.7095,-0.7095,-0.7095,-0.7061,-0.6933,-0.6903,-0.6865,-0.6569,-0.6907,0.0,0.0,0.0,0.0,0.0,0.0,0.0,-0.6688,-0.6627,-0.6603,0.0,-0.6702,0.0,-0.7068,-0.7095,-0.7028,0.0,-0.6926,-0.6903,-0.6903,-0.6903,-0.6964,-0.7092,-0.7095,-0.7095,-0.7095,-0.7095,-0.7095,-0.7095,-0.7095,-0.7095,-0.7051,-0.5938,-0.5305,-0.5089,0.0,-0.2741,-0.2612,-0.2748,-0.2815,-0.2858,-0.3392,-0.3614,-0.3614,-0.3614,-0.3614,-0.3614,0.0,0.0,0.0,0.0,0.0,0.0,0.0,0.0,0.0,0.0,0.0,0.0,0.0,0.0,0.0,0.0,0.0,0.0,0.0,0.0,0.0,0.0,0.0,0.0,0.0,0.0,0.0,0.0,0.0,0.0,0.0,0.0,0.0,0.0,0.0,0.0,0.0,0.0,0.0,0.0,0.0,0.0,0.0,0.0,0.0,0.0,0.0,0.0,0.0,0.0,-0.7778,-0.7168,-0.8148,-0.7502,-0.6511,-0.69,-0.6886,-0.6807,-0.6977,-0.7065,-0.7095,-0.7095,-0.7095,-0.7031,-0.6817,-0.6729,-0.6617,-0.6361,0.0,0.0,-0.6265,0.0,-0.6368,-0.6624,0.0,-0.6671,-0.6593,-0.6668,-0.6709,-0.6651,-0.6675,-0.6817,-0.7068,-0.7061,-0.7055,-0.7092,-0.6902,-0.6759,-0.6759,-0.6759,-0.6875,-0.7088,-0.7095,-0.7095,-0.7095,-0.7095,-0.7095,-0.7095,-0.7095,-0.7095,-0.7051,-0.5758,-0.499,-0.4615,0.0,0.0,-0.1148,-0.1456,-0.1567,-0.1656,-0.2726,-0.3126,-0.3126,-0.3126,-0.3126,-0.3126,0.0,0.0,0.0,0.0,0.0,0.0,0.0,0.0,0.0,0.0,0.0,0.0,0.0,0.0,0.0,0.0,0.0,0.0,0.0,0.0,0.0,0.0,0.0,0.0,0.0,0.0,0.0,0.0,0.0,0.0,0.0,0.0,0.0,0.0,0.0,0.0,0.0,0.0,0.0,0.0,0.0,0.0,0.0,0.0,0.0,0.0,0.0,0.0,0.0,0.0,-0.913,-0.7651,-0.8548,-0.7974,-0.6916,-0.6817,-0.6912,-0.6977,-0.6827,-0.691,-0.7095,-0.7095,-0.7095,-0.7082,-0.7031,-0.6875,0.0,0.0,0.0,-0.5918,-0.6047,-0.6071,0.0,-0.6464,0.0,0.0,0.0,0.0,-0.6753,0.0,0.0,0.0,0.0,0.0,0.0,0.0,0.0,-0.7021,-0.7021,-0.7021,-0.7045,-0.7095,-0.7095,-0.7095,-0.7095,-0.7095,-0.7095,-0.7095,-0.7095,-0.7095,-0.7007,-0.4907,-0.3866,-0.371,-0.134,0.0,-0.0222,-0.0269,-0.0314,-0.0314,-0.0539,-0.0628,-0.0628,-0.0628,-0.0628,-0.0628,0.0,0.0,0.0,0.0,0.0,0.0,0.0,0.0,0.0,0.0,0.0,0.0,0.0,0.0,0.0,0.0,0.0,0.0,0.0,0.0,0.0,0.0,0.0,0.0,0.0,0.0,0.0,0.0,0.0,0.0,0.0,0.0,0.0,0.0,0.0,0.0,0.0,0.0,0.0,0.0,0.0,0.0,0.0,0.0,0.0,0.0,0.0,0.0,0.0,0.0,-0.9046,-0.8314,-1.0131,-0.9444,-0.7992,-0.7693,-0.7371,-0.7031,-0.678,-0.6915,-0.7095,-0.7095,-0.7095,-0.7014,-0.6753,0.0,0.0,0.0,0.0,-0.562,-0.5772,0.0,0.0,0.0,0.0,0.0,0.0,0.0,0.0,0.0,0.0,0.0,0.0,0.0,0.0,0.0,0.0,-0.6937,-0.7088,-0.7095,-0.7095,-0.7095,-0.7095,-0.7095,-0.7095,-0.7095,-0.7095,-0.7095,-0.6517,-0.6204,-0.6115,-0.3749,-0.2681,-0.2547,-0.0762,0.0,0.0,0.0,0.0,0.0,0.0,0.0,0.0,0.0,0.0,0.0,0.0,0.0,0.0,0.0,0.0,0.0,0.0,0.0,0.0,0.0,0.0,0.0,0.0,0.0,0.0,0.0,0.0,0.0,0.0,0.0,0.0,0.0,0.0,0.0,0.0,0.0,0.0,0.0,0.0,0.0,0.0,0.0,0.0,0.0,0.0,0.0,0.0,0.0,0.0,0.0,0.0,0.0,0.0,0.0,0.0,0.0,0.0,0.0,0.0,0.0,-0.8964,-0.8888,-1.1255,-1.0454,-0.8564,-0.8139,-0.757,-0.6967,-0.6841,-0.692,-0.7095,-0.7095,-0.7095,-0.696,-0.6474,-0.6344,0.0,0.0,0.0,-0.545,-0.5599,0.0,0.0,0.0,0.0,0.0,0.0,0.0,0.0,0.0,0.0,0.0,0.0,0.0,0.0,0.0,0.0,0.0,-0.7085,-0.7095,-0.7095,-0.7095,-0.7095,-0.7095,-0.7095,-0.7095,-0.7095,-0.7095,-0.5938,-0.5403,-0.5314,-0.2906,-0.179,-0.1746,-0.0539,0.0,0.0,0.0,0.0,0.0,0.0,0.0,0.0,0.0,0.0,0.0,0.0,0.0,0.0,0.0,0.0,0.0,0.0,0.0,0.0,0.0,0.0,0.0,0.0,0.0,0.0,0.0,0.0,0.0,0.0,0.0,0.0,0.0,0.0,0.0,0.0,0.0,0.0,0.0,0.0,0.0,0.0,0.0,0.0,0.0,0.0,0.0,0.0,0.0,0.0,0.0,0.0,0.0,0.0,0.0,0.0,0.0,0.0,0.0,0.0,0.0,0.0,-0.9029,-1.063,-0.9561,-0.7622,-0.7029,0.0,0.0,-0.6991,-0.7075,-0.7095,-0.7095,-0.7095,-0.7011,-0.6732,0.0,0.0,0.0,-0.5583,-0.5481,-0.5728,-0.5783,0.0,0.0,0.0,0.0,0.0,0.0,0.0,0.0,0.0,0.0,0.0,0.0,0.0,0.0,0.0,0.0,-0.7095,-0.7095,-0.7095,-0.7095,-0.7095,-0.7095,-0.7095,-0.7095,-0.7095,-0.7095,-0.5938,-0.5403,-0.5314,-0.2906,-0.179,-0.1746,-0.0539,0.0,0.0,0.0,0.0,0.0,0.0,0.0,0.0,0.0,0.0,0.0,0.0,0.0,0.0,0.0,0.0,0.0,0.0,0.0,0.0,0.0,0.0,0.0,0.0,0.0,0.0,0.0,0.0,0.0,0.0,0.0,0.0,0.0,0.0,0.0,0.0,0.0,0.0,0.0,0.0,0.0,0.0,0.0,0.0,0.0,0.0,0.0,0.0,0.0,0.0,0.0,0.0,0.0,0.0,0.0,0.0,0.0,0.0,0.0,0.0,0.0,0.0,0.0,-0.8564,-0.8137,0.0,0.0,-0.6964,-0.6688,-0.6627,-0.6868,-0.7095,-0.7095,-0.7095,-0.6974,-0.6542,0.0,0.0,-0.5672,-0.5477,-0.5429,-0.5549,-0.5573,-0.5668,0.0,0.0,0.0,0.0,0.0,0.0,0.0,0.0,0.0,0.0,0.0,0.0,0.0,0.0,0.0,-0.7088,-0.7095,-0.7095,-0.7095,-0.7095,-0.7095,-0.7095,-0.7095,-0.7095,-0.7095,-0.522,-0.433,-0.4241,-0.1836,-0.0718,-0.0673,-0.0225,0.0,0.0,0.0,0.0,0.0,0.0,0.0,0.0,0.0,0.0,0.0,0.0,0.0,0.0,0.0,0.0,0.0,0.0,0.0,0.0,0.0,0.0,0.0,0.0,0.0,0.0,0.0,0.0,0.0,0.0,0.0,0.0,0.0,0.0,0.0,0.0,0.0,0.0,0.0,0.0,0.0,0.0,0.0,0.0,0.0,0.0,0.0,0.0,0.0,0.0,0.0,0.0,0.0,0.0,0.0,0.0,0.0,0.0,0.0,0.0,0.0,0.0,0.0,0.0,0.0,0.0,0.0,-0.6806,-0.6542,-0.6463,-0.6756,-0.7095,-0.7095,-0.7031,-0.6878,0.0,0.0,-0.6016,-0.5501,-0.5395,-0.5395,-0.5395,-0.5395,-0.5491,0.0,0.0,0.0,0.0,0.0,0.0,0.0,0.0,0.0,0.0,0.0,0.0,0.0,0.0,0.0,0.0,-0.7095,-0.7095,-0.7095,-0.7095,-0.7095,-0.7095,-0.6782,-0.6605,-0.6561,-0.4194,-0.305,-0.2996,-0.0933,0.0,0.0,0.0,0.0,0.0,0.0,0.0,0.0,0.0,0.0,0.0,0.0,0.0,0.0,0.0,0.0,0.0,0.0,0.0,0.0,0.0,0.0,0.0,0.0,0.0,0.0,0.0,0.0,0.0,0.0,0.0,0.0,0.0,0.0,0.0,0.0,0.0,0.0,0.0,0.0,0.0,0.0,0.0,0.0,0.0,0.0,0.0,0.0,0.0,0.0,0.0,0.0,0.0,0.0,0.0,0.0,0.0,0.0,0.0,0.0,0.0,0.0,0.0,0.0,0.0,0.0,0.0,0.0,0.0,0.0,-0.6057,-0.6368,-0.6617,-0.6912,-0.7095,-0.7095,-0.6919,-0.6627,0.0,0.0,-0.5722,-0.5457,-0.5395,-0.5395,-0.5395,-0.5395,-0.5491,-0.5752,0.0,0.0,0.0,0.0,0.0,0.0,0.0,0.0,0.0,0.0,0.0,0.0,0.0,0.0,0.0,-0.7095,-0.7095,-0.7095,-0.7095,-0.7095,-0.7095,-0.5983,-0.5403,-0.5403,-0.295,-0.1818,-0.1788,-0.0567,0.0,0.0,0.0,0.0,0.0,0.0,0.0,0.0,0.0,0.0,0.0,0.0,0.0,0.0,0.0,0.0,0.0,0.0,0.0,0.0,0.0,0.0,0.0,0.0,0.0,0.0,0.0,0.0,0.0,0.0,0.0,0.0,0.0,0.0,0.0,0.0,0.0,0.0,0.0,0.0,0.0,0.0,0.0,0.0,0.0,0.0,0.0,0.0,0.0,0.0,0.0,0.0,0.0,0.0,0.0,0.0,0.0,0.0,0.0,0.0,0.0,0.0,0.0,0.0,0.0,0.0,0.0,0.0,0.0,-0.7631,-0.7102,0.0,-0.6207,-0.6308,-0.6539,-0.6539,-0.6508,-0.6361,-0.6017,0.0,-0.5718,-0.5457,-0.5395,-0.5395,-0.5395,-0.5395,-0.5491,-0.5752,-0.58,0.0,0.0,0.0,0.0,0.0,0.0,0.0,0.0,0.0,0.0,0.0,0.0,0.0,0.0,-0.7095,-0.7095,-0.7095,-0.7095,-0.7095,-0.7095,-0.5983,-0.5403,-0.5359,-0.295,-0.1817,-0.1745,-0.0567,0.0,0.0,0.0,0.0,0.0,0.0,0.0,0.0,0.0,0.0,0.0,0.0,0.0,0.0,0.0,0.0,0.0,0.0,0.0,0.0,0.0,0.0,0.0,0.0,0.0,0.0,0.0,0.0,0.0,0.0,0.0,0.0,0.0,0.0,0.0,0.0,0.0,0.0,0.0,0.0,0.0,0.0,0.0,0.0,0.0,0.0,0.0,0.0,0.0,0.0,0.0,0.0,0.0,0.0,0.0,0.0,-1.0593,0.0,0.0,0.0,0.0,0.0,0.0,0.0,0.0,0.0,0.0,0.0,0.0,0.0,-0.8225,-0.7695,0.0,-0.6284,-0.63,-0.63,-0.6211,0.0,0.0,0.0,-0.5617,-0.5433,-0.5484,-0.5528,-0.5416,-0.5487,-0.5586,-0.5623,-0.5871,0.0,0.0,0.0,0.0,0.0,0.0,0.0,0.0,0.0,0.0,0.0,0.0,0.0,0.0,-0.7095,-0.7095,-0.7095,-0.7095,-0.7095,-0.7095,-0.5983,-0.5179,-0.4688,-0.2727,-0.1558,-0.1098,-0.0349,0.0,0.0,0.0,0.0,0.0,0.0,0.0,0.0,0.0,0.0,0.0,0.0,0.0,0.0,0.0,0.0,0.0,0.0,0.0,0.0,0.0,0.0,0.0,0.0,0.0,0.0,0.0,0.0,0.0,0.0,0.0,0.0,0.0,0.0,0.0,0.0,0.0,0.0,0.0,0.0,0.0,-1.2304,-1.262,-1.2805,-1.2814,0.0,0.0,0.0,0.0,0.0,0.0,0.0,0.0,0.0,0.0,0.0,0.0,0.0,0.0,0.0,0.0,0.0,0.0,0.0,0.0,0.0,0.0,0.0,0.0,0.0,0.0,0.0,0.0,0.0,0.0,0.0,0.0,0.0,0.0,0.0,0.0,0.0,-0.561,-0.5718,-0.5477,-0.5644,-0.5752,-0.5491,-0.6054,0.0,0.0,0.0,0.0,0.0,0.0,0.0,0.0,0.0,0.0,0.0,0.0,0.0,0.0,-0.7095,-0.7095,-0.7095,-0.7095,-0.7095,-0.7095,-0.5891,-0.4721,-0.359,-0.2275,-0.1081,0.0,0.0,0.0,0.0,0.0,0.0,0.0,0.0,0.0,0.0,0.0,0.0,0.0,0.0,0.0,0.0,0.0,0.0,0.0,0.0,0.0,0.0,0.0,0.0,0.0,0.0,0.0,0.0,0.0,0.0,0.0,0.0,0.0,0.0,0.0,0.0,0.0,0.0,0.0,0.0,0.0,0.0,0.0,-1.4175,-1.4553,-1.4732,-1.4732,-1.4827,0.0,0.0,0.0,0.0,0.0,0.0,0.0,0.0,0.0,0.0,0.0,0.0,0.0,0.0,-1.0593,-1.0593,0.0,0.0,0.0,0.0,0.0,0.0,0.0,0.0,-0.9817,-0.9066,-0.8055,0.0,-0.6447,-0.5776,0.0,0.0,0.0,0.0,0.0,0.0,0.0,0.0,0.0,0.0,-0.6217,-0.5922,0.0,0.0,0.0,0.0,0.0,0.0,0.0,0.0,0.0,0.0,0.0,0.0,0.0,0.0,0.0,-0.7095,-0.7095,-0.7095,-0.7095,-0.7095,-0.7095,-0.5041,-0.3877,-0.3568,-0.1445,-0.0254,0.0,0.0,0.0,0.0,0.0,0.0,0.0,0.0,0.0,0.0,0.0,0.0,0.0,0.0,0.0,0.0,0.0,0.0,0.0,0.0,0.0,0.0,0.0,0.0,0.0,0.0,0.0,0.0,0.0,0.0,0.0,0.0,0.0,0.0,0.0,0.0,0.0,0.0,0.0,0.0,0.0,0.0,0.0,0.0,0.0,-1.541,0.0,0.0,0.0,0.0,0.0,0.0,0.0,0.0,0.0,0.0,-1.1803,0.0,0.0,0.0,0.0,0.0,-1.0593,-1.0593,0.0,-1.0593,-1.0593,-1.0593,0.0,0.0,0.0,0.0,-1.0269,-0.9722,-0.8844,-0.7597,-0.64,-0.5746,-0.541,-0.5311,0.0,0.0,0.0,0.0,0.0,0.0,0.0,0.0,0.0,0.0,0.0,0.0,0.0,0.0,0.0,0.0,0.0,0.0,0.0,0.0,0.0,0.0,0.0,0.0,0.0,-0.7095,-0.7095,-0.7095,-0.7095,-0.7095,-0.7095,-0.5844,-0.4667,-0.3566,-0.2257,-0.1063,0.0,0.0,0.0,0.0,0.0,0.0,0.0,0.0,0.0,0.0,0.0,0.0,0.0,0.0,0.0,0.0,0.0,0.0,0.0,0.0,0.0,0.0,0.0,0.0,0.0,0.0,0.0,0.0,0.0,0.0,0.0,0.0,0.0,0.0,0.0,0.0,0.0,0.0,0.0,0.0,0.0,0.0,0.0,0.0,0.0,0.0,0.0,0.0,0.0,0.0,0.0,0.0,0.0,0.0,0.0,0.0,-1.1981,0.0,0.0,0.0,0.0,0.0,0.0,0.0,0.0,-1.0593,-1.0593,-1.0593,-1.0593,0.0,0.0,0.0,0.0,0.0,-0.9364,-0.7869,-0.6519,-0.6106,-0.5582,-0.5277,0.0,0.0,0.0,0.0,0.0,0.0,0.0,0.0,0.0,0.0,0.0,0.0,0.0,0.0,0.0,0.0,0.0,0.0,0.0,0.0,0.0,0.0,0.0,0.0,0.0,-0.7095,-0.7095,-0.7095,-0.7095,-0.7095,-0.7095,-0.6918,-0.5835,-0.3889,-0.3507,-0.2248,-0.0285,-0.0087,0.0,0.0,0.0,0.0,0.0,0.0,0.0,0.0,0.0,0.0,0.0,0.0,0.0,0.0,0.0,0.0,0.0,0.0,0.0,0.0,0.0,0.0,0.0,0.0,0.0,0.0,0.0,0.0,0.0,0.0,0.0,0.0,0.0,0.0,0.0,0.0,0.0,0.0,0.0,0.0,0.0,0.0,0.0,0.0,-1.541,-1.541,-1.541,0.0,0.0,0.0,0.0,0.0,0.0,0.0,0.0,0.0,0.0,0.0,0.0,0.0,0.0,0.0,0.0,-1.0593,-1.0593,-1.0593,-1.0593,0.0,0.0,0.0,0.0,0.0,-0.864,-0.7858,-0.7399,-0.7011,-0.6104,-0.5443,0.0,0.0,0.0,0.0,0.0,0.0,0.0,0.0,0.0,0.0,0.0,0.0,0.0,0.0,0.0,0.0,0.0,0.0,0.0,0.0,0.0,0.0,0.0,0.0,0.0,-0.7095,-0.7095,-0.7095,-0.7095,-0.7095,-0.7095,-0.616,-0.5491,-0.5098,-0.3033,-0.1903,-0.1503,-0.0479,0.0,0.0,0.0,0.0,0.0,0.0,0.0,0.0,0.0,0.0,0.0,0.0,0.0,0.0,0.0,0.0,0.0,0.0,0.0,0.0,0.0,0.0,0.0,0.0,0.0,0.0,0.0,0.0,0.0,0.0,0.0,0.0,0.0,0.0,0.0,0.0,0.0,0.0,0.0,0.0,0.0,0.0,0.0,-1.541,-1.541,-1.541,-1.541,-1.541,0.0,0.0,0.0,0.0,0.0,0.0,0.0,0.0,0.0,0.0,0.0,0.0,0.0,0.0,0.0,0.0,-1.0593,-1.0593,-1.0593,0.0,0.0,0.0,0.0,0.0,-0.9037,-0.8302,-0.7797,-0.746,-0.629,0.0,0.0,0.0,0.0,0.0,0.0,0.0,0.0,0.0,0.0,0.0,0.0,0.0,0.0,0.0,0.0,0.0,0.0,0.0,0.0,0.0,0.0,0.0,0.0,0.0,0.0,0.0,-0.7095,-0.7095,-0.7095,-0.7095,-0.7095,-0.6561,-0.6009,-0.5382,-0.4286,-0.3068,-0.1786,-0.1218,-0.0628,0.0,0.0,0.0,0.0,0.0,0.0,0.0,0.0,0.0,0.0,0.0,0.0,0.0,0.0,0.0,0.0,0.0,0.0,0.0,0.0,0.0,0.0,0.0,0.0,0.0,0.0,0.0,0.0,0.0,0.0,0.0,0.0,0.0,0.0,0.0,0.0,0.0,0.0,0.0,-1.5671,-1.5671,-1.5468,-1.541,-1.541,-1.541,-1.541,0.0,0.0,0.0,0.0,0.0,0.0,0.0,0.0,0.0,0.0,0.0,0.0,0.0,0.0,0.0,0.0,0.0,0.0,0.0,0.0,0.0,0.0,-1.0593,-1.046,-1.011,-0.9236,-0.8392,-0.7654,-0.7323,0.0,0.0,0.0,0.0,0.0,0.0,0.0,0.0,0.0,0.0,0.0,0.0,0.0,0.0,0.0,0.0,0.0,0.0,0.0,0.0,0.0,0.0,0.0,0.0,0.0,0.0,0.0,0.0,-0.7095,-0.7095,-0.7095,-0.7095,-0.7095,-0.7095,-0.6661,-0.58,-0.554,-0.4439,-0.2617,-0.2361,-0.1701,-0.085,-0.0851,-0.0685,-0.0402,-0.0425,-0.0258,0.0,0.0,0.0,0.0,0.0,0.0,0.0,0.0,0.0,0.0,0.0,0.0,0.0,0.0,0.0,0.0,0.0,0.0,0.0,0.0,0.0,0.0,0.0,0.0,0.0,0.0,0.0,0.0,0.0,0.0,0.0,0.0,-1.6782,-1.6436,-1.6436,-1.5729,-1.541,-1.541,-1.541,-1.541,-1.541,0.0,0.0,0.0,0.0,0.0,-1.1896,0.0,0.0,0.0,0.0,0.0,0.0,0.0,0.0,0.0,0.0,0.0,0.0,0.0,0.0,-1.0593,-1.0593,-1.0047,-0.9204,-0.8318,-0.755,-0.684,-0.6254,0.0,0.0,0.0,0.0,0.0,0.0,0.0,0.0,0.0,0.0,0.0,0.0,0.0,0.0,0.0,0.0,0.0,0.0,0.0,0.0,0.0,0.0,0.0,0.0,0.0,0.0,0.0,0.0,0.0,-0.7095,-0.7095,-0.7095,-0.7095,-0.7095,-0.7078,-0.696,-0.5924,-0.5302,-0.51,-0.3964,-0.3436,-0.3347,-0.3331,-0.2714,-0.1656,-0.1648,-0.1027,0.0,0.0,0.0,0.0,0.0,0.0,0.0,0.0,0.0,0.0,0.0,0.0,0.0,0.0,0.0,0.0,0.0,0.0,0.0,0.0,0.0,0.0,0.0,0.0,0.0,0.0,0.0,0.0,0.0,0.0,-1.8965,-1.8965,-1.6912,-1.5816,-1.5816,-1.5555,-1.541,-1.541,-1.541,0.0,0.0,0.0,0.0,0.0,0.0,0.0,-1.2512,-1.1989,-1.132,0.0,0.0,0.0,0.0,0.0,0.0,0.0,0.0,-1.0593,-1.0593,-1.0593,-1.0593,-1.0491,-0.9945,-0.9562,-0.8979,-0.7567,-0.7001,-0.6698,-0.6384,0.0,0.0,0.0,0.0,0.0,0.0,0.0,0.0,0.0,0.0,0.0,0.0,0.0,0.0,0.0,0.0,0.0,0.0,0.0,0.0,0.0,0.0,0.0,0.0,0.0,0.0,0.0,0.0,0.0,-0.7095,-0.7095,-0.7095,-0.7095,-0.7095,-0.7095,-0.7095,-0.665,-0.6071,-0.5403,-0.4912,-0.433,-0.3614,-0.3614,-0.3347,-0.2903,-0.2903,-0.2191,-0.1031,-0.0314,0.0,0.0,0.0,0.0,0.0,0.0,0.0,0.0,0.0,0.0,0.0,0.0,0.0,0.0,0.0,0.0,0.0,0.0,0.0,0.0,0.0,0.0,0.0,0.0,0.0,0.0,0.0,0.0,-1.9449,-1.9449,-1.7013,-1.5864,-1.6083,-1.5633,-1.541,-1.541,0.0,0.0,0.0,0.0,0.0,0.0,0.0,0.0,-1.2573,-1.202,-1.132,0.0,0.0,0.0,0.0,0.0,0.0,0.0,0.0,-1.0593,-1.0555,-1.0269,-1.0174,-1.0009,-0.9134,-0.8683,-0.8221,-0.7013,-0.6577,-0.6429,0.0,0.0,0.0,0.0,0.0,0.0,0.0,0.0,0.0,0.0,0.0,0.0,0.0,0.0,0.0,0.0,0.0,0.0,0.0,0.0,0.0,0.0,0.0,0.0,0.0,0.0,0.0,0.0,0.0,0.0,0.0,-0.7095,-0.7095,-0.7095,-0.7095,-0.7095,-0.7095,-0.7095,-0.6694,-0.5938,-0.5938,-0.5489,-0.4683,-0.4683,-0.4505,-0.415,-0.415,-0.3438,-0.2236,-0.1031,-0.0584,-0.0539,-0.0135,0.0,0.0,0.0,0.0,0.0,0.0,0.0,0.0,0.0,0.0,0.0,0.0,0.0,0.0,0.0,0.0,0.0,0.0,0.0,0.0,0.0,0.0,0.0,0.0,0.0,-1.8715,-1.8688,-1.7246,-1.6838,-1.7578,-1.6102,-1.541,-1.541,-1.541,0.0,0.0,0.0,0.0,0.0,0.0,-1.3295,-1.1826,-1.1826,-1.1313,-1.0611,0.0,0.0,0.0,0.0,0.0,0.0,0.0,-1.0593,-1.0428,-0.9562,-0.9306,-0.9102,-0.8258,-0.7372,-0.6682,-0.6691,-0.6249,0.0,0.0,0.0,0.0,0.0,0.0,0.0,0.0,0.0,0.0,0.0,0.0,0.0,0.0,0.0,0.0,0.0,0.0,0.0,0.0,0.0,0.0,0.0,0.0,0.0,0.0,0.0,0.0,0.0,0.0,0.0,0.0,-0.7095,-0.7095,-0.7095,-0.7095,-0.7095,-0.7095,-0.7095,-0.7095,-0.7095,-0.7095,-0.7095,-0.7095,-0.7095,-0.6473,-0.5403,-0.5403,-0.4688,-0.3481,-0.2281,-0.179,-0.1657,-0.0449,0.0,0.0,0.0,0.0,0.0,0.0,0.0,0.0,0.0,0.0,0.0,0.0,0.0,0.0,0.0,0.0,0.0,0.0,0.0,0.0,0.0,0.0,0.0,0.0,0.0,0.0,0.0,0.0,-1.634,-1.6054,-1.5604,-1.541,0.0,0.0,0.0,-1.5439,0.0,0.0,0.0,0.0,-1.4848,-1.3033,-1.254,-1.1679,-1.063,0.0,0.0,0.0,0.0,0.0,0.0,0.0,0.0,0.0,-0.937,-0.8785,-0.8069,-0.7512,-0.6939,-0.6423,-0.6161,-0.5786,0.0,0.0,0.0,0.0,0.0,0.0,0.0,0.0,0.0,0.0,0.0,0.0,0.0,0.0,0.0,0.0,0.0,0.0,0.0,0.0,0.0,0.0,0.0,0.0,0.0,0.0,0.0,0.0,0.0,0.0,0.0,0.0,-0.7095,-0.7095,-0.7095,-0.7095,-0.7095,-0.7095,-0.7095,-0.7095,-0.7095,-0.7095,-0.7095,-0.7095,-0.7095,-0.6918,-0.6517,-0.5714,-0.5179,-0.4643,-0.2593,-0.179,-0.1657,-0.0449,0.0,0.0,0.0,0.0,0.0,0.0,0.0,0.0,0.0,0.0,0.0,0.0,-1.8612,0.0,0.0,0.0,0.0,0.0,0.0,0.0,0.0,0.0,0.0,0.0,0.0,0.0,0.0,-1.7118,-1.6151,0.0,0.0,0.0,0.0,0.0,0.0,-1.543,0.0,-1.5878,0.0,0.0,-1.5169,-1.3541,-1.2888,-1.1847,-1.0629,0.0,0.0,0.0,0.0,0.0,0.0,0.0,0.0,0.0,-0.8877,-0.8187,-0.7325,-0.6519,-0.6239,-0.6112,-0.5797,0.0,0.0,0.0,0.0,0.0,0.0,0.0,0.0,0.0,0.0,0.0,0.0,0.0,0.0,0.0,0.0,0.0,0.0,0.0,0.0,0.0,0.0,0.0,0.0,0.0,0.0,0.0,0.0,0.0,0.0,0.0,0.0,0.0,-0.7095,-0.7095,-0.7095,-0.7095,-0.7095,-0.7095,-0.7095,-0.7095,-0.7095,-0.7095,-0.7095,-0.7095,-0.7095,-0.7095,-0.7051,-0.634,-0.6071,-0.5847,-0.3438,-0.2503,-0.2324,-0.0628,0.0,0.0,0.0,0.0,0.0,0.0,0.0,0.0,0.0,0.0,0.0,0.0,-1.893,0.0,0.0,0.0,0.0,0.0,0.0,0.0,0.0,0.0,0.0,0.0,0.0,0.0,0.0,0.0,0.0,0.0,0.0,0.0,0.0,0.0,-1.541,-1.5391,0.0,-1.5459,0.0,-1.5469,-1.482,-1.3656,-1.2932,-1.1885,-1.0691,-1.0007,0.0,0.0,0.0,0.0,0.0,0.0,0.0,0.0,-0.8253,-0.749,-0.6673,-0.5494,-0.5471,-0.5762,0.0,0.0,0.0,0.0,0.0,0.0,0.0,0.0,0.0,0.0,0.0,0.0,0.0,0.0,0.0,0.0,0.0,0.0,0.0,0.0,0.0,0.0,0.0,0.0,0.0,0.0,0.0,0.0,0.0,0.0,0.0,0.0,0.0,-0.7095,-0.7095,-0.7095,-0.7095,-0.7095,-0.7095,0.0,-0.7095,-0.7095,-0.7095,-0.7095,-0.7095,-0.7095,-0.7095,-0.7095,-0.7095,-0.7095,-0.7095,-0.6871,-0.4639,-0.3748,-0.3482,-0.1076,-0.018,-0.0135,0.0,0.0,0.0,0.0,0.0,0.0,0.0,0.0,0.0,0.0,0.0,0.0,0.0,0.0,0.0,0.0,0.0,0.0,0.0,0.0,0.0,0.0,0.0,0.0,0.0,0.0,0.0,0.0,0.0,0.0,0.0,0.0,0.0,-1.5439,0.0,-1.6034,-1.543,-1.6122,-1.5681,-1.4439,-1.3395,-1.2307,-1.1239,-1.0466,-1.0017,0.0,0.0,0.0,0.0,0.0,0.0,0.0,-0.8059,-0.6872,-0.5555,-0.5614,-0.5647,-0.5705,0.0,0.0,0.0,0.0,0.0,0.0,0.0,0.0,0.0,0.0,0.0,0.0,0.0,0.0,0.0,0.0,0.0,0.0,0.0,0.0,0.0,0.0,0.0,0.0,0.0,0.0,0.0,0.0,0.0,0.0,0.0,0.0,0.0,-0.7095,-0.7095,-0.7095,-0.7095,-0.7095,-0.7095,0.0,-0.7095,-0.7095,-0.7095,-0.7095,-0.7095,-0.7095,-0.7095,-0.7095,-0.7095,-0.7095,-0.7095,-0.6962,-0.5578,-0.5001,-0.4732,-0.2281,-0.1433,-0.1299,0.0,0.0,0.0,0.0,0.0,0.0,0.0,0.0,0.0,0.0,0.0,0.0,0.0,0.0,0.0,0.0,0.0,0.0,0.0,0.0,0.0,0.0,0.0,0.0,0.0,0.0,0.0,0.0,0.0,0.0,0.0,0.0,0.0,-1.543,0.0,-1.584,-1.5439,-1.5878,-1.5586,-1.471,-1.3802,-1.2729,-1.1614,-1.0863,-1.0301,-0.9913,-1.006,0.0,0.0,0.0,0.0,0.0,0.0,0.0,-0.5338,-0.5284,-0.5423,-0.561,0.0,0.0,0.0,0.0,0.0,0.0,0.0,0.0,0.0,0.0,0.0,0.0,0.0,0.0,0.0,0.0,0.0,0.0,0.0,0.0,0.0,0.0,0.0,0.0,0.0,0.0,0.0,0.0,0.0,0.0,0.0,-0.7095,-0.7095,-0.7095,-0.7095,-0.7095,-0.7095,-0.7095,-0.7095,-0.7095,-0.7095,-0.7095,-0.7095,-0.7095,-0.7095,-0.7095,-0.7095,-0.7095,-0.7095,-0.7095,-0.7095,-0.7007,-0.5849,-0.5045,-0.433,-0.2459,-0.1433,-0.0852,0.0,0.0,0.0,0.0,0.0,0.0,0.0,0.0,0.0,0.0,0.0,0.0,0.0,0.0,0.0,0.0,0.0,0.0,0.0,0.0,0.0,0.0,0.0,0.0,0.0,0.0,0.0,0.0,0.0,0.0,0.0,0.0,0.0,-1.5615,0.0,0.0,-1.541,-1.541,-1.5215,-1.4855,-1.4232,-1.3279,-1.2161,-1.1437,-1.0792,-1.0288,-1.0144,-1.0307,-1.0579,-1.0472,0.0,0.0,0.0,0.0,-0.5376,-0.4877,-0.5118,-0.5501,0.0,0.0,0.0,0.0,0.0,0.0,0.0,0.0,0.0,0.0,0.0,0.0,0.0,0.0,0.0,0.0,0.0,0.0,0.0,0.0,0.0,0.0,0.0,0.0,0.0,0.0,0.0,0.0,0.0,0.0,-0.7095,-0.7095,-0.7095,-0.7095,-0.7095,-0.7095,-0.7095,-0.7095,-0.7095,-0.7095,-0.7095,-0.7095,-0.7095,-0.7095,-0.7095,-0.7095,-0.7095,-0.7095,-0.7095,-0.7095,-0.7095,-0.7007,-0.6071,-0.5087,-0.4016,-0.2637,-0.1478,-0.0584,0.0,0.0,0.0,0.0,0.0,0.0,0.0,0.0,0.0,0.0,0.0,0.0,0.0,0.0,0.0,0.0,0.0,0.0,0.0,0.0,0.0,0.0,0.0,0.0,0.0,0.0,0.0,0.0,0.0,0.0,0.0,0.0,0.0,-1.6521,0.0,0.0,0.0,-1.541,-1.5381,-1.5264,-1.4847,-1.4232,-1.3461,-1.2543,-1.175,-1.1041,-1.0349,-1.0307,-1.0512,-1.0003,-0.889,0.0,0.0,0.0,-0.4992,-0.4911,-0.5128,-0.5446,0.0,0.0,0.0,0.0,0.0,0.0,0.0,0.0,0.0,0.0,0.0,0.0,0.0,0.0,0.0,0.0,0.0,0.0,0.0,0.0,0.0,0.0,0.0,0.0,0.0,0.0,0.0,0.0,0.0,0.0,-0.7095,-0.7095,-0.7095,-0.7095,-0.7095,-0.7095,-0.7095,-0.7095,-0.7095,-0.7095,-0.7095,-0.7095,-0.7095,-0.7095,-0.7095,-0.7095,-0.7095,-0.7095,-0.7095,-0.7095,-0.7095,-0.7095,-0.6918,-0.6782,-0.6378,-0.415,-0.326,-0.2815,0.0,0.0,0.0,0.0,0.0,0.0,0.0,0.0,0.0,0.0,0.0,0.0,0.0,0.0,0.0,0.0,0.0,0.0,0.0,0.0,0.0,0.0,0.0,0.0,0.0,0.0,0.0,0.0,0.0,0.0,0.0,-1.7418,-1.7155,0.0,0.0,0.0,0.0,0.0,0.0,-1.5391,-1.5215,-1.4315,-1.3108,-1.2852,-1.1871,-1.0604,-1.0455,-1.0341,-1.0301,-1.0238,-0.898,-0.7476,-0.7414,0.0,0.0,0.0,0.0,0.0,0.0,0.0,0.0,0.0,0.0,0.0,0.0,0.0,0.0,0.0,0.0,0.0,0.0,0.0,0.0,0.0,0.0,0.0,0.0,0.0,0.0,0.0,0.0,0.0,0.0,0.0,0.0,0.0,0.0,-0.7095,-0.7095,-0.7095,-0.7095,-0.7095,-0.7095,-0.7095,-0.7095,-0.7095,-0.7095,-0.7095,-0.7095,-0.7095,-0.7095,-0.7095,-0.7095,-0.7095,-0.7095,-0.7095,-0.7095,-0.7095,-0.7095,-0.7095,-0.7095,-0.6694,-0.6024,-0.4999,-0.3751,-0.2458,0.0,0.0,0.0,0.0,0.0,0.0,0.0,0.0,0.0,0.0,0.0,0.0,0.0,0.0,0.0,0.0,0.0,0.0,0.0,0.0,0.0,0.0,0.0,0.0,0.0,0.0,0.0,0.0,0.0,0.0,-1.7652,-1.791,-1.7633,0.0,-1.7725,0.0,0.0,0.0,0.0,0.0,0.0,0.0,0.0,0.0,-1.1865,-1.0393,-1.0373,-1.0241,-1.0097,-1.02,-0.8963,-0.7333,-0.7285,-0.6074,0.0,0.0,0.0,0.0,0.0,0.0,0.0,0.0,0.0,0.0,0.0,0.0,0.0,0.0,0.0,0.0,0.0,0.0,0.0,0.0,0.0,0.0,0.0,0.0,0.0,0.0,0.0,0.0,0.0,0.0,0.0,0.0,0.0,-0.7095,-0.7095,-0.7095,-0.7095,-0.7095,-0.7095,-0.7095,-0.7095,-0.7095,-0.7095,-0.7095,-0.7095,-0.7095,-0.7095,-0.7095,-0.7095,-0.7095,-0.7095,-0.7095,-0.7095,-0.7095,-0.7095,-0.7095,-0.7095,-0.6561,-0.5802,-0.5492,-0.4243,-0.2638,0.0,0.0,0.0,0.0,0.0,0.0,0.0,0.0,0.0,0.0,0.0,0.0,0.0,0.0,0.0,-1.9912,0.0,0.0,0.0,0.0,0.0,0.0,0.0,0.0,0.0,0.0,0.0,0.0,0.0,0.0,-1.6785,-1.7594,-1.7988,-1.7949,-1.7988,-1.7959,-1.7822,0.0,0.0,0.0,0.0,0.0,0.0,0.0,0.0,0.0,0.0,0.0,0.0,0.0,0.0,0.0,0.0,0.0,0.0,0.0,0.0,0.0,0.0,0.0,0.0,0.0,0.0,0.0,0.0,0.0,0.0,0.0,0.0,0.0,0.0,0.0,0.0,0.0,0.0,0.0,0.0,0.0,0.0,0.0,0.0,0.0,0.0,0.0,0.0,0.0,0.0,-0.7095,-0.7095,-0.7095,-0.7095,-0.7095,-0.7095,-0.7095,-0.7095,-0.7095,-0.7095,-0.7095,-0.7095,-0.7095,-0.7095,-0.7095,-0.7095,-0.7095,-0.7095,-0.7095,-0.7095,-0.7095,-0.7095,-0.7095,-0.7095,-0.7051,-0.6874,-0.5802,-0.5314,-0.4868,0.0,0.0,0.0,0.0,0.0,0.0,0.0,0.0,0.0,0.0,0.0,0.0,0.0,-2.1949,-2.1213,-2.0009,-1.9545,0.0,0.0,0.0,0.0,0.0,0.0,0.0,0.0,0.0,0.0,0.0,0.0,-1.5839,-1.6707,-1.7019,-1.7447,-1.8057,-1.916,-1.874,-1.7213,-1.8037,0.0,0.0,0.0,0.0,0.0,0.0,0.0,0.0,0.0,0.0,0.0,0.0,0.0,0.0,0.0,0.0,0.0,0.0,0.0,0.0,0.0,0.0,0.0,0.0,0.0,0.0,0.0,0.0,0.0,0.0,0.0,0.0,0.0,0.0,0.0,0.0,0.0,0.0,0.0,0.0,0.0,0.0,0.0,0.0,0.0,0.0,0.0,0.0,0.0,0.0,-0.7082,-0.6868,-0.6844,-0.7088,-0.7095,-0.7095,-0.7095,-0.7095,-0.7095,-0.7095,-0.7095,-0.7095,-0.7095,-0.7095,-0.7095,-0.7095,-0.7095,-0.7095,-0.7095,-0.7095,-0.7095,-0.7095,-0.7095,-0.7095,-0.7051,-0.665,-0.5534,-0.4105,0.0,0.0,0.0,0.0,0.0,0.0,0.0,0.0,0.0,0.0,0.0,0.0,0.0,0.0,-2.1298,-2.0298,-1.962,-1.9409,-1.9773,-1.9798,0.0,0.0,0.0,0.0,0.0,0.0,0.0,0.0,0.0,0.0,0.0,-1.656,-1.6999,-1.7646,-1.9072,-1.8916,0.0,0.0,0.0,-1.6787,0.0,0.0,-1.3692,0.0,0.0,0.0,0.0,0.0,0.0,0.0,0.0,0.0,0.0,0.0,0.0,0.0,0.0,0.0,0.0,0.0,0.0,0.0,0.0,0.0,0.0,0.0,0.0,0.0,0.0,0.0,0.0,0.0,0.0,0.0,0.0,0.0,0.0,0.0,0.0,0.0,0.0,0.0,0.0,0.0,0.0,0.0,0.0,0.0,-0.7082,-0.6858,-0.6834,-0.7088,-0.7095,-0.7095,-0.7095,-0.7095,-0.7095,-0.7095,-0.7095,-0.7095,-0.7095,-0.7095,-0.7095,-0.7095,-0.7095,-0.7095,-0.7095,-0.7095,-0.7095,-0.7095,-0.7095,-0.7095,-0.7095,-0.7095,-0.611,-0.4683,0.0,0.0,0.0,0.0,0.0,0.0,0.0,0.0,0.0,0.0,0.0,0.0,0.0,0.0,0.0,-2.0845,-2.0207,-1.9798,-1.9798,-1.9798,0.0,0.0,0.0,0.0,0.0,0.0,0.0,0.0,0.0,0.0,0.0,0.0,-1.6658,0.0,-1.7555,-1.8437,-1.9219,0.0,-1.9238,-1.9111,0.0,-1.752,-1.643,0.0,0.0,0.0,-1.2082,-1.1551,0.0,0.0,0.0,0.0,0.0,0.0,0.0,0.0,0.0,0.0,0.0,0.0,0.0,0.0,0.0,0.0,0.0,0.0,0.0,0.0,0.0,0.0,0.0,0.0,0.0,0.0,0.0,0.0,0.0,0.0,0.0,0.0,0.0,0.0,0.0,0.0,0.0,0.0,0.0,-0.7037,-0.7095,-0.7095,-0.7095,-0.7095,-0.7095,-0.7095,-0.7095,-0.7095,-0.7095,-0.7095,-0.7095,-0.7095,-0.7095,-0.7095,-0.7095,-0.7095,-0.7095,-0.7095,-0.7095,-0.7095,-0.7095,-0.7095,-0.7095,-0.7095,-0.7095,-0.7095,-0.7095,-0.6735,0.0,0.0,0.0,0.0,0.0,0.0,0.0,0.0,0.0,0.0,0.0,0.0,0.0,0.0,0.0,-2.082,-2.0207,-1.9798,-1.9798,-1.9798,-1.9553,-1.9044,-1.8085,0.0,0.0,0.0,0.0,0.0,0.0,0.0,0.0,0.0,0.0,0.0,-1.6668,-1.7184,-1.7486,-1.876,0.0,0.0,-1.8945,-1.7429,0.0,0.0,0.0,0.0,0.0,-1.2078,0.0,0.0,-1.1068,-0.94,0.0,0.0,0.0,0.0,0.0,0.0,-0.3953,0.0,0.0,0.0,0.0,0.0,-0.0809,-0.0377,0.0,0.0,0.0,0.0,0.0,0.0,0.0,0.0,0.0,0.0,0.0,0.0,0.0,0.0,0.0,0.0,0.0,0.0,0.0,0.0,-0.5559,-0.5864,-0.7034,-0.7095,-0.7095,-0.7095,-0.7095,-0.7095,-0.7095,-0.7095,-0.7095,-0.7095,-0.7095,-0.7095,-0.7095,-0.7095,-0.7095,-0.7095,-0.7095,-0.7095,-0.7095,-0.7095,-0.7095,-0.7095,-0.7095,-0.7095,-0.7095,-0.7095,-0.6561,-0.5758,0.0,0.0,0.0,0.0,0.0,0.0,0.0,0.0,0.0,0.0,0.0,0.0,0.0,0.0,0.0,-2.0371,-2.0029,-1.9798,-1.9798,-1.9501,-1.915,-1.8715,-1.7715,-1.695,0.0,0.0,0.0,0.0,0.0,0.0,0.0,0.0,0.0,0.0,0.0,0.0,0.0,0.0,0.0,0.0,-1.8828,0.0,0.0,-1.615,-1.499,0.0,0.0,0.0,-1.2719,-1.2966,-1.1916,0.0,0.0,0.0,0.0,0.0,0.0,0.0,0.0,0.0,0.0,0.0,0.0,0.0,-0.1283,-0.0822,-0.0374,0.0,0.0,0.0,0.0,0.0,0.0,0.0,0.0,0.0,0.0,0.0,0.0,0.0,0.0,0.0,0.0,0.0,0.0,-0.4552,-0.4875,-0.5621,-0.7037,-0.7095,-0.7095,-0.7095,-0.7095,-0.7095,-0.7095,-0.7095,-0.7095,-0.7095,-0.7095,-0.7095,-0.7095,-0.7095,-0.7095,-0.7095,-0.7095,-0.7095,-0.7095,-0.7095,-0.7095,-0.7095,-0.7095,-0.7095,-0.7095,-0.7095,-0.6694,-0.6027,0.0,0.0,0.0,0.0,0.0,0.0,0.0,0.0,0.0,0.0,0.0,0.0,0.0,0.0,0.0,0.0,-1.9798,-1.9798,-1.9798,-1.9123,0.0,-1.8581,-1.7246,-1.6454,-1.6379,0.0,0.0,0.0,0.0,0.0,0.0,0.0,0.0,0.0,0.0,0.0,0.0,0.0,0.0,-1.8838,-1.8344,-1.8968,0.0,0.0,-1.613,0.0,-1.4605,-1.3707,-1.3293,-1.3814,-1.2755,0.0,0.0,0.0,0.0,0.0,-0.6587,0.0,0.0,0.0,0.0,0.0,0.0,0.0,-0.1737,-0.1394,-0.1033,0.0,0.0,0.0,0.0,0.0,0.0,0.0,0.0,0.0,0.0,0.0,0.0,0.0,0.0,0.0,0.0,-0.1612,-0.2102,-0.3303,-0.4508,-0.5625,-0.6647,-0.6827,-0.683,-0.6735,-0.6962,-0.7051,-0.6918,-0.7051,-0.7095,-0.7095,-0.7095,-0.7095,-0.7095,-0.7095,-0.7095,-0.7095,-0.7095,-0.7095,-0.7095,-0.7095,-0.7095,-0.7095,-0.7095,-0.7095,-0.7095,-0.7095,-0.7007,-0.6782,0.0,0.0,0.0,0.0,0.0,0.0,0.0,0.0,0.0,0.0,0.0,0.0,0.0,0.0,0.0,0.0,0.0,-1.9798,0.0,0.0,-1.8447,-1.7852,-1.6978,-1.6208,-1.5642,-1.5468,0.0,0.0,0.0,0.0,0.0,0.0,0.0,0.0,0.0,0.0,0.0,0.0,0.0,-1.6429,-1.8289,0.0,-1.7513,-1.7161,-1.5931,-1.4378,-1.4179,-1.3707,-1.3227,0.0,-1.3108,-1.2434,0.0,0.0,0.0,0.0,0.0,0.0,0.0,0.0,0.0,0.0,0.0,0.0,-0.3228,-0.2683,-0.1961,0.0,0.0,0.0,0.0,0.0,0.0,0.0,0.0,0.0,0.0,0.0,0.0,0.0,0.0,0.0,0.0,-0.0359,-0.0852,-0.2057,-0.326,-0.4061,-0.4281,-0.522,-0.5267,-0.4328,-0.611,-0.665,-0.5758,-0.665,-0.7095,-0.7095,-0.7095,-0.7095,-0.7095,-0.7095,-0.7095,-0.7095,-0.7095,-0.7095,-0.7095,-0.7095,-0.7095,-0.7095,-0.7095,-0.7095,-0.7095,-0.7095,-0.6517,-0.5714,0.0,0.0,0.0,0.0,0.0,0.0,0.0,0.0,0.0,0.0,0.0,0.0,0.0,0.0,0.0,0.0,0.0,0.0,0.0,0.0,-1.7825,-1.709,-1.634,-1.5777,-1.541,-1.541,0.0,0.0,0.0,0.0,0.0,0.0,0.0,0.0,0.0,0.0,0.0,0.0,-1.5667,-1.62,-1.7364,0.0,-1.6596,-1.6516,-1.5807,-1.4729,-1.4276,-1.3901,-1.3601,-1.3307,-1.3213,0.0,0.0,-1.0923,-0.9944,0.0,-0.8233,-0.7242,0.0,0.0,0.0,-0.539,0.0,0.0,0.0,-0.328,-0.2571,-0.1344,0.0,0.0,0.0,0.0,0.0,0.0,0.0,0.0,0.0,0.0,0.0,0.0,0.0,0.0,0.0,0.0,-0.0494,-0.1701,-0.237,-0.2948,-0.357,-0.4194,-0.4241,-0.3614,-0.4727,-0.5085,-0.4508,-0.5667,-0.6248,-0.6248,-0.6827,-0.7095,-0.7095,-0.7095,-0.7095,-0.7095,-0.7095,-0.7095,-0.7095,-0.7095,-0.7095,-0.7095,-0.7095,-0.7095,-0.7095,-0.7095,-0.6381,-0.5403,0.0,0.0,0.0,0.0,0.0,0.0,0.0,0.0,0.0,0.0,0.0,0.0,0.0,0.0,0.0,0.0,0.0,0.0,0.0,0.0,0.0,0.0,-1.5777,-1.541,-1.541,-1.541,-1.541,0.0,0.0,0.0,0.0,0.0,0.0,0.0,0.0,0.0,0.0,0.0,0.0,-1.6416,0.0,-1.6461,-1.6675,-1.6196,-1.5901,-1.5606,-1.449,-1.4088,-1.3995,-1.3407,0.0,-1.3186,-1.3073,-1.1805,0.0,0.0,0.0,0.0,0.0,0.0,0.0,0.0,0.0,-0.4979,0.0,0.0,0.0,-0.1819,0.0,0.0,0.0,0.0,0.0,0.0,0.0,0.0,0.0,0.0,0.0,0.0,0.0,0.0,0.0,0.0,-0.0399,-0.1387,-0.1433,-0.1879,-0.2858,-0.3126,-0.3126,-0.2903,-0.3349,-0.3481,-0.326,-0.4688,-0.5403,-0.5403,-0.6561,-0.7095,-0.7095,-0.7095,-0.7095,-0.7095,-0.7095,-0.7095,-0.7095,-0.7095,-0.7095,-0.7095,-0.7095,-0.7095,-0.7095,-0.7095,-0.6248,-0.5045,-1.7605,-1.7797,0.0,0.0,0.0,0.0,0.0,0.0,0.0,0.0,0.0,0.0,0.0,0.0,0.0,0.0,0.0,0.0,-1.8498,0.0,0.0,0.0,0.0,0.0,-1.541,-1.541,-1.541,0.0,0.0,0.0,0.0,0.0,0.0,0.0,-1.3885,0.0,0.0,0.0,-1.5446,0.0,-1.5852,-1.6772,0.0,-1.7284,-1.6652,-1.5778,-1.4538,-1.4088,-1.3995,0.0,-1.3213,-1.312,0.0,-1.1879,0.0,0.0,0.0,0.0,0.0,0.0,0.0,0.0,-0.6378,0.0,0.0,0.0,-0.4261,-0.3251,0.0,0.0,0.0,0.0,0.0,0.0,0.0,0.0,0.0,0.0,0.0,0.0,0.0,0.0,0.0,0.0,-0.0042,-0.0179,-0.0225,-0.0269,-0.0404,-0.1433,-0.1522,-0.0449,-0.2503,-0.3081,-0.2013,-0.4243,-0.5403,-0.5403,-0.6561,-0.7095,-0.7095,-0.7095,-0.7095,-0.7095,-0.7095,-0.7095,-0.7095,-0.7095,-0.7095,-0.7095,-0.7095,-0.7095,-0.7095,-0.7095,-0.5708,-0.3794,0.0,-1.7533,0.0,0.0,0.0,0.0,0.0,0.0,0.0,0.0,0.0,0.0,0.0,0.0,0.0,0.0,0.0,-2.204,0.0,0.0,0.0,0.0,0.0,0.0,0.0,-1.541,-1.541,-1.541,-1.541,0.0,0.0,0.0,0.0,0.0,-1.3092,0.0,-1.4427,0.0,0.0,0.0,0.0,0.0,0.0,-1.5881,-1.5218,-1.4767,-1.3886,-1.3801,-1.3915,0.0,-1.3006,0.0,0.0,0.0,0.0,0.0,0.0,0.0,0.0,0.0,0.0,0.0,0.0,0.0,0.0,0.0,-0.4338,0.0,0.0,0.0,0.0,0.0,0.0,0.0,0.0,0.0,0.0,0.0,0.0,0.0,0.0,0.0,0.0,0.0,0.0,0.0,0.0,0.0,0.0,-0.0484,-0.0539,0.0,-0.0986,-0.1254,-0.0763,-0.246,-0.3306,-0.3306,-0.4508,-0.5082,-0.5082,-0.5082,-0.5082,-0.5082,-0.5082,-0.5487,-0.6071,-0.5354,-0.5888,-0.6962,-0.562,-0.5888,-0.7007,-0.634,-0.5041,-0.3614,0.0,0.0,0.0,0.0,0.0,0.0,0.0,0.0,0.0,0.0,0.0,0.0,-2.3393,-2.3715,0.0,0.0,0.0,-2.255,0.0,0.0,-1.8714,0.0,0.0,0.0,0.0,0.0,-1.541,-1.541,0.0,0.0,0.0,0.0,0.0,0.0,0.0,-1.2624,-1.3217,0.0,0.0,-1.6009,-1.634,-1.6207,-1.5654,-1.4597,-1.415,-1.4035,-1.3607,-1.3728,-1.3901,-1.2652,-1.2953,0.0,-1.2579,0.0,0.0,0.0,0.0,0.0,-1.0779,0.0,0.0,0.0,0.0,0.0,0.0,0.0,0.0,0.0,0.0,0.0,0.0,0.0,0.0,0.0,0.0,0.0,0.0,0.0,0.0,0.0,0.0,0.0,0.0,0.0,0.0,0.0,0.0,0.0,0.0,0.0,0.0,0.0,0.0,0.0,0.0,-0.121,-0.179,-0.1835,-0.3037,-0.3614,-0.3614,-0.3614,-0.3614,-0.3614,-0.3614,-0.4105,-0.4821,-0.3972,-0.4594,-0.5933,-0.3881,-0.4372,-0.6021,-0.522,-0.4152,-0.3126,-1.6699,-1.6731,0.0,0.0,0.0,0.0,0.0,0.0,0.0,0.0,0.0,0.0,0.0,0.0,0.0,0.0,0.0,-2.1453,-2.0025,0.0,-1.9089,0.0,0.0,-1.629,0.0,0.0,0.0,0.0,0.0,0.0,0.0,0.0,0.0,0.0,0.0,-1.2025,-1.423,-1.403,-1.4304,-1.4894,-1.5503,-1.5121,-1.4177,0.0,-1.4249,-1.4082,-1.4068,0.0,0.0,-1.3373,-1.32,0.0,0.0,0.0,0.0,0.0,0.0,0.0,0.0,0.0,0.0,-1.0088,0.0,0.0,0.0,0.0,-0.5273,0.0,0.0,0.0,0.0,0.0,0.0,0.0,0.0,0.0,0.0,0.0,0.0,0.0,0.0,0.0,0.0,0.0,0.0,0.0,0.0,0.0,0.0,0.0,0.0,0.0,0.0,0.0,0.0,-0.121,-0.179,-0.1835,-0.3037,-0.3614,-0.3614,-0.3614,-0.3614,-0.3614,-0.3614,-0.3614,-0.3659,-0.3614,-0.3659,-0.357,-0.2325,-0.2637,-0.3703,-0.3659,-0.2903,-0.1879,0.0,0.0,0.0,0.0,0.0,0.0,0.0,-1.916,0.0,0.0,0.0,0.0,0.0,0.0,-2.349,0.0,0.0,-2.3104,-2.134,-2.1084,0.0,0.0,0.0,-1.7871,0.0,0.0,0.0,0.0,0.0,0.0,0.0,0.0,0.0,0.0,0.0,-1.1265,0.0,0.0,0.0,0.0,0.0,-1.4291,-1.3568,0.0,0.0,-1.4088,-1.4088,-1.4088,0.0,-1.3213,-1.334,-1.3687,-1.3132,-1.2906,-1.3019,-1.3614,-1.3086,0.0,0.0,0.0,-1.1797,-1.1998,0.0,0.0,0.0,0.0,0.0,0.0,0.0,0.0,0.0,0.0,0.0,0.0,0.0,0.0,0.0,0.0,0.0,0.0,0.0,0.0,0.0,0.0,0.0,0.0,0.0,0.0,0.0,0.0,0.0,0.0,0.0,0.0,0.0,-0.0404,-0.0628,-0.0628,-0.1031,-0.121,-0.121,-0.121,-0.121,-0.121,-0.121,-0.1656,-0.2325,-0.1567,-0.2147,-0.3392,-0.1389,-0.1344,-0.2413,-0.2413,-0.2147,-0.17,-1.7557,0.0,0.0,0.0,0.0,0.0,0.0,0.0,0.0,0.0,-2.0777,0.0,-2.2786,0.0,-2.3224,0.0,-2.3145,-2.3009,-2.2366,-2.1475,0.0,-2.1629,-1.9853,0.0,0.0,0.0,0.0,0.0,0.0,-1.4439,0.0,0.0,0.0,0.0,0.0,0.0,0.0,0.0,-1.3548,0.0,0.0,-1.3709,0.0,0.0,-1.3849,-1.4088,0.0,-1.4088,-1.4001,-1.3454,-1.3648,-1.3988,-1.3447,-1.336,-1.3601,-1.3975,-1.354,-1.3019,-1.3414,-1.2973,0.0,-1.2962,-1.1546,0.0,-1.034,0.0,0.0,0.0,0.0,0.0,0.0,0.0,0.0,0.0,0.0,0.0,0.0,-0.0476,0.0,0.0,0.0,0.0,0.0,0.0,0.0,0.0,0.0,0.0,0.0,0.0,0.0,0.0,0.0,0.0,0.0,0.0,0.0,0.0,0.0,0.0,0.0,0.0,0.0,0.0,0.0,-0.0449,-0.1121,-0.0314,-0.0897,-0.2147,-0.0628,-0.0494,-0.1165,-0.1165,-0.1165,-0.1031,0.0,0.0,0.0,0.0,-1.8253,0.0,0.0,0.0,-2.0557,0.0,-2.1465,-2.1075,-2.1855,-2.1251,-2.1075,-2.1787,-2.1163,0.0,-2.2896,-2.0791,0.0,0.0,-1.9775,-1.8261,-1.8323,0.0,0.0,0.0,0.0,0.0,0.0,0.0,0.0,0.0,-1.0593,0.0,-1.0667,-1.1804,-1.2311,-1.2345,-1.2623,-1.3259,-1.397,-1.3112,-1.3347,-1.4088,-1.4088,-1.4088,-1.4088,-1.4088,-1.4088,-1.4088,-1.4088,-1.4088,-1.4088,-1.4088,-1.4088,-1.4088,-1.4088,-1.4088,-1.3881,-1.3065,0.0,0.0,0.0,0.0,-0.9782,0.0,0.0,0.0,0.0,0.0,0.0,0.0,0.0,0.0,0.0,0.0,0.0,0.0,0.0,0.0,0.0,0.0,0.0,0.0,0.0,0.0,0.0,0.0,0.0,0.0,0.0,0.0,0.0,0.0,0.0,0.0,0.0,0.0,0.0,0.0,0.0,0.0,0.0,0.0,0.0,0.0,0.0,0.0,0.0,0.0,0.0,0.0,0.0,0.0,-1.6223,-1.6,-1.6094,0.0,-1.6975,-1.7752,0.0,0.0,0.0,0.0,-2.2773,-2.292,-2.2832,-2.29,-2.2539,-2.1453,-2.1777,0.0,0.0,0.0,0.0,-2.2896,-2.1943,-2.0556,-1.8861,-1.8207,0.0,-1.5199,0.0,0.0,-1.3094,0.0,0.0,0.0,0.0,0.0,-1.0667,-1.1804,-1.2432,-1.2616,-1.1997,-1.2298,0.0,0.0,-1.3347,-1.4088,-1.4088,-1.4088,-1.4088,-1.4088,-1.4088,-1.4088,-1.4088,-1.4088,-1.4088,-1.4088,-1.4088,-1.4088,-1.4088,-1.4088,-1.4035,-1.3801,-1.328,-1.2685,0.0,0.0,0.0,0.0,0.0,0.0,0.0,0.0,0.0,0.0,0.0,0.0,0.0,0.0,0.0,0.0,0.0,0.0,0.0,0.0,0.0,0.0,0.0,0.0,0.0,0.0,0.0,0.0,0.0,0.0,0.0,0.0,0.0,0.0,0.0,0.0,0.0,0.0,0.0,0.0,0.0,0.0,0.0,0.0,0.0,0.0,0.0,0.0,0.0,0.0,0.0,0.0,-1.5438,0.0,0.0,-1.519,0.0,0.0,-1.8658,0.0,0.0,-2.2503,-2.2666,0.0,-2.2608,-2.2815,-2.2459,-2.133,-2.1135,0.0,0.0,0.0,0.0,-2.1488,-2.0789,-1.9531,-1.7666,-1.7564,0.0,-1.4795,0.0,0.0,-1.3212,0.0,0.0,0.0,0.0,-1.0593,0.0,-1.1804,-1.2552,-1.2931,-1.2258,0.0,0.0,-1.2931,-1.3347,-1.4088,-1.4088,-1.4088,-1.4088,-1.4088,-1.4088,-1.4088,-1.4088,-1.4088,-1.4088,-1.4088,-1.4088,-1.4088,-1.4088,-1.4088,-1.4088,-1.4088,-1.3749,-1.3373,-1.3373,-1.2148,-1.0697,0.0,0.0,0.0,0.0,0.0,0.0,0.0,0.0,0.0,0.0,0.0,0.0,0.0,0.0,0.0,0.0,0.0,0.0,0.0,0.0,0.0,0.0,0.0,0.0,0.0,0.0,0.0,0.0,0.0,0.0,0.0,0.0,0.0,0.0,0.0,0.0,0.0,0.0,0.0,0.0,0.0,0.0,0.0,0.0,0.0,0.0,0.0,0.0,0.0,0.0,0.0,0.0,0.0,0.0,0.0,0.0,-1.96,0.0,-2.2522,0.0,-2.1316,-2.1667,-2.1692,-2.1468,-2.0989,0.0,-1.9677,-2.09,-1.8083,-1.7286,-1.9406,-1.8423,-1.7273,-1.6039,-1.6346,0.0,0.0,0.0,-1.3026,-1.3643,0.0,0.0,0.0,0.0,0.0,0.0,-1.175,-1.2525,0.0,-1.2891,-1.3253,-1.3841,-1.3213,-1.3447,-1.4088,-1.4088,-1.4088,-1.4088,-1.4088,-1.4088,-1.4088,-1.4088,-1.4088,-1.4088,-1.4088,-1.4088,-1.4088,-1.4088,-1.4088,-1.4088,-1.4088,-1.4088,-1.4088,-1.4088,-1.3997,-1.3252,-1.1042,-1.0481,-0.9582,0.0,0.0,0.0,0.0,0.0,0.0,0.0,0.0,0.0,0.0,0.0,0.0,0.0,0.0,0.0,0.0,0.0,0.0,0.0,0.0,0.0,0.0,0.0,0.0,0.0,0.0,0.0,0.0,0.0,0.0,0.0,0.0,0.0,0.0,0.0,0.0,0.0,0.0,0.0,0.0,0.0,0.0,0.0,0.0,0.0,0.0,0.0,0.0,0.0,0.0,0.0,-1.5832,-1.6898,-1.8602,-2.0119,-2.1213,-2.1494,-2.1243,-2.0351,-2.0582,-2.0372,-1.9348,-1.9031,0.0,0.0,0.0,0.0,-1.9464,-1.927,-1.837,-1.6684,-1.6703,-1.5924,0.0,-1.2999,-1.2453,-1.2565,-1.1202,0.0,0.0,0.0,0.0,-1.1964,-1.1443,0.0,-1.2857,-1.2804,-1.2878,-1.3085,-1.3675,-1.3948,-1.4088,-1.4088,-1.4088,-1.4088,-1.4088,-1.4088,-1.4088,-1.4088,-1.4088,-1.4088,-1.4088,-1.4088,-1.4088,-1.4088,-1.4088,-1.4088,-1.4088,-1.4088,-1.4088,-1.4088,-1.3336,-1.2248,-1.0869,-0.9836,-0.8725,-0.7252,0.0,0.0,0.0,0.0,0.0,0.0,0.0,0.0,0.0,0.0,0.0,0.0,0.0,0.0,0.0,0.0,0.0,0.0,0.0,0.0,0.0,0.0,0.0,0.0,0.0,0.0,0.0,0.0,0.0,0.0,0.0,0.0,0.0,0.0,0.0,0.0,0.0,0.0,0.0,0.0,0.0,0.0,0.0,0.0,0.0,0.0,0.0,0.0,0.0,0.0,0.0,0.0,-1.7553,0.0,-2.0109,-2.0488,-2.026,-1.9356,-1.9419,-1.9176,-1.8278,-1.7961,-1.7906,-1.8229,-1.7341,-1.7056,-1.7554,-1.7569,0.0,-1.5447,-1.5702,-1.5109,-1.3634,-1.2739,-1.2305,-1.2278,-1.1142,-1.0593,0.0,0.0,-1.1323,0.0,0.0,0.0,-1.3013,-1.336,-1.3481,-1.3527,-1.3921,-1.4088,-1.4088,-1.4088,-1.4088,-1.4088,-1.4088,-1.4088,-1.4088,-1.4088,-1.4088,-1.4088,-1.4088,-1.4088,-1.4088,-1.4088,-1.4088,-1.4088,-1.4088,-1.4088,-1.4088,-1.4088,-1.3646,-1.2729,-1.0956,-1.0183,-0.9182,-0.7172,-0.6441,0.0,0.0,0.0,0.0,0.0,0.0,0.0,0.0,0.0,0.0,0.0,0.0,0.0,0.0,0.0,0.0,0.0,0.0,0.0,0.0,0.0,0.0,0.0,0.0,0.0,0.0,0.0,0.0,0.0,0.0,0.0,0.0,0.0,0.0,0.0,0.0,0.0,0.0,0.0,0.0,0.0,0.0,0.0,0.0,0.0,-1.4776,0.0,0.0,-1.5351,0.0,-1.6172,-1.6934,-1.7921,-1.9005,-1.9169,-1.8928,-1.8335,-1.8163,-1.7887,-1.7274,-1.6844,-1.6749,-1.7091,-1.592,-1.5324,-1.5718,-1.5751,-1.5371,-1.4389,-1.48,-1.4519,0.0,-1.2819,-1.2432,-1.2278,-1.1236,-1.0774,0.0,0.0,0.0,0.0,0.0,-1.328,-1.3434,-1.3901,-1.4088,-1.4088,-1.4088,-1.4088,-1.4088,-1.3822,-1.3737,-1.3688,-1.3434,-1.3695,-1.4088,-1.4088,-1.4088,-1.4088,-1.4088,-1.4088,-1.4088,-1.4088,-1.4088,-1.4088,-1.4088,-1.4088,-1.4039,-1.3779,-1.3737,-1.3082,-1.0702,-1.0048,-0.921,-0.7046,-0.6576,0.0,0.0,0.0,0.0,0.0,0.0,0.0,0.0,0.0,0.0,0.0,0.0,0.0,0.0,0.0,0.0,0.0,0.0,0.0,0.0,0.0,0.0,0.0,0.0,0.0,0.0,0.0,0.0,0.0,0.0,0.0,0.0,0.0,0.0,0.0,0.0,0.0,0.0,0.0,0.0,0.0,0.0,0.0,0.0,0.0,0.0,0.0,0.0,0.0,0.0,0.0,-1.734,-1.7385,-1.7752,-1.7793,-1.7563,-1.6968,-1.69,-1.6555,-1.569,-1.5812,-1.5731,-1.5303,-1.5531,-1.5658,-1.5444,-1.5691,-1.5658,-1.5284,-1.5115,-1.4783,0.0,0.0,-1.2846,-1.2285,-1.1643,-1.1349,0.0,0.0,0.0,0.0,-1.316,-1.352,-1.4008,-1.4068,-1.4088,-1.4088,-1.4088,-1.4088,-1.3955,-1.2857,-1.2456,-1.2328,-1.13,-1.2345,-1.4088,-1.4088,-1.4088,-1.4088,-1.4088,-1.4088,-1.4088,-1.4088,-1.4088,-1.4088,-1.4088,-1.4088,-1.3822,-1.2723,-1.2456,-1.1815,-0.9536,-0.8189,-0.7342,-0.7085,-0.6746,-0.6364,0.0,0.0,0.0,0.0,0.0,0.0,0.0,0.0,0.0,0.0,0.0,0.0,0.0,0.0,0.0,0.0,0.0,0.0,0.0,0.0,0.0,0.0,0.0,0.0,0.0,0.0,0.0,0.0,0.0,0.0,0.0,0.0,0.0,0.0,0.0,0.0,0.0,0.0,0.0,0.0,0.0,0.0,0.0,0.0,0.0,0.0,0.0,0.0,0.0,0.0,-1.6509,-1.6422,-1.7276,-1.7373,-1.7168,-1.6747,-1.6553,-1.6233,-1.5705,-1.5758,-1.5732,-1.5498,-1.5698,-1.5731,-1.5658,-1.5718,-1.5611,-1.515,-1.5068,-1.478,0.0,0.0,0.0,-1.2285,-1.1662,-1.1582,0.0,0.0,-1.2979,-1.3233,-1.3587,-1.3874,-1.4039,-1.3294,-1.3027,-1.2942,-1.2254,-1.1997,-1.1955,-1.1472,-1.1295,-1.1209,-1.0735,-1.1214,-1.1997,-1.1997,-1.1997,-1.1997,-1.1997,-1.1997,-1.1997,-1.1997,-1.1997,-1.1997,-1.1997,-1.1997,-1.1863,-1.1386,-1.1295,-1.0826,-0.9235,-0.7929,-0.7095,-0.7095,-0.695,-0.6725,0.0,0.0,0.0,0.0,0.0,0.0,0.0,0.0,0.0,0.0,0.0,0.0,0.0,0.0,0.0,0.0,0.0,0.0,0.0,0.0,0.0,0.0,0.0,0.0,0.0,0.0,0.0,0.0,0.0,0.0,0.0,0.0,0.0,0.0,0.0,0.0,0.0,0.0,0.0,0.0,0.0,0.0,0.0,-1.5761,0.0,-1.5035,0.0,-1.4585,-1.4487,-1.5446,-1.5135,-1.5029,-1.5809,-1.5863,-1.6018,-1.6507,-1.6393,-1.6119,-1.5738,-1.5731,-1.5711,-1.5585,-1.5684,-1.5744,-1.5705,-1.5785,0.0,-1.5149,-1.5055,-1.4716,-1.4215,-1.328,0.0,0.0,0.0,0.0,0.0,-1.32,-1.3467,-1.3453,-1.3561,-1.3561,-1.347,-1.2291,-1.1809,-1.1724,-1.0913,-1.0611,-1.0567,-1.0221,-1.0096,-1.0053,-0.9701,-0.957,-0.9701,-1.0394,-1.0611,-1.0611,-1.0611,-1.0611,-1.0611,-1.0611,-1.0611,-1.0611,-1.0611,-1.0611,-1.0524,-1.0178,-1.0096,-0.9749,-0.8623,-0.7709,-0.7095,-0.7095,-0.7095,-0.695,-0.6586,0.0,0.0,0.0,0.0,0.0,0.0,0.0,-0.2267,-0.0567,-0.0149,0.0,0.0,0.0,0.0,0.0,0.0,0.0,0.0,0.0,0.0,0.0,0.0,0.0,0.0,0.0,0.0,0.0,0.0,0.0,0.0,0.0,0.0,0.0,0.0,0.0,0.0,0.0,0.0,0.0,0.0,0.0,0.0,-1.3637,-1.3362,-1.3303,-1.3303,-1.3308,-1.3232,-1.3056,-1.322,-1.3214,-1.2874,-1.2756,-1.3583,-1.6055,-1.6279,-1.6039,-1.5451,-1.5665,-1.5585,-1.5055,-1.5511,-1.5705,0.0,0.0,-1.5691,-1.5398,-1.5156,-1.4816,-1.4516,0.0,0.0,-1.32,0.0,-1.3193,-1.3227,-1.3814,-1.4075,-1.399,-1.2802,-1.2328,-1.2237,-1.108,-1.0611,-1.0611,-1.0611,-1.0611,-1.0438,-0.9323,-0.8934,-0.8759,-0.7533,-0.7139,-0.7533,-0.9874,-1.0611,-1.0611,-1.0611,-1.0611,-1.0611,-1.0611,-1.0611,-1.0611,-1.0611,-1.0611,-1.0313,-0.9192,-0.8934,-0.8584,-0.736,-0.7095,-0.7095,-0.7095,-0.7095,-0.695,-0.6586,0.0,0.0,0.0,0.0,0.0,0.0,-0.3534,-0.2605,-0.1392,0.0,0.0,0.0,0.0,0.0,0.0,0.0,0.0,0.0,0.0,0.0,0.0,0.0,0.0,0.0,0.0,0.0,0.0,0.0,0.0,0.0,0.0,0.0,0.0,0.0,0.0,0.0,0.0,0.0,0.0,0.0,0.0,0.0,-1.2819,-1.3002,-1.3227,-1.2975,-1.2321,-1.2109,-1.3061,-1.234,-1.188,-1.2586,-1.2572,-1.2699,-1.3252,-1.4104,-1.4569,0.0,-1.5063,-1.5538,0.0,-1.5538,-1.5578,-1.5691,-1.5591,-1.5211,-1.4522,-1.4609,-1.4322,-1.3627,0.0,0.0,0.0,-1.2387,-1.2251,-1.2564,-1.1966,-1.1692,-1.1692,-1.13,-1.1123,-1.1037,-0.9879,-0.9449,-0.9362,-0.8532,-0.8225,-0.8185,-0.7793,-0.7665,-0.7621,-0.7228,-0.7095,-0.7228,-0.7965,-0.8225,-0.8225,-0.8225,-0.8225,-0.8225,-0.8225,-0.8225,-0.8225,-0.8225,-0.8225,-0.8141,-0.7753,-0.7665,-0.7577,-0.7183,-0.7095,-0.7095,-0.7095,-0.7095,-0.695,-0.6586,-0.6729,0.0,0.0,0.0,0.0,0.0,-0.3663,-0.2524,0.0,-0.0499,0.0,0.0,0.0,0.0,0.0,0.0,0.0,0.0,0.0,0.0,0.0,0.0,0.0,0.0,0.0,0.0,0.0,0.0,0.0,0.0,0.0,0.0,0.0,0.0,0.0,0.0,0.0,0.0,0.0,0.0,0.0,0.0,-1.122,-1.1415,-1.1571,-1.138,-1.0737,-1.0597,-1.1441,-1.0741,-1.0314,-1.0883,-1.0903,-1.0756,-1.0458,-1.1648,0.0,-1.3102,-1.3737,-1.4146,-1.431,-1.417,-1.4389,-1.5038,-1.4933,-1.4728,-1.4436,0.0,0.0,-1.354,-1.3074,-1.2654,-1.2198,-1.1488,-1.1355,-1.1638,-1.0913,-1.0611,-1.0567,-1.0135,-0.9966,-0.9879,-0.8711,-0.8233,-0.8149,-0.7404,-0.7095,-0.7095,-0.7095,-0.7095,-0.7095,-0.7095,-0.7095,-0.7095,-0.7095,-0.7095,-0.7095,-0.7095,-0.7095,-0.7095,-0.7095,-0.7095,-0.7095,-0.7095,-0.7095,-0.7095,-0.7095,-0.7095,-0.7095,-0.7095,-0.7095,-0.7095,-0.7095,-0.7095,-0.7004,-0.677,-0.6956,-0.6997,-0.6763,0.0,0.0,0.0,0.0,0.0,0.0,-0.0768,0.0,0.0,0.0,0.0,0.0,0.0,0.0,0.0,0.0,0.0,0.0,0.0,0.0,0.0,0.0,0.0,0.0,0.0,0.0,0.0,0.0,0.0,0.0,0.0,0.0,0.0,0.0,0.0,0.0,0.0,0.0,0.0,-0.9095,-0.8854,0.0,0.0,-0.8868,0.0,-0.8747,-0.871,-0.8598,-0.8323,-0.832,-0.8201,-0.8005,-0.9118,-1.0342,-1.1512,0.0,0.0,0.0,-1.1881,-1.2458,-1.3734,-1.3759,-1.4031,-1.4686,-1.4693,-1.443,-1.387,-1.2723,-1.1638,-1.0611,-1.0524,-1.0481,-1.0481,-1.0394,-1.0351,-1.0308,-0.9235,-0.8759,-0.8671,-0.7533,-0.7095,-0.7095,-0.7095,-0.7095,-0.7095,-0.7095,-0.7095,-0.7095,-0.7095,-0.7095,-0.7095,-0.7095,-0.7095,-0.7095,-0.7095,-0.7095,-0.7095,-0.7095,-0.7095,-0.7095,-0.7095,-0.7095,-0.7095,-0.7095,-0.7095,-0.7095,-0.7095,-0.7095,-0.7095,-0.7095,-0.7095,-0.7095,-0.7095,-0.7095,-0.7088,-0.7068,0.0,0.0,0.0,0.0,0.0,0.0,-0.1179,0.0,0.0,0.0,0.0,0.0,0.0,0.0,0.0,0.0,0.0,0.0,0.0,0.0,0.0,0.0,0.0,0.0,0.0,0.0,0.0,0.0,0.0,0.0,0.0,0.0,0.0,0.0,0.0,0.0,0.0,0.0,0.0,0.0,0.0,-0.8811,-0.8632,-0.8784,-0.8871,-0.8834,-0.8686,-0.8513,-0.8442,-0.8235,-0.8029,-0.7992,-0.8283,-0.8577,-0.892,-1.058,-1.1657,-1.1886,-1.173,-1.1854,-1.2372,-1.2204,-1.1903,-1.1494,-1.17,-1.169,-1.1434,-1.1128,-1.0864,-1.0567,-0.971,-0.9323,-0.9279,-0.836,-0.7921,-0.7921,-0.7621,-0.7536,-0.7489,-0.7228,-0.7095,-0.7095,-0.7095,-0.7095,-0.7095,-0.7095,-0.7095,-0.7095,-0.7095,-0.7095,-0.7095,-0.7095,-0.7095,-0.7095,-0.7095,-0.7095,-0.7095,-0.7095,-0.7095,-0.7095,-0.7095,-0.7095,-0.7095,-0.7095,-0.7095,-0.7095,-0.7095,-0.7095,-0.7095,-0.7095,-0.7095,-0.7095,-0.7095,-0.7095,-0.7018,-0.6837,-0.6614,0.0,0.0,-0.3776,-0.2583,-0.1799,-0.0694,0.0,0.0,0.0,0.0,0.0,0.0,0.0,0.0,0.0,0.0,0.0,0.0,0.0,0.0,0.0,0.0,0.0,0.0,0.0,0.0,0.0,0.0,0.0,0.0,0.0,0.0,0.0,0.0,0.0,0.0,0.0,0.0,-0.843,-0.8659,-0.8831,-0.872,-0.8828,-0.8861,-0.879,-0.8632,-0.8459,-0.8394,-0.8184,-0.7988,-0.7988,-0.7988,-0.7988,-0.7988,-0.9172,-0.9976,-1.0087,-0.9994,-1.0219,-1.1014,-1.0818,-1.0739,-1.08,-1.0895,-1.0573,-0.9836,-0.9836,-0.9531,-0.9008,-0.836,-0.8057,-0.8061,-0.7404,-0.7095,-0.7095,-0.7095,-0.7095,-0.7095,-0.7095,-0.7095,-0.7095,-0.7095,-0.7095,-0.7095,-0.7095,-0.7095,-0.7095,-0.7095,-0.7095,-0.7095,-0.7095,-0.7095,-0.7095,-0.7095,-0.7095,-0.7095,-0.7095,-0.7095,-0.7095,-0.7095,-0.7095,-0.7095,-0.7095,-0.7095,-0.7095,-0.7095,-0.7095,-0.7095,-0.7095,-0.7095,-0.7095,-0.7095,-0.6984,-0.6885,-0.6722,-0.6451,0.0,-0.4791,-0.3635,-0.2554,-0.1637,-0.062,0.0,0.0,0.0,0.0,0.0,0.0,0.0,0.0,0.0,0.0,0.0,0.0,0.0,0.0,0.0,0.0,0.0,0.0,0.0,0.0,0.0,0.0,0.0,0.0,0.0,0.0,0.0,0.0,0.0,0.0,0.0,0.0,-0.8885,-0.8885,-0.8885,-0.8885,-0.8885,-0.8834,-0.8733,-0.8581,-0.8431,-0.834,-0.8136,-0.7988,-0.7988,-0.7988,-0.7988,-0.7988,-0.7988,-0.7988,-0.7988,-0.7988,-0.8528,-0.9657,-0.9574,-0.9867,-1.0736,-1.0576,-0.9876,-0.8627,-0.8627,-0.8105,-0.7095,-0.7095,-0.7095,-0.7095,-0.7095,-0.7095,-0.7095,-0.7095,-0.7095,-0.7095,-0.7095,-0.7095,-0.7095,-0.7095,-0.7095,-0.7095,-0.7095,-0.7095,-0.7095,-0.7095,-0.7095,-0.7095,-0.7095,-0.7095,-0.7095,-0.7095,-0.7095,-0.7095,-0.7095,-0.7095,-0.7095,-0.7095,-0.7095,-0.7095,-0.7095,-0.7095,-0.7095,-0.7095,-0.7095,-0.7095,-0.7095,-0.7095,-0.7082,-0.7038,-0.6865,-0.6685,-0.6641,0.0,-0.5527,-0.4743,-0.3519,-0.2398,-0.1603,-0.0583,0.0,0.0,0.0,0.0,0.0,0.0,0.0,0.0,0.0,0.0,0.0,0.0,0.0,0.0,0.0,0.0,0.0,0.0,0.0,0.0,0.0,0.0,0.0,0.0,0.0,0.0,0.0,0.0,0.0,0.0,0.0,0.0,-0.8885,-0.8885,-0.8885,-0.8885,-0.8885,-0.8834,-0.8733,-0.8581,-0.8431,-0.834,-0.8136,-0.7988,-0.7988,-0.7988,-0.7988,-0.7988,-0.7988,-0.7988,-0.7988,-0.7988,-0.8088,-0.8283,-0.8181,-0.8122,-0.8157,-0.7854,-0.7598,-0.736,-0.736,-0.7272,-0.7095,-0.7095,-0.7095,-0.7095,-0.7095,-0.7095,-0.7095,-0.7095,-0.7095,-0.7095,-0.7095,-0.7095,-0.7095,-0.7095,-0.7095,-0.7095,-0.7095,-0.7095,-0.7095,-0.7095,-0.7095,-0.7095,-0.7095,-0.7095,-0.7095,-0.7095,-0.7095,-0.7095,-0.7095,-0.7095,-0.7095,-0.7095,-0.7095,-0.7095,-0.7095,-0.7095,-0.7095,-0.7095,-0.7095,-0.7095,-0.7095,-0.7095,-0.7014,-0.681,-0.6729,-0.6614,-0.6405,0.0,-0.4634,-0.3514,-0.2547,-0.1506,-0.0404,-0.009,0.0,0.0,0.0,0.0,0.0,0.0,0.0,0.0,0.0,0.0,0.0,0.0,0.0,0.0,0.0,0.0,0.0,0.0,0.0,0.0,0.0,0.0,0.0,0.0,0.0,0.0,0.0,0.0,0.0,0.0,0.0,0.0,-0.8885,-0.8885,-0.8885,-0.8885,-0.8814,-0.8764,-0.8611,-0.8462,-0.8313,-0.8167,-0.8032,-0.7988,-0.7988,-0.7988,-0.7988,-0.7988,-0.7988,-0.7988,-0.7988,-0.7988,-0.7988,-0.7988,-0.7821,-0.759,-0.7356,-0.7169,-0.7095,-0.7095,-0.7095,-0.7095,-0.7095,-0.7095,-0.7095,-0.7095,-0.7095,-0.7095,-0.7095,-0.7095,-0.7095,-0.7095,-0.7095,-0.7095,-0.7095,-0.7095,-0.7095,-0.7095,-0.7095,-0.7095,-0.7095,-0.7095,-0.7095,-0.7095,-0.7095,-0.7095,-0.7095,-0.7095,-0.7095,-0.7095,-0.7095,-0.7095,-0.7095,-0.7095,-0.7095,-0.7095,-0.7095,-0.7095,-0.7095,-0.7095,-0.7095,-0.7095,-0.7095,-0.7095,-0.7051,-0.6916,-0.6803,0.0,0.0,-0.5583,-0.4439,-0.3223,-0.2309,-0.1344,-0.0135,0.0,0.0,0.0,0.0,0.0,0.0,0.0,0.0,0.0,0.0,0.0,0.0,0.0,0.0,0.0,0.0,0.0,0.0,0.0,0.0,0.0,0.0,0.0,0.0,0.0,0.0,0.0,0.0,0.0,0.0,0.0,0.0,0.0,-0.8885,-0.8885,-0.8885,-0.8885,-0.8811,-0.8659,-0.8506,-0.8364,-0.8214,-0.8008,-0.7988,-0.7988,-0.7988,-0.7988,-0.7988,-0.7988,-0.7988,-0.7988,-0.7988,-0.7988,-0.7988,-0.7988,-0.7756,-0.7472,-0.7156,-0.7112,-0.7095,-0.7095,-0.7095,-0.7095,-0.7095,-0.7095,-0.7095,-0.7095,-0.7095,-0.7095,-0.7095,-0.7095,-0.7095,-0.7095,-0.7095,-0.7095,-0.7095,-0.7095,-0.7095,-0.7095,-0.7095,-0.7095,-0.7095,-0.7095,-0.7095,-0.7095,-0.7095,-0.7095,-0.7095,-0.7095,-0.7095,-0.7095,-0.7095,-0.7095,-0.7095,-0.7095,-0.7095,-0.7095,-0.7095,-0.7095,-0.7095,-0.7095,-0.7095,-0.7095,-0.7095,-0.7095,-0.7071,-0.7004,0.0,0.0,0.0,-0.5235,-0.4078,-0.2931,-0.1974,-0.1031,-0.009,0.0,0.0,0.0,0.0,0.0,0.0,0.0,0.0,0.0,0.0,0.0,0.0,0.0,0.0,0.0,0.0,0.0,0.0,0.0,0.0,0.0,0.0,0.0,0.0,0.0,0.0,0.0,0.0,0.0,0.0,0.0,0.0,0.0,-0.8885,-0.8885,-0.8885,-0.8885,-0.8811,-0.8659,-0.8506,-0.8364,-0.8214,-0.8008,-0.7988,-0.7988,-0.7988,-0.7988,-0.7988,-0.7988,-0.7988,-0.7988,-0.7988,-0.7988,-0.7988,-0.7988,-0.7756,-0.7522,-0.7402,-0.7214,-0.7095,-0.7095,-0.7095,-0.7095,-0.7095,-0.7095,-0.7095,-0.7095,-0.7095,-0.7095,-0.7095,-0.7095,-0.7095,-0.7095,-0.7095,-0.7095,-0.7095,-0.7095,-0.7095,-0.7095,-0.7095,-0.7095,-0.7095,-0.7095,-0.7095,-0.7095,-0.7095,-0.7095,-0.7095,-0.7095,-0.7095,-0.7095,-0.7095,-0.7095,-0.7095,-0.7095,-0.7095,-0.7095,-0.7095,-0.7095,-0.7095,-0.7095,-0.7095,-0.7095,-0.7095,-0.7095,-0.7007,-0.6776,0.0,0.0,-0.5194,-0.3978,-0.2892,-0.1994,-0.085,-0.009,0.0,0.0,0.0,0.0,0.0,0.0,0.0,0.0,0.0,0.0,0.0,0.0,0.0,0.0,0.0,0.0,0.0,0.0,0.0,0.0,0.0,0.0,0.0,0.0,0.0,0.0,0.0,0.0,0.0,0.0,0.0,0.0,0.0,0.0,-0.8885,-0.8885,-0.8854,-0.8815,-0.8669,-0.852,-0.8374,-0.8225,-0.8106,-0.7995,-0.7988,-0.7988,-0.7988,-0.7988,-0.7988,-0.7988,-0.7988,-0.7988,-0.7988,-0.7988,-0.7948,-0.7902,-0.7706,-0.7529,-0.7419,-0.7221,-0.7095,-0.7095,-0.7095,-0.7095,-0.7095,-0.7095,-0.7095,-0.7095,-0.7095,-0.7095,-0.7095,-0.7095,-0.7095,-0.7095,-0.7095,-0.7095,-0.7095,-0.7095,-0.7095,-0.7095,-0.7095,-0.7095,-0.7095,-0.7095,-0.7095,-0.7095,-0.7095,-0.7095,-0.7095,-0.7095,-0.7095,-0.7095,-0.7095,-0.7095,-0.7095,-0.7095,-0.7095,-0.7095,-0.7095,-0.7095,-0.7095,-0.7095,-0.7095,-0.7095,-0.7095,-0.7095,-0.7058,-0.6947,0.0,-0.6538,-0.5364,-0.4183,-0.3027,-0.192,-0.0718,0.0,0.0,0.0,0.0,0.0,0.0,0.0,0.0,0.0,0.0,0.0,0.0,0.0,0.0,0.0,0.0,0.0,0.0,0.0,0.0,0.0,0.0,0.0,0.0,0.0,0.0,0.0,0.0,0.0,0.0,0.0,0.0,0.0,0.0,0.0,-0.8885,-0.8885,-0.8838,-0.8737,-0.8584,-0.8435,-0.8344,-0.814,-0.7988,-0.7988,-0.7988,-0.7988,-0.7988,-0.7988,-0.7988,-0.7988,-0.7988,-0.7988,-0.7988,-0.7988,-0.7941,-0.7885,-0.7702,-0.755,-0.7444,-0.7244,-0.7095,-0.7095,-0.7095,-0.7095,-0.7095,-0.7095,-0.7095,-0.7095,-0.7095,-0.7095,-0.7095,-0.7095,-0.7095,-0.7095,-0.7095,-0.7095,-0.7095,-0.7095,-0.7095,-0.7095,-0.7095,-0.7095,-0.7095,-0.7095,-0.7095,-0.7095,-0.7095,-0.7095,-0.7095,-0.7095,-0.7095,-0.7095,-0.7095,-0.7095,-0.7095,-0.7095,-0.7095,-0.7095,-0.7095,-0.7095,-0.7095,-0.7095,-0.7095,-0.7095,-0.7095,-0.7095,-0.7095,-0.7095,-0.6786,-0.616,-0.5001,-0.3794,-0.2592,-0.1389,-0.0494,0.0,0.0,0.0,0.0,0.0,0.0,0.0,0.0,0.0,0.0,0.0,0.0,0.0,0.0,0.0,0.0,0.0,0.0,0.0,0.0,0.0,0.0,0.0,0.0,0.0,0.0,0.0,0.0,0.0,0.0,0.0,0.0,0.0,0.0,0.0,-0.8878,-0.8878,-0.8831,-0.8733,-0.8581,-0.8431,-0.834,-0.814,-0.7988,-0.7988,-0.7988,-0.7988,-0.7988,-0.7988,-0.7988,-0.7988,-0.7988,-0.7988,-0.7988,-0.7988,-0.7988,-0.7988,-0.7756,-0.76,-0.76,-0.7253,-0.7098,-0.7095,-0.7095,-0.7095,-0.7095,-0.7095,-0.7095,-0.7095,-0.7095,-0.7095,-0.7095,-0.7095,-0.7095,-0.7095,-0.7095,-0.7095,-0.7095,-0.7095,-0.7095,-0.7095,-0.7095,-0.7095,-0.7095,-0.7095,-0.7095,-0.7095,-0.7095,-0.7095,-0.7095,-0.7095,-0.7095,-0.7095,-0.7095,-0.7095,-0.7095,-0.7095,-0.7095,-0.7095,-0.7095,-0.7095,-0.7095,-0.7095,-0.7095,-0.7095,-0.7095,-0.7095,-0.7095,-0.7095,-0.616,-0.4999,-0.3748,-0.2547,-0.1344,-0.0135,0.0,0.0,0.0,0.0,0.0,0.0,0.0,0.0,0.0,0.0,0.0,0.0,0.0,0.0,0.0,0.0,0.0,0.0,0.0,0.0,0.0,0.0,0.0,0.0,0.0,0.0,0.0,0.0,0.0,0.0,0.0,0.0,0.0,0.0,0.0,0.0,-0.8618,-0.8618,-0.8574,-0.8428,-0.8364,-0.8282,-0.8133,-0.8019,-0.7988,-0.7988,-0.7988,-0.7988,-0.7988,-0.7988,-0.7988,-0.7988,-0.7988,-0.7988,-0.7988,-0.7988,-0.7988,-0.7988,-0.7851,-0.7702,-0.76,-0.7404,-0.7248,-0.7095,-0.7095,-0.7095,-0.7095,-0.7095,-0.7095,-0.7095,-0.7095,-0.7095,-0.7095,-0.7095,-0.7095,-0.7095,-0.7095,-0.7095,-0.7095,-0.7095,-0.7095,-0.7095,-0.7095,-0.7095,-0.7095,-0.7095,-0.7095,-0.7095,-0.7095,-0.7095,-0.7095,-0.7095,-0.7095,-0.7095,-0.7095,-0.7095,-0.7095,-0.7095,-0.7095,-0.7095,-0.7095,-0.7095,-0.7095,-0.7095,-0.7095,-0.7095,-0.7095,-0.7095,-0.7095,-0.7095,-0.616,-0.4999,-0.3748,-0.2547,-0.1344,-0.0135,0.0,0.0,0.0,0.0,0.0,0.0,0.0,0.0,0.0,0.0,0.0,0.0,0.0,0.0,0.0,0.0,0.0,0.0,0.0,0.0,0.0,0.0,0.0,0.0,0.0,0.0,0.0,0.0,0.0,0.0,0.0,0.0,0.0,0.0,0.0,0.0,-0.8482,-0.8482,-0.8438,-0.8347,-0.8323,-0.8218,-0.8012,-0.7988,-0.7988,-0.7988,-0.7988,-0.7988,-0.7988,-0.7988,-0.7988,-0.7988,-0.7988,-0.7988,-0.7988,-0.7988,-0.7988,-0.7988,-0.7901,-0.7807,-0.7604,-0.7451,-0.7295,-0.7095,-0.7095,-0.7095,-0.7095,-0.7095,-0.7095,-0.7095,-0.7095,-0.7095,-0.7095,-0.7095,-0.7095,-0.7095,-0.7095,-0.7095,-0.7095,-0.7095,-0.7095,-0.7095,-0.7095,-0.7095,-0.7095,-0.7095,-0.7095,-0.7095,-0.7095,-0.7095,-0.7095,-0.7095,-0.7095,-0.7095,-0.7095,-0.7095,-0.7095,-0.7095,-0.7095,-0.7095,-0.7095,-0.7095,-0.7095,-0.7095,-0.7095,-0.7095,-0.7095,-0.7095,-0.6962,-0.6517,-0.5445,-0.4285,-0.3037,-0.1835,-0.0807,-0.009,0.0,0.0,0.0,0.0,0.0,0.0,0.0,0.0,0.0,0.0,0.0,0.0,0.0,0.0,0.0,0.0,0.0,0.0,0.0,0.0,0.0,0.0,0.0,0.0,0.0,0.0,0.0,0.0,0.0,0.0,0.0,0.0,0.005,0.0605,0.0454,0.0101,-0.8442,-0.8442,-0.8401,-0.8272,-0.8248,-0.8204,-0.8012,-0.7988,-0.7988,-0.7988,-0.7988,-0.7988,-0.7988,-0.7988,-0.7988,-0.7988,-0.7988,-0.7988,-0.7988,-0.7988,-0.7988,-0.7988,-0.7988,-0.7857,-0.7624,-0.7468,-0.7316,-0.7119,-0.7102,-0.7095,-0.7095,-0.7095,-0.7095,-0.7095,-0.7095,-0.7095,-0.7095,-0.7095,-0.7095,-0.7095,-0.7095,-0.7095,-0.7095,-0.7095,-0.7095,-0.7095,-0.7095,-0.7095,-0.7095,-0.7095,-0.7095,-0.7095,-0.7095,-0.7095,-0.7095,-0.7095,-0.7095,-0.7095,-0.7095,-0.7095,-0.7095,-0.7095,-0.7095,-0.7095,-0.7095,-0.7095,-0.7095,-0.7095,-0.7095,-0.7095,-0.7095,-0.7007,-0.6605,-0.5581,-0.4285,-0.3037,-0.1969,-0.0763,0.0,0.0,0.0,0.0,0.0,0.0,0.0,0.0,0.0,0.0,0.0,0.0,0.0,0.0,0.0,0.0,0.0,0.0,0.0,0.0,0.0,0.0,0.0,0.0,0.0,0.0,0.0,0.0,0.0,0.0,0.0,0.0,0.0,0.005,0.0303,0.1561,0.131,0.0555,-0.8086,-0.8086,-0.8076,-0.8096,-0.8089,-0.8029,-0.7995,-0.7988,-0.7988,-0.7988,-0.7988,-0.7988,-0.7988,-0.7988,-0.7988,-0.7988,-0.7988,-0.7988,-0.7988,-0.7988,-0.7988,-0.7988,-0.7988,-0.7904,-0.777,-0.7624,-0.7475,-0.7322,-0.72,-0.7095,-0.7095,-0.7095,-0.7095,-0.7095,-0.7095,-0.7095,-0.7095,-0.7095,-0.7095,-0.7095,-0.7095,-0.7095,-0.7095,-0.7095,-0.7095,-0.7095,-0.7095,-0.7095,-0.7095,-0.7095,-0.7095,-0.7095,-0.7095,-0.7095,-0.7095,-0.7095,-0.7095,-0.7095,-0.7095,-0.7095,-0.7095,-0.7095,-0.7095,-0.7095,-0.7095,-0.7095,-0.7095,-0.7095,-0.7095,-0.7095,-0.7095,-0.6384,-0.5672,-0.5447,-0.3573,-0.2102,-0.1835,-0.0763,0.0,0.0,0.0,0.0,0.0,0.0,0.0,0.0,0.0,0.0,0.0,0.0,0.0,0.0,0.0,0.0,0.0,0.0,0.0,0.0,0.0,0.0,0.0,0.0,0.0,0.0,0.0,0.0,0.0,0.0,0.0,0.0,0.0,0.0656,0.1611,0.1913,0.2464,0.3165,-0.7988,-0.7988,-0.7988,-0.7988,-0.7988,-0.7988,-0.7988,-0.7988,-0.7988,-0.7988,-0.7988,-0.7988,-0.7988,-0.7988,-0.7988,-0.7988,-0.7988,-0.7988,-0.7988,-0.7988,-0.7988,-0.7988,-0.7988,-0.7951,-0.7874,-0.7777,-0.7594,-0.7415,-0.7288,-0.7214,-0.7095,-0.7095,-0.7095,-0.7095,-0.7095,-0.7095,-0.7095,-0.7095,-0.7095,-0.7095,-0.7095,-0.7095,-0.7095,-0.7095,-0.7095,-0.7095,-0.7095,-0.6738,-0.6296,-0.6296,-0.6296,-0.6296,-0.6296,-0.665,-0.7095,-0.7095,-0.7095,-0.7095,-0.7095,-0.7095,-0.7095,-0.7095,-0.7095,-0.7095,-0.7095,-0.7095,-0.7095,-0.7095,-0.665,-0.6296,-0.6296,-0.5312,-0.4374,-0.3796,-0.2638,-0.1612,-0.1031,-0.0404,0.0,0.0,0.0,0.0,0.0,0.0,0.0,0.0,0.0,0.0,0.0,0.0,0.0,0.0,0.0,0.0,0.0,0.0,0.0,0.0,0.0,0.0,0.0,0.0,0.0,0.0,0.0,0.0,0.0,0.0,0.0,0.005,0.0706,0.136,0.2163,0.3417,0.437,0.497,-0.7988,-0.7988,-0.7988,-0.7988,-0.7988,-0.7988,-0.7988,-0.7988,-0.7988,-0.7988,-0.7988,-0.7988,-0.7988,-0.7988,-0.7988,-0.7988,-0.7988,-0.7988,-0.7988,-0.7988,-0.7988,-0.7988,-0.7988,-0.7988,-0.7988,-0.7916,-0.7719,-0.7448,-0.7443,-0.7305,-0.7136,-0.7109,-0.7095,-0.7095,-0.7095,-0.7095,-0.7095,-0.6871,-0.6827,-0.6786,-0.6602,-0.6514,-0.6514,-0.6514,-0.6514,-0.6514,-0.6514,-0.5891,-0.509,-0.509,-0.509,-0.509,-0.509,-0.5755,-0.6514,-0.6514,-0.6514,-0.6514,-0.6514,-0.6514,-0.6514,-0.6514,-0.6514,-0.6514,-0.6514,-0.6827,-0.7051,-0.683,-0.6071,-0.5359,-0.5134,-0.4105,-0.2948,-0.1969,-0.1612,-0.1165,-0.0135,0.0,0.0,0.0,0.0,0.0,0.0,0.0,0.0,0.0,0.0,0.0,0.0,0.0,0.0,0.0,0.0,0.0,0.0,0.0,0.0,0.0,0.0,0.0,0.0,0.0,0.0,0.0,0.0,0.0,0.0,0.0,0.0,0.0151,0.146,0.2163,0.2665,0.5375,0.6331,0.6331,-0.7988,-0.7988,-0.7988,-0.7988,-0.7988,-0.7988,-0.7988,-0.7988,-0.7988,-0.7988,-0.7988,-0.7988,-0.7988,-0.7988,-0.7988,-0.7988,-0.7988,-0.7988,-0.7988,-0.7988,-0.7988,-0.7988,-0.7988,-0.7988,-0.7988,-0.7968,-0.7874,-0.775,-0.7495,-0.7405,-0.7336,-0.7204,-0.7095,-0.7095,-0.7095,-0.7095,-0.7051,-0.6027,-0.5625,-0.5536,-0.4508,-0.4059,-0.4059,-0.4059,-0.4059,-0.4059,-0.4059,-0.397,-0.3838,-0.3838,-0.3838,-0.3838,-0.3838,-0.397,-0.4059,-0.4059,-0.4059,-0.4059,-0.4059,-0.4059,-0.4059,-0.4059,-0.4059,-0.4059,-0.4059,-0.5664,-0.6827,-0.5849,-0.5492,-0.509,-0.4016,-0.286,-0.1969,-0.1835,-0.0942,-0.018,-0.0045,0.0,0.0,0.0,0.0,0.0,0.0,0.0,0.0,0.0,0.0,0.0,0.0,0.0,0.0,0.0,0.0,0.0,0.0,0.0,0.0,0.0,0.0,0.0,0.0,0.0,0.0,0.0,0.0,0.0,0.0,0.0,0.0,0.0151,0.146,0.2715,0.4066,0.6728,0.7739,0.7739,-0.8137,-0.7988,-0.7988,-0.7988,-0.7988,-0.7988,-0.7988,-0.7988,-0.7988,-0.7988,-0.7988,-0.7988,-0.7988,-0.7988,-0.7988,-0.7988,-0.7988,-0.7988,-0.7988,-0.7988,-0.7988,-0.7988,-0.7988,-0.7988,-0.7988,-0.7988,-0.7958,-0.7891,-0.7723,-0.7533,-0.7415,-0.7302,-0.7224,-0.7095,-0.7095,-0.6738,-0.6115,-0.5625,-0.5001,-0.433,-0.3794,-0.3614,-0.3614,-0.3614,-0.3614,-0.3614,-0.3614,-0.317,-0.2592,-0.2592,-0.2592,-0.2592,-0.2592,-0.3037,-0.3614,-0.3614,-0.3614,-0.3614,-0.3614,-0.3614,-0.3614,-0.3614,-0.3614,-0.3614,-0.3614,-0.4417,-0.4996,-0.4508,-0.384,-0.3218,-0.2681,-0.1612,-0.0807,-0.0807,-0.0359,0.0,0.0,0.0,0.0,0.0,0.0,0.0,0.0,0.0,0.0,0.0,0.0,0.0,0.0,0.0,0.0,0.0,0.0,0.0,0.0,0.0,0.0,0.0,0.0,0.0,0.0,0.0,0.0,0.0,0.0,0.0404,0.1109,0.1109,0.1561,0.2364,0.3718,0.5072,0.6376,0.7584,0.7988,0.7988]},{"header":{"parameterUnit":"m.s-1","parameterCategory":1,"la1":30.6,"la2":28.766,"lo1":-90.7593,"lo2":-88.6598,"dy":0.0162,"dx":0.0183,"nx":116,"ny":114,"refTime":"2023-10-13T12:00:00:Z","depth":0,"parameterNumber":3,"parameterNumberName":"V-component_of_WINDS"},"data":[0.0,0.0,0.0,0.0,0.0,0.0,0.0,0.0,0.0,0.0,0.0,0.0,0.0,0.0,0.0,0.0,0.0,0.0,0.0,0.0,0.0,0.0,0.0,0.0,0.0,0.0,0.0,0.0,0.0,0.0,0.0,0.0,0.0,0.0,0.0,0.0,0.0,0.0,0.0,0.0,0.0,0.0,0.0,0.0,0.0,0.0,0.0,0.0,0.0,0.0,0.0,0.0,0.0,0.0,0.0,0.0,0.0,0.0,0.0,0.0,0.0,0.0,0.0,0.0,0.0,0.0,0.0,0.0,0.0,0.0,0.0,0.0,0.0,0.0,0.0,0.0,0.0,0.0,0.0,0.0,0.0,0.0,0.0,0.0,0.0,0.0,0.0,0.0,0.0,0.0,0.0,0.0,0.0,0.0,0.0,0.0,0.0,0.0,0.0,0.0,0.0,0.0,0.0,0.0,0.0,0.0,0.0,0.0,0.0,0.0,0.0,0.0,0.0,0.0,0.0,0.0,0.0,0.0,0.0,0.0,0.0,0.0,0.0,0.0,0.0,0.0,0.0,0.0,0.0,0.0,0.0,0.0,0.0,0.0,0.0,0.0,0.0,0.0,0.0,0.0,0.0,0.0,0.0,0.0,0.0,0.0,0.0,0.0,0.0,0.0,0.0,0.0,0.0,0.0,0.0,0.0,0.0,0.0,0.0,0.0,0.0,0.0,0.0,0.0,0.0,0.0,0.0,0.0,0.0,0.0,0.0,0.0,0.0,0.0,0.0,0.0,0.0,0.0,0.0,0.0,0.0,0.0,0.0,0.0,0.0,0.0,0.0,0.0,0.0,0.0,0.0,0.0,0.0,0.0,0.0,0.0,0.0,0.0,0.0,0.0,0.0,0.0,0.0,0.0,0.0,0.0,0.0,0.0,0.0,0.0,0.0,0.0,0.0,0.0,0.0,0.0,0.0,0.0,0.0,0.0,0.0,0.0,0.0,0.0,0.0,0.0,0.0,0.0,0.0,0.0,0.0,0.0,0.0,0.0,0.0,0.0,0.0,0.0,0.0,0.0,0.0,0.0,0.0,0.0,0.0,0.0,0.0,0.0,0.0,0.0,0.0,0.0,0.0,0.0,0.0,0.0,0.0,0.0,0.0,0.0,0.0,0.0,0.0,0.0,0.0,0.0,0.0,0.0,0.0,0.0,0.0,0.0,0.0,0.0,0.0,0.0,0.0,0.0,0.0,0.0,0.0,0.0,0.0,0.0,0.0,0.0,0.0,0.0,0.0,0.0,0.0,0.0,0.0,0.0,0.0,0.0,0.0,0.0,0.0,0.0,0.0,0.0,0.0,0.0,0.0,0.0,0.0,0.0,0.0,0.0,0.0,0.0,0.0,0.0,0.0,0.0,0.0,0.0,0.0,0.0,0.0,0.0,0.0,0.0,0.0,0.0,0.0,0.0,0.0,0.0,0.0,0.0,0.0,0.0,0.0,0.0,0.0,0.0,0.0,0.0,0.0,0.0,0.0,0.0,0.0,0.0,0.0,0.0,0.0,0.0,0.0,0.0,0.0,0.0,0.0,0.0,0.0,0.0,0.0,0.0,0.0,0.0,0.0,0.0,0.0,0.0,0.0,0.0,0.0,0.0,0.0,0.0,0.0,0.0,0.0,0.0,0.0,0.0,0.0,0.0,0.0,0.0,0.0,0.0,0.0,0.0,0.0,0.0,0.0,0.0,0.0,0.0,0.0,0.0,0.0,0.0,0.0,0.0,0.0,0.0,0.0,0.0,0.0,0.0,0.0,0.0,0.0,0.0,0.0,0.0,0.0,0.0,0.0,0.0,0.0,0.0,0.0,0.0,0.0,0.0,0.0,0.0,0.0,0.0,0.0,0.0,0.0,0.0,0.0,0.0,0.0,0.0,0.0,0.0,0.0,0.0,0.0,0.0,0.0,0.0,0.0,0.0,0.0,0.0,0.0,0.0,0.0,0.0,0.0,0.0,0.0,0.0,0.0,0.0,0.0,0.0,0.0,0.0,0.0,0.0,0.0,0.0,0.0,0.0,0.0,0.0,0.0,0.0,0.0,0.0,0.0,0.0,0.0,0.0,0.0,0.0,0.0,0.0,0.0,0.0,0.0,0.0,0.0,0.0,0.0,0.0,0.0,0.0,0.0,0.0,0.0,0.0,0.0,0.0,0.0,0.0,0.0,0.0,0.0,0.0,0.0,0.0,0.0,0.0,0.0,0.0,0.0,0.0,0.0,0.0,0.0,0.0,0.0,0.0,0.0,0.0,0.0,0.0,0.0,0.0,0.0,0.0,0.0,0.0,0.0,0.0,0.0,0.0,0.0,0.0,0.0,0.0,0.0,0.0,0.0,0.0,0.0,0.0,0.0,0.0,0.0,0.0,0.0,0.0,0.0,0.0,0.0,0.0,0.0,0.0,0.0,0.0,0.0,0.0,0.0,0.0,0.0,0.0,0.0,0.0,0.0,0.0,0.0,0.0,0.0,0.0,0.0,0.0,0.0,0.0,0.0,0.0,0.0,0.0,0.0,0.0,0.0,0.0,0.0,0.0,0.0,0.0,0.0,0.0,0.0,0.0,0.0,0.0,0.0,0.0,0.0,0.0,0.0,0.0,0.0,0.0,0.0,0.0,0.0,0.0,0.0,0.0,0.0,0.0,0.0,0.0,0.0,0.0,0.0,0.0,0.0,0.0,0.0,0.0,0.0,0.0,0.0,0.0,0.0,0.0,0.0,0.0,0.0,0.0,0.0,0.0,0.0,0.0,0.0,0.0,0.0,0.0,0.0,0.0,0.0,0.0,0.0,0.0,0.0,0.0,0.0,0.0,0.0,0.0,0.0,0.0,0.0,0.0,0.0,0.0,0.0,0.0,0.0,0.0,0.0,0.0,0.0,0.0,0.0,0.0,0.0,0.0,0.0,0.0,0.0,0.0,0.0,0.0,0.0,0.0,0.0,0.0,0.0,0.0,0.0,0.0,0.0,0.0,0.0,0.0,0.0,0.0,0.0,0.0,0.0,0.0,0.0,0.0,0.0,0.0,0.0,0.0,0.0,0.0,0.0,0.0,0.0,0.0,0.0,0.0,0.0,0.0,0.0,0.0,0.0,0.0,0.0,0.0,0.0,0.0,0.0,0.0,0.0,0.0,0.0,0.0,0.0,0.0,0.0,0.0,0.0,0.0,0.0,0.0,0.0,0.0,0.0,0.0,0.0,0.0,0.0,0.0,0.0,0.0,0.0,0.0,0.0,0.0,0.0,0.0,0.0,0.0,0.0,0.0,0.0,0.0,0.0,0.0,0.0,0.0,0.0,0.0,0.0,0.0,0.0,0.0,0.0,0.0,0.0,0.0,0.0,0.0,0.0,0.0,0.0,0.0,0.0,0.0,0.0,0.0,0.0,0.0,0.0,0.0,0.0,0.0,0.0,0.0,0.0,0.0,0.0,0.0,0.0,0.0,0.0,0.0,0.0,0.0,0.0,0.0,0.0,0.0,0.0,0.0,0.0,0.0,0.0,0.0,0.0,0.0,0.0,0.0,0.0,0.0,0.0,0.0,0.0,0.0,0.0,0.0,0.0,0.0,0.0,0.0,0.0,0.0,0.0,0.0,0.0,0.0,0.0,0.0,0.0,0.0,0.0,0.0,0.0,0.0,0.0,0.0,0.0,0.0,0.0,0.0,0.0,0.0,0.0,0.0,0.0,0.0,0.0,0.0,0.0,0.0,0.0,0.0,0.0,0.0,0.0,0.0,0.0,0.0,0.0,0.0,0.0,0.0,0.0,0.0,0.0,0.0,0.0,0.0,0.0,0.0,0.0,0.0,0.0,0.0,0.0,0.0,0.0,0.0,0.0,0.0,0.0,0.0,0.0,0.0,0.0,0.0,0.0,0.0,0.0,0.0,0.0,0.0,0.0,0.0,0.0,0.0,0.0,0.0,0.0,0.0,0.0,0.0,0.0,0.0,0.0,0.0,0.0,0.0,0.0,0.0,0.0,0.0,0.0,0.0,0.0,0.0,0.0,0.0,0.0,0.0,0.0,0.0,0.0,0.0,0.0,0.0,0.0,0.0,0.0,0.0,0.0,0.0,0.0,0.0,0.0,0.0,0.0,0.0,0.0,0.0,0.0,0.0,0.0,0.0,0.0,0.0,0.0,0.0,0.0,0.0,0.0,0.0,0.0,0.0,0.0,0.0,0.0,0.0,0.0,0.0,0.0,0.0,0.0,0.0,0.0,0.0,0.0,0.0,0.0,0.0,0.0,0.0,0.0,0.0,0.0,0.0,0.0,0.0,0.0,0.0,0.0,0.0,0.0,0.0,0.0,0.0,0.0,0.0,0.0,0.0,0.0,0.0,0.0,0.0,0.0,0.0,0.0,0.0,0.0,0.0,0.0,0.0,0.0,0.0,0.0,0.0,0.0,0.0,0.0,0.0,0.0,0.0,0.0,0.0,0.0,0.0,0.0,0.0,0.0,0.0,0.0,0.0,0.0,0.0,0.0,0.0,0.0,0.0,0.0,0.0,0.0,0.0,0.0,0.0,0.0,0.0,0.0,0.0,0.0,0.0,0.0,0.0,0.0,0.0,0.0,0.0,0.0,0.0,0.0,0.0,0.0,0.0,0.0,0.0,0.0,0.0,0.0,0.0,0.0,0.0,0.0,0.0,0.0,0.0,0.0,0.0,0.0,0.0,0.0,0.0,0.0,0.0,0.0,0.0,0.0,0.0,0.0,0.0,0.0,0.0,0.0,0.0,0.0,0.0,0.0,0.0,0.0,0.0,0.0,0.0,0.0,0.0,0.0,0.0,0.0,0.0,0.0,0.0,0.0,0.0,0.0,0.0,0.0,0.0,0.0,0.0,0.0,0.0,0.0,0.0,0.0,0.0,0.0,0.0,0.0,0.0,0.0,0.0,0.0,0.0,0.0,0.0,0.0,0.0,0.0,0.0,0.0,0.0,0.0,0.0,0.0,0.0,0.0,0.0,0.0,0.0,0.0,0.0,0.0,0.0,0.0,0.0,0.0,0.0,0.0,0.0,0.0,0.0,0.0,0.0,0.0,0.0,0.0,0.0,0.0,0.0,0.0,0.0,0.0,0.0,0.0,0.0,0.0,0.0,0.0,0.0,0.0,0.0,0.0,0.0,0.0,0.0,0.0,0.0,0.0,0.0,0.0,0.0,0.0,0.0,0.0,0.0,0.0,0.0,0.0,0.0,0.0,0.0,0.0,0.0,0.0,0.0,0.0,0.0,0.0,0.0,0.0,0.0,0.0,0.0,0.0,0.0,0.0,0.0,0.0,0.0,0.0,0.0,0.0,0.0,0.0,0.0,0.0,0.0,0.0,0.0,0.0,0.0,0.0,0.0,0.0,0.0,0.0,0.0,0.0,0.0,0.0,0.0,0.0,0.0,0.0,0.0,0.0,0.0,0.0,0.0,0.0,0.0,0.0,0.0,0.0,0.0,0.0,0.0,0.0,0.0,0.0,0.0,0.0,0.0,0.0,0.0,0.0,0.0,0.0,0.0,0.0,0.0,0.0,0.0,0.0,0.0,0.0,0.0,0.0,0.0,0.0,0.0,0.0,0.0,0.0,0.0,0.0,0.0,0.0,0.0,0.0,0.0,0.0,0.0,0.0,0.0,0.0,0.0,0.0,0.0,0.0,0.0,0.0,0.0,0.0,0.0,0.0,0.0,0.0,0.0,0.0,0.0,0.0,0.0,0.0,0.0,0.0,0.0,0.0,0.0,0.0,0.0,0.0,0.0,0.0,0.0,0.0,0.0,0.0,0.0,0.0,0.0,0.0,0.0,0.0,0.0,0.0,0.0,0.0,0.0,0.0,0.0,0.0,0.0,0.0,0.0,0.0,0.0,0.0,0.0,0.0,0.0,0.0,0.0,0.0,0.0,0.0,0.0,0.0,0.0,0.0,0.0,0.0,0.0,0.0,0.0,0.0,0.0,0.0,0.0,0.0,0.0,0.0,0.0,0.0,0.0,0.0,0.0,0.0,0.0,0.0,0.0,0.0,0.0,0.0,0.0,0.0,0.0,0.0,0.0,0.0,0.0,0.0,0.0,0.0,0.0,0.0,0.0,0.0,0.0,2.2287,0.0,0.0,0.0,0.0,0.0,0.0,0.0,0.0,0.0,0.0,0.0,0.0,0.0,0.0,0.0,0.0,0.0,0.0,0.0,0.0,0.0,0.0,0.0,0.0,0.0,0.0,0.0,0.0,0.0,0.0,0.0,0.0,0.0,0.0,0.0,0.0,0.0,0.0,0.0,0.0,0.0,0.0,0.0,0.0,0.0,0.0,0.0,0.0,0.0,0.0,0.0,0.0,0.0,0.0,0.0,0.0,0.0,0.0,0.0,0.0,0.0,0.0,0.0,0.0,0.0,0.0,0.0,0.0,0.0,0.0,0.0,0.0,0.0,0.0,0.0,0.0,0.0,0.0,0.0,0.0,0.0,0.0,0.0,0.0,0.0,0.0,0.0,0.0,0.0,0.0,0.0,0.0,0.0,0.0,0.0,0.0,0.0,0.0,0.0,0.0,0.0,0.0,0.0,0.0,0.0,0.0,0.0,0.0,0.0,0.0,0.0,0.0,0.0,0.0,0.0,0.0,2.2443,0.0,0.0,0.0,0.0,0.0,0.0,0.0,0.0,0.0,0.0,0.0,0.0,0.0,0.0,0.0,0.0,0.0,0.0,0.0,0.0,0.0,0.0,0.0,0.0,0.0,0.0,0.0,0.0,0.0,0.0,0.0,0.0,0.0,0.0,0.0,0.0,0.0,0.0,0.0,0.0,0.0,0.0,0.0,0.0,0.0,0.0,0.0,0.0,0.0,0.0,0.0,0.0,0.0,0.0,0.0,0.0,0.0,0.0,0.0,0.0,0.0,0.0,0.0,0.0,0.0,0.0,0.0,0.0,0.0,0.0,0.0,0.0,0.0,0.0,0.0,0.0,0.0,0.0,0.0,0.0,0.0,0.0,0.0,0.0,0.0,0.0,0.0,0.0,0.0,0.0,0.0,0.0,0.0,0.0,0.0,0.0,0.0,0.0,0.0,0.0,0.0,0.0,0.0,0.0,0.0,0.0,0.0,0.0,2.7427,2.7709,2.798,2.7869,2.7502,2.6825,2.4697,2.4561,2.5743,0.0,0.0,0.0,0.0,0.0,0.0,0.0,0.0,0.0,0.0,0.0,0.0,0.0,0.0,0.0,0.0,0.0,0.0,0.0,0.0,0.0,0.0,0.0,0.0,0.0,0.0,0.0,0.0,0.0,0.0,0.0,0.0,0.0,0.0,0.0,0.0,0.0,0.0,0.0,2.9085,2.8561,2.7664,2.645,0.0,0.0,0.0,0.0,0.0,0.0,0.0,0.0,0.0,0.0,0.0,0.0,0.0,0.0,0.0,0.0,0.0,0.0,0.0,0.0,0.0,0.0,0.0,0.0,0.0,0.0,0.0,0.0,0.0,0.0,0.0,0.0,0.0,0.0,0.0,0.0,0.0,0.0,0.0,0.0,0.0,0.0,0.0,0.0,2.6446,2.6972,0.0,0.0,0.0,0.0,0.0,0.0,0.0,0.0,0.0,0.0,0.0,0.0,0.0,2.6493,2.7063,2.8866,2.9808,2.9894,3.1116,3.135,3.0666,3.0149,2.9468,2.8637,2.7879,0.0,2.7056,2.6758,0.0,0.0,0.0,0.0,0.0,0.0,0.0,0.0,0.0,0.0,0.0,0.0,0.0,0.0,0.0,0.0,0.0,0.0,0.0,0.0,0.0,0.0,0.0,0.0,0.0,0.0,0.0,0.0,0.0,0.0,0.0,0.0,0.0,0.0,0.0,0.0,3.0006,3.1099,3.1847,3.1573,3.1311,3.0986,3.0391,2.8006,2.4419,2.4684,0.0,0.0,0.0,0.0,0.0,0.0,0.0,0.0,0.0,0.0,0.0,0.0,0.0,0.0,0.0,0.0,0.0,0.0,0.0,0.0,0.0,0.0,0.0,0.0,0.0,0.0,0.0,0.0,0.0,0.0,0.0,0.0,0.0,0.0,0.0,0.0,0.0,0.0,0.0,2.6535,2.7123,2.7825,2.7209,2.6117,0.0,0.0,0.0,0.0,0.0,0.0,0.0,0.0,0.0,2.8437,2.8624,2.9186,3.022,3.1513,3.2362,3.2808,3.3436,3.3732,3.3783,3.3506,3.3181,3.2801,3.2185,3.1729,3.1261,2.8857,2.7722,2.7361,0.0,0.0,0.0,0.0,2.5094,2.6162,0.0,0.0,0.0,0.0,0.0,0.0,0.0,0.0,0.0,0.0,0.0,0.0,0.0,0.0,0.0,0.0,0.0,0.0,0.0,0.0,0.0,0.0,0.0,0.0,0.0,0.0,0.0,0.0,3.2101,3.327,3.4128,3.4128,3.4012,3.3862,3.3862,3.1305,2.6954,0.0,0.0,0.0,0.0,0.0,0.0,0.0,0.0,0.0,0.0,0.0,0.0,0.0,0.0,0.0,0.0,0.0,0.0,0.0,0.0,0.0,0.0,0.0,0.0,0.0,0.0,0.0,0.0,0.0,0.0,0.0,0.0,0.0,0.0,0.0,0.0,0.0,0.0,0.0,0.0,2.7682,2.8025,2.865,2.8295,2.7351,0.0,0.0,0.0,0.0,0.0,0.0,2.8869,2.8548,2.9178,3.099,3.1527,3.2284,3.334,3.4012,3.4645,3.524,3.524,3.5537,3.6043,3.5894,3.5814,3.5781,3.5214,3.499,3.4697,3.1128,2.962,2.9464,2.8509,2.775,2.7128,2.7084,2.7496,2.8161,0.0,0.0,0.0,0.0,0.0,0.0,0.0,0.0,0.0,0.0,0.0,0.0,0.0,0.0,0.0,0.0,0.0,0.0,0.0,0.0,0.0,0.0,0.0,0.0,0.0,0.0,0.0,3.3947,3.5428,3.5925,3.5492,3.5492,3.5161,3.4552,0.0,0.0,0.0,0.0,0.0,0.0,0.0,0.0,0.0,0.0,0.0,0.0,0.0,0.0,0.0,0.0,0.0,0.0,0.0,0.0,0.0,0.0,0.0,0.0,0.0,0.0,0.0,0.0,0.0,0.0,0.0,0.0,0.0,0.0,0.0,0.0,0.0,0.0,0.0,0.0,0.0,0.0,0.0,0.0,0.0,2.9537,2.99,0.0,0.0,0.0,0.0,2.843,2.9541,3.1168,3.3281,3.3339,3.4004,3.5427,3.5507,3.5555,3.5614,3.629,3.6642,3.6698,3.6698,3.6698,3.6738,3.6091,3.5814,3.5814,3.5754,3.5722,3.5626,3.3984,3.2856,3.201,3.0948,3.0742,3.0809,2.9183,3.0155,3.2219,0.0,0.0,0.0,0.0,0.0,0.0,0.0,0.0,0.0,0.0,0.0,0.0,0.0,0.0,0.0,0.0,0.0,0.0,0.0,0.0,0.0,0.0,0.0,0.0,0.0,0.0,3.4235,3.4639,3.6167,3.6823,3.6643,3.6643,3.6319,0.0,0.0,0.0,0.0,0.0,0.0,0.0,0.0,0.0,0.0,0.0,0.0,0.0,0.0,0.0,0.0,0.0,0.0,0.0,0.0,0.0,0.0,0.0,0.0,0.0,0.0,0.0,0.0,0.0,0.0,0.0,0.0,0.0,0.0,0.0,0.0,0.0,0.0,0.0,0.0,0.0,0.0,0.0,0.0,0.0,0.0,3.1428,3.1695,0.0,3.0608,3.1032,3.1135,3.0562,3.219,3.3539,3.429,3.4775,3.5466,3.6401,3.6433,3.6657,3.7066,3.7322,3.7661,3.8161,3.8161,3.8422,3.8933,3.8693,3.8576,3.8543,3.8068,3.7868,3.7785,3.6779,3.537,3.3752,3.2895,3.2647,3.2707,3.2078,3.2426,3.3267,0.0,0.0,0.0,0.0,0.0,0.0,0.0,0.0,0.0,0.0,0.0,0.0,0.0,0.0,0.0,0.0,0.0,0.0,0.0,0.0,0.0,0.0,0.0,0.0,0.0,3.4339,3.555,3.5916,3.6934,3.736,3.7209,0.0,0.0,0.0,0.0,0.0,0.0,0.0,0.0,0.0,0.0,0.0,2.7752,0.0,0.0,0.0,0.0,0.0,0.0,0.0,0.0,0.0,0.0,0.0,0.0,0.0,0.0,0.0,0.0,0.0,0.0,0.0,0.0,0.0,0.0,0.0,0.0,0.0,0.0,0.0,0.0,0.0,0.0,0.0,0.0,0.0,0.0,0.0,3.1422,3.2167,3.2656,3.2752,3.2312,3.2878,3.3194,3.3016,3.4504,3.5633,3.6107,3.6607,3.7196,3.7899,3.7916,3.8134,3.8569,3.8585,3.8816,3.9315,3.9315,3.9568,4.0096,4.0096,3.9842,3.9343,3.9385,3.9089,3.8616,3.8379,3.7419,3.6041,3.5052,3.4513,3.4276,3.4276,3.4276,3.4358,0.0,0.0,0.0,0.0,0.0,0.0,0.0,0.0,0.0,0.0,0.0,0.0,0.0,0.0,0.0,0.0,0.0,0.0,0.0,0.0,0.0,0.0,0.0,0.0,3.6254,3.6368,3.6894,3.7945,3.7928,3.7685,3.7247,0.0,0.0,0.0,0.0,0.0,0.0,0.0,0.0,0.0,0.0,0.0,3.0257,0.0,0.0,0.0,0.0,0.0,0.0,0.0,0.0,0.0,0.0,0.0,0.0,0.0,0.0,0.0,0.0,0.0,0.0,0.0,0.0,0.0,0.0,0.0,0.0,0.0,0.0,0.0,0.0,0.0,0.0,0.0,0.0,0.0,2.864,3.0915,3.2393,3.1798,3.2866,3.3659,3.3659,3.4276,3.4954,3.5679,3.6444,3.7506,3.8903,3.8971,3.9276,4.0011,4.0028,4.0028,4.0028,4.0104,4.0121,4.0121,4.0146,4.0146,4.0146,4.0146,3.9366,3.8089,3.9536,3.935,3.8072,3.8807,3.9078,3.8909,3.7394,3.6338,3.5678,3.5644,3.5667,3.5717,0.0,0.0,0.0,0.0,0.0,0.0,0.0,0.0,0.0,0.0,0.0,0.0,0.0,0.0,0.0,0.0,0.0,0.0,0.0,0.0,0.0,0.0,0.0,0.0,3.6918,3.7864,3.8461,3.8769,3.8582,3.8417,0.0,0.0,0.0,0.0,0.0,0.0,0.0,0.0,0.0,0.0,0.0,0.0,3.1924,0.0,0.0,0.0,0.0,0.0,0.0,0.0,0.0,0.0,0.0,0.0,0.0,0.0,0.0,0.0,0.0,0.0,0.0,0.0,0.0,0.0,0.0,0.0,0.0,0.0,0.0,0.0,0.0,0.0,0.0,0.0,0.0,3.2837,3.2235,3.2746,3.3501,3.4413,3.4818,3.5045,3.5045,3.5733,3.6269,3.6488,3.7682,3.8565,3.8971,3.8481,3.8311,3.8497,3.8497,3.8497,3.8497,3.9966,4.0679,4.0679,4.1127,4.1331,4.1331,4.1331,4.1103,4.0758,4.1156,4.1086,4.0758,4.0946,4.0705,4.0036,3.8066,3.7162,3.6948,3.6815,3.6746,3.6608,0.0,0.0,0.0,0.0,0.0,0.0,0.0,0.0,0.0,0.0,0.0,0.0,0.0,0.0,0.0,0.0,0.0,0.0,0.0,0.0,0.0,0.0,0.0,3.7001,3.8191,3.8925,3.9302,3.9302,3.9149,3.9078,0.0,0.0,0.0,0.0,0.0,0.0,0.0,0.0,0.0,0.0,0.0,0.0,3.3284,3.3284,3.2005,3.0239,3.001,2.9946,2.9772,2.8694,0.0,0.0,0.0,0.0,0.0,0.0,0.0,0.0,0.0,0.0,0.0,0.0,0.0,0.0,0.0,0.0,0.0,0.0,0.0,0.0,0.0,0.0,0.0,0.0,3.358,3.476,3.507,3.4648,3.4636,3.5498,3.56,3.56,3.56,3.6315,3.6931,3.7229,3.8328,3.9123,3.9453,3.9039,3.8611,3.8161,3.8811,3.8951,3.852,4.0356,4.1291,4.1291,4.1621,4.181,4.181,4.181,4.146,0.0,4.1527,4.146,4.0931,4.1545,4.1566,0.0,0.0,0.0,0.0,0.0,3.7323,3.7345,0.0,0.0,0.0,0.0,0.0,0.0,0.0,0.0,0.0,0.0,0.0,0.0,0.0,0.0,0.0,0.0,0.0,0.0,0.0,0.0,0.0,3.7153,3.738,3.8155,3.9675,3.9668,3.9656,3.9656,3.9622,3.9599,0.0,0.0,0.0,0.0,0.0,0.0,0.0,0.0,0.0,0.0,0.0,0.0,3.4542,3.4542,3.3421,3.1822,3.1273,3.1071,3.0954,3.0261,0.0,0.0,0.0,0.0,0.0,0.0,0.0,0.0,0.0,0.0,0.0,0.0,0.0,0.0,0.0,0.0,0.0,0.0,0.0,0.0,0.0,0.0,0.0,0.0,3.4606,3.5634,3.6997,3.6378,3.5766,3.5766,3.5766,3.5766,3.5766,3.6571,3.7393,3.8033,3.885,3.9581,4.0269,0.0,0.0,0.0,0.0,4.0337,3.9449,4.1073,4.1895,4.1895,4.1958,4.1982,4.1982,4.1982,4.1276,4.0107,4.1416,4.1258,4.0143,4.1434,4.1893,4.157,4.0144,3.9116,3.8339,3.7431,3.747,3.7962,0.0,0.0,0.0,0.0,0.0,0.0,0.0,0.0,0.0,0.0,0.0,0.0,0.0,0.0,0.0,0.0,0.0,0.0,0.0,0.0,3.5752,3.7766,3.8514,3.9339,4.0309,4.012,4.0002,4.0002,3.9742,3.9599,0.0,0.0,0.0,0.0,0.0,0.0,0.0,0.0,0.0,0.0,0.0,0.0,3.6617,3.6617,3.6384,3.5968,3.5434,3.5229,3.4974,3.3237,3.266,3.266,3.266,0.0,0.0,0.0,0.0,0.0,0.0,0.0,0.0,0.0,0.0,0.0,0.0,0.0,0.0,0.0,0.0,0.0,0.0,0.0,0.0,3.5403,3.6218,3.6874,3.7156,3.702,3.6884,3.6884,3.6884,3.6884,3.6884,3.8149,3.9044,3.9185,4.0485,4.1328,4.1468,4.0352,0.0,3.9391,3.9693,3.9752,3.9552,4.1534,4.2537,4.2519,0.0,0.0,4.3178,4.3178,4.3032,4.2757,4.305,4.3013,4.2776,4.305,4.2412,4.1157,4.0365,3.948,3.8455,3.7015,3.7351,3.8363,0.0,0.0,0.0,0.0,0.0,0.0,0.0,0.0,0.0,0.0,0.0,0.0,0.0,0.0,0.0,0.0,0.0,0.0,0.0,3.6096,3.7046,3.9161,3.9669,4.0092,4.0496,4.0364,4.0304,4.0304,4.0129,4.0053,0.0,0.0,0.0,0.0,0.0,0.0,0.0,0.0,0.0,0.0,0.0,0.0,3.793,3.7649,3.7396,3.7154,3.6902,3.6803,3.6641,3.5653,3.5312,3.5312,3.5312,3.4792,3.3892,0.0,0.0,0.0,0.0,0.0,0.0,0.0,0.0,0.0,0.0,0.0,0.0,0.0,0.0,3.43,0.0,0.0,3.5442,3.6055,3.6845,3.7478,3.7892,3.7948,3.7773,3.7266,3.7209,3.7209,3.7209,3.8589,3.9492,3.9492,4.0925,4.181,4.181,4.1088,4.0451,3.9921,4.0709,4.088,4.0366,4.2178,4.3105,4.3087,4.3375,4.3515,4.3515,4.3515,4.3515,4.3515,4.3515,4.3515,4.3478,4.3057,4.2194,4.1024,4.0315,3.9489,3.8597,3.7808,3.801,3.8597,0.0,0.0,0.0,0.0,0.0,0.0,0.0,0.0,0.0,0.0,0.0,0.0,0.0,0.0,0.0,0.0,0.0,0.0,0.0,3.6577,3.795,4.0169,4.0419,4.0496,4.0496,4.0496,4.0496,4.0496,4.0496,4.0496,0.0,0.0,0.0,0.0,0.0,0.0,0.0,0.0,0.0,0.0,0.0,0.0,3.8643,3.8216,3.7825,3.7487,3.736,3.7341,3.7323,3.7229,3.7209,3.7209,3.7209,3.7209,3.6643,3.3792,3.3879,0.0,0.0,0.0,0.0,0.0,0.0,0.0,0.0,0.0,3.4527,3.4222,3.4951,3.5568,3.5299,3.576,3.6324,3.6699,3.7312,3.797,3.8615,3.8707,3.8401,3.7578,3.7487,3.7487,3.7487,3.8754,3.9646,3.9807,4.1107,4.1963,4.2126,4.2144,4.1735,4.0872,4.2157,4.245,4.1572,4.2837,4.3531,4.3597,4.3531,4.3531,4.3597,4.3531,4.3531,4.3579,4.3496,4.3455,4.34,4.2572,4.176,4.0985,4.0335,3.9579,3.8877,3.8788,3.8818,3.8859,0.0,0.0,0.0,0.0,0.0,0.0,0.0,0.0,0.0,0.0,0.0,0.0,0.0,0.0,0.0,0.0,0.0,0.0,3.3295,3.6161,3.8334,3.94,4.0112,4.0496,4.0496,4.0496,4.0496,4.0496,4.0496,4.0496,0.0,0.0,0.0,0.0,0.0,0.0,0.0,0.0,0.0,0.0,0.0,0.0,3.8692,3.8627,3.8596,3.8465,3.7998,3.7825,3.7755,3.7341,3.7209,3.7209,3.7209,3.7209,3.6855,3.5137,0.0,3.4232,3.1142,3.0386,3.0672,3.144,3.3114,3.4233,0.0,0.0,3.7066,3.5758,3.6973,3.8269,3.8227,3.8297,3.8368,3.8417,3.8505,3.8597,3.8689,3.8707,3.8676,3.8564,3.853,3.853,3.853,3.9335,4.0158,4.0854,4.1749,4.2554,4.3284,4.3321,4.3247,4.3135,4.3318,4.3335,4.3222,4.3423,4.3646,4.394,4.3646,4.3662,4.3924,4.3629,4.3662,4.3918,4.3507,4.3324,4.3267,4.2395,4.1568,4.0829,4.0735,4.0202,3.9457,3.9165,3.9244,3.9493,0.0,0.0,0.0,0.0,0.0,0.0,0.0,0.0,0.0,0.0,0.0,0.0,0.0,0.0,0.0,0.0,0.0,0.0,3.2102,3.4486,3.6908,3.9258,3.9757,4.0209,4.066,4.066,4.0659,4.0616,4.0616,4.0581,0.0,0.0,0.0,0.0,0.0,0.0,0.0,0.0,0.0,0.0,0.0,0.0,3.8707,3.8707,3.8707,3.8475,3.6809,3.6528,0.0,0.0,3.626,3.6837,3.7795,3.7091,3.5899,3.5747,3.4697,0.0,3.3132,3.3386,0.0,0.0,3.6048,3.6922,3.6318,3.7321,3.82,3.7572,3.812,3.8707,3.8707,3.8322,3.8138,0.0,3.8303,3.8175,3.8634,3.8707,3.8707,3.8707,3.7863,3.7294,3.7294,3.8872,3.9643,3.9038,4.0616,4.1956,4.2763,4.28,4.3102,4.377,4.3788,4.3896,4.414,4.414,4.4209,4.4364,4.4194,4.4209,4.4332,4.3675,4.3174,4.2827,4.2616,4.253,4.2473,4.1644,4.1098,4.0752,4.0273,4.0023,3.984,3.9498,3.9493,3.9599,0.0,0.0,0.0,0.0,0.0,0.0,0.0,0.0,0.0,0.0,0.0,0.0,0.0,0.0,0.0,0.0,0.0,0.0,0.0,3.3229,3.566,3.8617,3.9056,0.0,4.0447,4.0466,4.0542,4.0721,4.0721,4.0662,0.0,0.0,0.0,0.0,0.0,0.0,0.0,0.0,0.0,0.0,0.0,0.0,3.896,3.896,3.8481,3.7569,3.5689,3.5408,0.0,0.0,3.4871,3.6028,3.6523,3.5903,3.5041,3.522,3.3862,3.2669,3.4509,0.0,0.0,3.7125,3.7951,3.8432,3.8652,3.8707,3.8707,3.8707,3.8707,3.8707,3.8707,3.8212,0.0,3.8615,3.8212,3.8055,3.873,3.8818,3.8663,3.8307,3.723,3.6157,3.5238,3.7433,3.8716,3.8302,3.989,4.1264,4.2168,4.2223,4.2603,4.3407,4.3459,4.3601,4.3869,4.3869,4.392,4.402,4.392,4.392,4.4001,4.3383,4.2735,4.2118,4.2003,4.1942,4.1886,4.1062,4.0721,4.0645,4.0089,4.0003,4.0186,3.9944,3.9853,3.9853,0.0,0.0,0.0,0.0,0.0,0.0,0.0,0.0,0.0,0.0,0.0,0.0,0.0,0.0,0.0,0.0,0.0,0.0,0.0,3.2955,3.5192,3.6996,3.7883,3.8758,3.9622,3.9642,4.0011,4.0793,4.0731,4.0697,4.0686,0.0,0.0,0.0,0.0,0.0,0.0,0.0,0.0,0.0,0.0,0.0,3.9576,3.9576,3.7925,3.5529,3.5142,0.0,0.0,0.0,3.3091,3.4637,3.2339,3.3183,0.0,3.3151,3.2118,0.0,0.0,0.0,3.3482,3.6703,3.7529,3.7749,3.8524,3.8707,3.8707,3.8707,3.8707,3.8707,3.8707,3.8689,3.867,3.8707,3.8689,3.8752,3.9063,3.9085,3.8613,3.7307,3.7115,3.5797,0.0,3.4754,3.7473,4.0016,4.0286,4.083,4.1939,4.2021,4.2021,4.2052,4.2052,4.2071,4.2084,4.2084,4.2236,4.2567,4.2236,4.2248,4.2567,4.2529,4.251,4.2474,4.1996,4.1811,4.1734,4.0877,4.0511,4.0511,4.0473,4.0481,4.0489,4.0481,4.0473,4.0473,0.0,0.0,0.0,0.0,0.0,0.0,0.0,0.0,0.0,0.0,0.0,0.0,0.0,0.0,0.0,0.0,0.0,0.0,0.0,3.0852,3.3028,3.5305,3.6842,3.8047,3.8926,3.8945,3.9304,4.0064,4.0058,4.0267,4.0697,0.0,0.0,0.0,0.0,0.0,0.0,0.0,0.0,0.0,0.0,0.0,3.9486,3.8358,3.7009,3.533,0.0,0.0,0.0,0.0,2.9916,3.1085,3.1475,0.0,0.0,2.9732,3.1265,3.3386,0.0,0.0,3.6054,3.7685,3.8496,3.8964,3.9232,3.9307,3.9307,3.9307,3.8694,3.8178,3.8178,3.7724,3.7558,3.8072,3.7862,3.8072,3.9251,3.7981,3.7373,3.8603,3.6823,0.0,0.0,0.0,0.0,3.661,3.8594,4.024,4.1154,4.1192,4.1546,4.2302,4.2332,4.2468,4.2728,4.2738,4.2795,4.2907,4.2776,4.2489,4.2035,4.2035,4.1717,4.117,4.1014,4.0931,4.0912,4.0631,4.0496,4.0496,4.0496,4.0496,4.0496,4.0496,4.0496,4.0496,0.0,0.0,0.0,0.0,0.0,0.0,0.0,0.0,0.0,0.0,0.0,0.0,0.0,0.0,0.0,0.0,0.0,0.0,0.0,0.0,3.0927,3.3188,3.4392,3.543,3.6289,3.6894,3.7596,3.838,3.8953,3.9607,4.0305,0.0,0.0,0.0,0.0,0.0,0.0,0.0,0.0,0.0,0.0,0.0,3.8666,3.7009,3.5484,0.0,0.0,0.0,0.0,0.0,0.0,0.0,0.0,2.928,2.8957,2.9669,3.1632,3.3695,0.0,3.5848,3.7465,3.8565,3.9214,3.9599,3.9599,3.9599,3.9599,3.9599,3.9012,3.8415,3.8103,3.7623,3.7442,3.7972,3.776,3.8071,3.9575,3.8372,3.7759,3.8896,3.7158,0.0,0.0,0.0,0.0,3.5789,3.7673,3.9126,3.9768,3.9798,4.0422,4.1743,4.1791,4.1912,4.2162,4.2162,4.2162,4.2162,4.2162,4.1873,4.1335,4.1335,4.07,3.9631,4.0301,4.0234,3.9713,4.033,4.0581,4.0574,4.0519,4.0496,4.0496,4.0496,4.0496,4.0496,0.0,0.0,0.0,0.0,0.0,0.0,0.0,0.0,0.0,0.0,0.0,0.0,0.0,0.0,0.0,0.0,0.0,0.0,0.0,0.0,0.0,3.0684,3.0859,3.1289,3.2129,3.3691,3.4922,3.5801,3.7326,3.8483,3.9268,3.915,0.0,0.0,0.0,0.0,0.0,0.0,0.0,0.0,0.0,0.0,3.7194,3.5579,0.0,0.0,0.0,0.0,0.0,0.0,0.0,0.0,0.0,0.0,2.9404,3.2588,3.3033,3.3148,3.6249,3.7224,3.7734,3.926,3.9645,3.9645,3.9645,3.9645,3.9626,3.9532,3.9464,3.9158,0.0,0.0,3.8116,3.823,3.8241,3.8626,3.9833,3.9948,3.9459,0.0,0.0,0.0,0.0,0.0,0.0,3.7563,0.0,3.7785,3.8115,3.8123,3.8854,4.0458,4.0496,4.0496,4.0496,4.0496,4.0496,4.0496,4.0496,4.0496,4.0496,4.0504,3.9646,3.8229,3.9966,3.981,3.8465,4.0056,4.0709,4.0697,4.0574,4.0527,4.0527,4.0527,4.0527,4.0527,0.0,0.0,0.0,0.0,0.0,0.0,0.0,0.0,0.0,0.0,0.0,0.0,0.0,0.0,0.0,0.0,0.0,0.0,0.0,0.0,0.0,0.0,0.0,0.0,0.0,0.0,0.0,0.0,0.0,3.4134,3.4824,3.4796,0.0,0.0,0.0,0.0,0.0,0.0,0.0,0.0,0.0,0.0,3.5325,0.0,0.0,0.0,0.0,0.0,0.0,0.0,0.0,0.0,0.0,0.0,3.2466,3.254,3.429,3.6136,3.5747,3.7606,3.9766,4.0179,4.0266,4.0266,4.0266,4.0266,3.9921,3.8667,3.7734,3.6901,0.0,0.0,0.0,3.7481,3.7408,0.0,3.8396,3.7982,0.0,0.0,0.0,3.8315,3.9142,3.9611,0.0,0.0,3.9026,3.9761,3.9854,3.9861,4.0054,4.0496,4.0496,4.0496,4.0496,4.0496,4.0496,4.0496,4.0496,4.0496,4.0504,4.0603,4.0423,4.003,4.0548,4.0526,4.0177,4.06,4.0775,4.077,4.0743,4.0728,4.0728,4.0728,4.0728,4.0728,0.0,0.0,0.0,0.0,0.0,0.0,0.0,0.0,0.0,0.0,0.0,0.0,0.0,0.0,0.0,0.0,0.0,0.0,0.0,0.0,0.0,0.0,0.0,0.0,0.0,0.0,0.0,0.0,0.0,0.0,0.0,3.2593,0.0,0.0,0.0,0.0,0.0,0.0,0.0,0.0,0.0,0.0,0.0,0.0,0.0,0.0,0.0,0.0,0.0,0.0,0.0,3.1172,3.4324,3.4961,3.4715,3.5594,0.0,3.7734,3.7523,3.8938,4.0496,4.0496,4.0496,4.0304,3.9573,3.94,3.8931,3.7257,3.6381,0.0,0.0,0.0,0.0,0.0,0.0,0.0,3.793,3.7584,3.745,0.0,3.8007,0.0,4.0342,4.0496,4.0112,0.0,3.9277,3.94,3.94,3.94,3.9746,4.0477,4.0496,4.0496,4.0496,4.0496,4.0496,4.0496,4.0496,4.0496,4.0504,4.0643,4.0297,3.9655,0.0,4.0474,3.9856,4.0571,4.0899,4.0877,4.0816,4.0797,4.0797,4.0797,4.0797,4.0797,0.0,0.0,0.0,0.0,0.0,0.0,0.0,0.0,0.0,0.0,0.0,0.0,0.0,0.0,0.0,0.0,0.0,0.0,0.0,0.0,0.0,0.0,0.0,0.0,0.0,0.0,0.0,0.0,0.0,0.0,0.0,0.0,0.0,0.0,0.0,0.0,0.0,0.0,0.0,0.0,0.0,0.0,0.0,0.0,0.0,0.0,0.0,0.0,0.0,0.0,3.3523,3.25,3.6564,3.7081,3.6692,3.9381,3.9304,3.8604,3.9823,4.0323,4.0496,4.0496,4.0496,4.0131,3.8661,3.8161,3.7526,3.5846,0.0,0.0,3.5308,0.0,3.5885,3.7565,0.0,3.7834,3.7392,3.7815,3.8046,3.7719,3.7853,3.8661,4.0342,4.0304,4.0265,4.0477,3.9142,3.8334,3.8334,3.8334,3.8988,4.0458,4.0496,4.0496,4.0496,4.0496,4.0496,4.0496,4.0496,4.0496,4.0504,4.0649,3.9924,3.8631,0.0,0.0,3.8967,4.0423,4.1025,4.1002,4.0905,4.0857,4.0857,4.0857,4.0857,4.0857,0.0,0.0,0.0,0.0,0.0,0.0,0.0,0.0,0.0,0.0,0.0,0.0,0.0,0.0,0.0,0.0,0.0,0.0,0.0,0.0,0.0,0.0,0.0,0.0,0.0,0.0,0.0,0.0,0.0,0.0,0.0,0.0,0.0,0.0,0.0,0.0,0.0,0.0,0.0,0.0,0.0,0.0,0.0,0.0,0.0,0.0,0.0,0.0,0.0,0.0,3.4374,3.5054,3.8556,3.9635,3.9477,3.8661,3.92,3.9823,3.8719,3.9438,4.0496,4.0496,4.0496,4.0419,4.0131,3.8988,0.0,0.0,0.0,3.3564,3.4295,3.443,0.0,3.6661,0.0,0.0,0.0,0.0,3.8296,0.0,0.0,0.0,0.0,0.0,0.0,0.0,0.0,4.0073,4.0073,4.0073,4.0208,4.0496,4.0496,4.0496,4.0496,4.0496,4.0496,4.0496,4.0496,4.0496,4.0512,4.0701,4.0617,4.0377,4.0935,0.0,4.0741,4.1054,4.1171,4.1151,4.1149,4.1128,4.1128,4.1128,4.1128,4.1128,0.0,0.0,0.0,0.0,0.0,0.0,0.0,0.0,0.0,0.0,0.0,0.0,0.0,0.0,0.0,0.0,0.0,0.0,0.0,0.0,0.0,0.0,0.0,0.0,0.0,0.0,0.0,0.0,0.0,0.0,0.0,0.0,0.0,0.0,0.0,0.0,0.0,0.0,0.0,0.0,0.0,0.0,0.0,0.0,0.0,0.0,0.0,0.0,0.0,0.0,3.3325,3.43,3.8312,3.9913,3.9951,3.8238,3.9057,4.0131,3.845,3.9219,4.0496,4.0496,4.0496,4.0035,3.8296,0.0,0.0,0.0,0.0,3.1872,3.2737,0.0,0.0,0.0,0.0,0.0,0.0,0.0,0.0,0.0,0.0,0.0,0.0,0.0,0.0,0.0,0.0,3.9592,4.0458,4.0496,4.0496,4.0496,4.0496,4.0496,4.0496,4.0496,4.0496,4.0496,4.0574,4.0603,4.0616,4.0805,4.0908,4.0917,4.1106,0.0,3.9922,4.082,4.0664,3.9941,4.0859,4.1191,4.1191,4.1191,4.1191,4.1191,0.0,0.0,0.0,0.0,0.0,0.0,0.0,0.0,0.0,0.0,0.0,0.0,0.0,0.0,0.0,0.0,0.0,0.0,0.0,0.0,0.0,0.0,0.0,0.0,0.0,0.0,0.0,0.0,0.0,0.0,0.0,0.0,0.0,0.0,0.0,0.0,0.0,0.0,0.0,0.0,0.0,0.0,0.0,0.0,0.0,0.0,0.0,0.0,0.0,0.0,3.2051,3.2882,3.6814,3.8509,3.8832,3.7885,3.872,3.9765,3.8796,3.9496,4.0496,4.0496,4.0496,3.9727,3.6719,3.575,0.0,0.0,0.0,3.0712,3.1756,0.0,0.0,0.0,0.0,0.0,0.0,0.0,0.0,0.0,0.0,0.0,0.0,0.0,0.0,0.0,0.0,0.0,4.0439,4.0496,4.0496,4.0496,4.0496,4.0496,4.0496,4.0496,4.0496,4.0496,4.0643,4.0697,4.0709,4.0912,4.0996,4.1017,4.1149,0.0,0.0,4.0488,4.0176,3.8769,4.0527,4.1191,4.1191,4.1191,4.1191,4.1191,0.0,0.0,0.0,0.0,0.0,0.0,0.0,0.0,0.0,0.0,0.0,0.0,0.0,0.0,0.0,0.0,0.0,0.0,0.0,0.0,0.0,0.0,0.0,0.0,0.0,0.0,0.0,0.0,0.0,0.0,0.0,0.0,0.0,0.0,0.0,0.0,0.0,0.0,0.0,0.0,0.0,0.0,0.0,0.0,0.0,0.0,0.0,0.0,0.0,0.0,0.0,3.2419,3.4104,3.5068,3.5859,3.7471,0.0,0.0,3.99,4.0381,4.0496,4.0496,4.0496,4.0015,3.818,0.0,0.0,0.0,3.1462,3.0885,3.2487,3.2795,0.0,0.0,0.0,0.0,0.0,0.0,0.0,0.0,0.0,0.0,0.0,0.0,0.0,0.0,0.0,0.0,4.0496,4.0496,4.0496,4.0496,4.0496,4.0496,4.0496,4.0496,4.0496,4.0496,4.0643,4.0697,4.0709,4.0912,4.0996,4.1017,4.1149,0.0,0.0,4.0488,4.0176,3.8769,4.0527,4.1191,4.1191,4.1191,4.1191,4.1191,0.0,0.0,0.0,0.0,0.0,0.0,0.0,0.0,0.0,0.0,0.0,0.0,0.0,0.0,0.0,0.0,0.0,0.0,0.0,0.0,0.0,0.0,0.0,0.0,0.0,0.0,0.0,0.0,0.0,0.0,0.0,0.0,0.0,0.0,0.0,0.0,0.0,0.0,0.0,0.0,0.0,0.0,0.0,0.0,0.0,0.0,0.0,0.0,0.0,0.0,0.0,0.0,3.1412,3.1747,0.0,0.0,3.6251,3.793,3.7584,3.895,4.0496,4.0496,4.0496,3.9804,3.7103,0.0,0.0,3.1962,3.0865,3.0596,3.1269,3.1404,3.1942,0.0,0.0,0.0,0.0,0.0,0.0,0.0,0.0,0.0,0.0,0.0,0.0,0.0,0.0,0.0,4.0458,4.0496,4.0496,4.0496,4.0496,4.0496,4.0496,4.0496,4.0496,4.0496,4.0682,4.0767,4.0776,4.1014,4.1126,4.1127,4.1171,0.0,0.0,3.9824,3.9258,3.6582,3.9902,4.1191,4.1191,4.1191,4.1191,4.1191,0.0,0.0,0.0,0.0,0.0,0.0,0.0,0.0,0.0,0.0,0.0,0.0,0.0,0.0,0.0,0.0,0.0,0.0,0.0,0.0,0.0,0.0,0.0,0.0,0.0,0.0,0.0,0.0,0.0,0.0,0.0,0.0,0.0,0.0,0.0,0.0,0.0,0.0,0.0,0.0,0.0,0.0,0.0,0.0,0.0,0.0,0.0,0.0,0.0,0.0,0.0,0.0,0.0,0.0,0.0,0.0,3.481,3.7103,3.6423,3.8315,4.0496,4.0496,4.0131,3.9008,0.0,0.0,3.3904,3.1,3.0404,3.0404,3.0404,3.0404,3.0942,0.0,0.0,0.0,0.0,0.0,0.0,0.0,0.0,0.0,0.0,0.0,0.0,0.0,0.0,0.0,0.0,4.0496,4.0496,4.0496,4.0496,4.0496,4.0496,4.053,4.0559,4.0566,4.0761,4.0451,3.9731,4.0731,4.0781,4.0098,0.0,0.0,0.0,3.9726,3.9082,3.6211,3.9805,4.1191,4.1191,4.1191,4.1191,4.1191,0.0,0.0,0.0,0.0,0.0,0.0,0.0,0.0,0.0,0.0,0.0,0.0,0.0,0.0,0.0,0.0,0.0,0.0,0.0,0.0,0.0,0.0,0.0,0.0,0.0,0.0,0.0,0.0,0.0,0.0,0.0,0.0,0.0,0.0,0.0,0.0,0.0,0.0,0.0,0.0,0.0,0.0,0.0,0.0,0.0,0.0,0.0,0.0,0.0,0.0,0.0,0.0,0.0,0.0,0.0,0.0,3.4135,3.5885,3.7526,3.92,4.0496,4.0496,3.9238,3.7584,0.0,0.0,3.2449,3.075,3.0404,3.0404,3.0404,3.0404,3.0942,3.2622,0.0,0.0,0.0,0.0,0.0,0.0,0.0,0.0,0.0,0.0,0.0,0.0,0.0,0.0,0.0,4.0496,4.0496,4.0496,4.0496,4.0496,4.0496,4.0636,4.0697,4.0697,4.0909,3.9646,3.7223,3.9957,3.9785,0.0,0.0,0.0,0.0,4.0469,4.0156,3.873,4.0508,4.1191,4.1191,4.1191,4.1191,4.1191,0.0,0.0,0.0,0.0,0.0,0.0,0.0,0.0,0.0,0.0,0.0,0.0,0.0,0.0,0.0,0.0,0.0,0.0,0.0,0.0,0.0,0.0,0.0,0.0,0.0,0.0,0.0,0.0,0.0,0.0,0.0,0.0,0.0,0.0,0.0,0.0,0.0,0.0,0.0,0.0,0.0,0.0,0.0,0.0,0.0,0.0,0.0,0.0,0.0,0.0,0.0,0.0,0.0,0.0,0.0,3.0465,3.2035,0.0,3.4326,3.5776,3.7084,3.7084,3.6673,3.5846,3.4122,0.0,3.2429,3.075,3.0404,3.0404,3.0404,3.0404,3.0942,3.2622,3.2891,0.0,0.0,0.0,0.0,0.0,0.0,0.0,0.0,0.0,0.0,0.0,0.0,0.0,0.0,4.0496,4.0496,4.0496,4.0496,4.0496,4.0496,4.0636,4.0697,4.0703,4.0909,3.9626,3.7186,3.9957,0.0,0.0,0.0,0.0,0.0,4.0234,3.9824,3.7949,4.0293,4.1191,4.1191,4.1191,4.1191,4.1191,0.0,0.0,0.0,0.0,0.0,0.0,0.0,0.0,0.0,0.0,0.0,0.0,0.0,0.0,0.0,0.0,0.0,0.0,0.0,0.0,0.0,0.0,0.0,0.0,0.0,0.0,0.0,0.0,0.0,0.0,0.0,0.0,0.0,0.0,0.0,0.0,0.0,0.0,0.0,0.0,0.0,0.0,2.9005,0.0,0.0,0.0,0.0,0.0,0.0,0.0,0.0,0.0,0.0,0.0,0.0,0.0,3.0431,3.1596,0.0,3.4113,3.55,3.55,3.5,0.0,0.0,0.0,3.1654,3.0615,3.0904,3.1154,3.0519,3.0923,3.1481,3.1891,3.3295,0.0,0.0,0.0,0.0,0.0,0.0,0.0,0.0,0.0,0.0,0.0,0.0,0.0,0.0,4.0496,4.0496,4.0496,4.0496,4.0496,4.0496,4.0636,4.0707,4.0747,4.0925,3.9657,3.7269,3.9979,0.0,0.0,0.0,0.0,0.0,4.0527,4.0234,3.8926,4.0566,4.1191,4.1191,4.1191,4.1191,4.1191,0.0,0.0,0.0,0.0,0.0,0.0,0.0,0.0,0.0,0.0,0.0,0.0,0.0,0.0,0.0,0.0,0.0,0.0,0.0,0.0,0.0,0.0,0.0,0.0,0.0,0.0,0.0,2.5508,2.631,2.6697,2.6715,0.0,0.0,0.0,0.0,0.0,0.0,0.0,0.0,0.0,0.0,0.0,0.0,0.0,0.0,0.0,0.0,0.0,0.0,0.0,0.0,0.0,0.0,0.0,0.0,0.0,0.0,0.0,0.0,0.0,0.0,0.0,0.0,0.0,0.0,0.0,0.0,0.0,3.1814,3.2429,3.0865,3.2006,3.2622,3.0942,3.4115,0.0,0.0,0.0,0.0,0.0,0.0,0.0,0.0,0.0,0.0,0.0,0.0,0.0,0.0,4.0496,4.0496,4.0496,4.0496,4.0496,4.0496,4.063,4.0645,4.0525,4.0855,3.9614,3.7129,3.9922,0.0,0.0,0.0,0.0,0.0,4.1191,4.1191,4.1191,4.1191,4.1191,4.1191,4.1191,4.1191,4.1191,0.0,0.0,0.0,0.0,0.0,0.0,0.0,0.0,0.0,0.0,0.0,0.0,0.0,0.0,0.0,0.0,0.0,0.0,0.0,0.0,0.0,0.0,0.0,0.0,0.0,0.0,0.0,2.5572,2.6323,2.6715,2.6715,2.6886,0.0,0.0,0.0,0.0,0.0,0.0,0.0,0.0,0.0,0.0,0.0,0.0,0.0,0.0,2.9005,2.9005,0.0,0.0,0.0,0.0,0.0,0.0,0.0,0.0,2.9235,2.9538,3.0194,0.0,3.1336,3.1546,0.0,0.0,0.0,0.0,0.0,0.0,0.0,0.0,0.0,0.0,3.5257,3.3583,0.0,0.0,0.0,0.0,0.0,0.0,0.0,0.0,0.0,0.0,0.0,0.0,0.0,0.0,0.0,4.0496,4.0496,4.0496,4.0496,4.0496,4.0496,4.0685,3.9812,3.7918,4.0111,3.8749,3.4473,3.9101,0.0,0.0,0.0,0.0,4.1191,4.1191,4.1191,4.1191,4.1191,4.1191,4.1191,4.1191,4.1191,4.1191,0.0,0.0,0.0,0.0,0.0,0.0,0.0,0.0,0.0,0.0,0.0,0.0,0.0,0.0,0.0,0.0,0.0,0.0,0.0,0.0,0.0,0.0,0.0,0.0,0.0,0.0,0.0,0.0,0.0,2.6691,0.0,0.0,0.0,0.0,0.0,0.0,0.0,0.0,0.0,0.0,2.8407,0.0,0.0,0.0,0.0,0.0,2.9005,2.9005,0.0,2.9005,2.9005,2.9005,0.0,0.0,0.0,0.0,2.91,2.9267,2.9504,2.9506,2.9789,3.1194,3.0679,3.0121,0.0,0.0,0.0,0.0,0.0,0.0,0.0,0.0,0.0,0.0,0.0,0.0,0.0,0.0,0.0,0.0,0.0,0.0,0.0,0.0,0.0,0.0,0.0,0.0,0.0,4.0496,4.0496,4.0496,4.0496,4.0496,4.0496,4.0617,3.9432,3.7036,3.9741,3.897,3.5332,3.9355,4.043,0.0,0.0,0.0,4.1113,3.9902,4.0117,4.1191,4.1191,4.1191,4.1191,4.1191,4.1191,4.1191,0.0,0.0,0.0,0.0,0.0,0.0,0.0,0.0,0.0,0.0,0.0,0.0,0.0,0.0,0.0,0.0,0.0,0.0,0.0,0.0,0.0,0.0,0.0,0.0,0.0,0.0,0.0,0.0,0.0,0.0,0.0,0.0,0.0,0.0,0.0,0.0,0.0,0.0,0.0,0.0,2.8311,0.0,0.0,0.0,0.0,0.0,0.0,0.0,0.0,2.9005,2.9005,2.9005,2.9005,0.0,0.0,0.0,0.0,0.0,2.9363,2.9112,2.9403,3.216,3.1065,2.9929,0.0,0.0,0.0,0.0,0.0,0.0,0.0,0.0,0.0,0.0,0.0,0.0,0.0,0.0,0.0,0.0,0.0,0.0,0.0,0.0,0.0,0.0,0.0,0.0,0.0,4.0496,4.0496,4.0496,4.0496,4.0496,4.0496,4.0527,3.9335,3.7003,3.9591,3.9585,3.7362,4.0,4.1191,0.0,0.0,0.0,4.1035,3.8809,3.9199,4.1191,4.1191,4.1191,4.1191,4.1191,4.1191,4.1191,0.0,0.0,0.0,0.0,0.0,0.0,0.0,0.0,0.0,0.0,0.0,0.0,0.0,0.0,0.0,0.0,0.0,0.0,0.0,0.0,0.0,0.0,0.0,0.0,0.0,0.0,0.0,0.0,0.0,0.0,2.6691,2.6691,2.6691,0.0,0.0,0.0,0.0,0.0,0.0,0.0,0.0,0.0,0.0,0.0,0.0,0.0,0.0,0.0,0.0,2.9005,2.9005,2.9005,2.9005,0.0,0.0,0.0,0.0,0.0,2.9523,2.9074,2.9134,3.1955,3.1404,3.0673,0.0,0.0,0.0,0.0,0.0,0.0,0.0,0.0,0.0,0.0,0.0,0.0,0.0,0.0,0.0,0.0,0.0,0.0,0.0,0.0,0.0,0.0,0.0,0.0,0.0,4.0496,4.0496,4.0496,4.0496,4.0496,4.0496,4.061,3.9385,3.6856,3.965,3.9622,3.7216,3.9958,4.1191,0.0,0.0,4.082,4.1172,4.0762,4.084,4.1191,4.1191,4.1191,4.1191,4.1191,4.1191,4.1191,0.0,0.0,0.0,0.0,0.0,0.0,0.0,0.0,0.0,0.0,0.0,0.0,0.0,0.0,0.0,0.0,0.0,0.0,0.0,0.0,0.0,0.0,0.0,0.0,0.0,0.0,0.0,0.0,0.0,2.6691,2.6691,2.6691,2.6691,2.6691,0.0,0.0,0.0,0.0,0.0,0.0,0.0,0.0,0.0,0.0,0.0,0.0,0.0,0.0,0.0,0.0,2.9005,2.9005,2.9005,0.0,0.0,0.0,0.0,0.0,2.9445,2.9316,2.9878,3.3135,3.1806,0.0,0.0,0.0,0.0,0.0,0.0,0.0,0.0,0.0,0.0,0.0,0.0,0.0,0.0,0.0,0.0,0.0,0.0,0.0,0.0,0.0,0.0,0.0,0.0,0.0,0.0,0.0,4.0496,4.0496,4.0496,4.0496,4.0496,4.0566,3.9329,3.6835,3.9534,3.9529,3.7184,3.9864,4.1128,4.1113,0.0,3.9883,4.1094,3.9687,3.9922,4.1191,4.1191,4.1191,4.1191,4.1191,4.1191,4.1191,0.0,0.0,0.0,0.0,0.0,0.0,0.0,0.0,0.0,0.0,0.0,0.0,0.0,0.0,0.0,0.0,0.0,0.0,0.0,0.0,0.0,0.0,0.0,0.0,0.0,0.0,2.6539,2.6539,2.6657,2.6691,2.6691,2.6691,2.6691,0.0,0.0,0.0,0.0,0.0,0.0,0.0,0.0,0.0,0.0,0.0,0.0,0.0,0.0,0.0,0.0,0.0,0.0,0.0,0.0,0.0,0.0,2.9005,2.9033,2.9156,2.9404,2.9757,3.0842,3.4085,0.0,0.0,0.0,0.0,0.0,0.0,0.0,0.0,0.0,0.0,0.0,0.0,0.0,0.0,0.0,0.0,0.0,0.0,0.0,0.0,0.0,0.0,0.0,0.0,0.0,0.0,0.0,0.0,4.0496,4.0496,4.0496,4.0496,4.0496,4.0496,3.954,3.7681,3.9733,3.9733,3.8015,4.0028,4.1019,4.0987,3.8995,3.9271,4.0994,3.8982,3.9355,4.1191,4.1191,4.1191,4.1191,4.1191,4.1191,4.1191,0.0,0.0,0.0,0.0,0.0,0.0,0.0,0.0,0.0,0.0,0.0,0.0,0.0,0.0,0.0,0.0,0.0,0.0,0.0,0.0,0.0,0.0,0.0,0.0,0.0,2.5781,2.6049,2.6049,2.6504,2.6691,2.6691,2.6691,2.6691,2.6691,0.0,0.0,0.0,0.0,0.0,2.8368,0.0,0.0,0.0,0.0,0.0,0.0,0.0,0.0,0.0,0.0,0.0,0.0,0.0,0.0,2.9005,2.9005,2.9178,2.9414,2.9616,3.0425,3.1672,3.3742,0.0,0.0,0.0,0.0,0.0,0.0,0.0,0.0,0.0,0.0,0.0,0.0,0.0,0.0,0.0,0.0,0.0,0.0,0.0,0.0,0.0,0.0,0.0,0.0,0.0,0.0,0.0,0.0,0.0,4.0496,4.0496,4.0496,4.0496,4.0496,4.04,4.0242,4.0546,4.0612,4.0441,4.0706,4.0813,4.082,4.0625,4.073,4.1002,4.0806,4.0925,4.1191,4.1191,4.1191,4.1191,4.1191,4.1191,4.1191,0.0,0.0,0.0,0.0,0.0,0.0,0.0,0.0,0.0,0.0,0.0,0.0,0.0,0.0,0.0,0.0,0.0,0.0,0.0,0.0,0.0,0.0,0.0,2.422,2.422,2.5672,2.6453,2.6453,2.6607,2.6691,2.6691,2.6691,0.0,0.0,0.0,0.0,0.0,0.0,0.0,2.8102,2.8329,2.8645,0.0,0.0,0.0,0.0,0.0,0.0,0.0,0.0,2.9005,2.9005,2.9005,2.9005,2.9021,2.9192,2.932,2.9483,2.9796,3.0175,3.1343,3.487,0.0,0.0,0.0,0.0,0.0,0.0,0.0,0.0,0.0,0.0,0.0,0.0,0.0,0.0,0.0,0.0,0.0,0.0,0.0,0.0,0.0,0.0,0.0,0.0,0.0,0.0,0.0,0.0,0.0,4.0496,4.0496,4.0496,4.0496,4.0496,4.0496,4.0496,4.0552,4.0623,4.0697,4.074,4.0767,4.0797,4.0797,4.082,4.0874,4.0874,4.0957,4.1081,4.1171,4.1191,4.1191,4.1191,4.1191,4.1191,0.0,0.0,0.0,0.0,0.0,0.0,0.0,0.0,0.0,0.0,0.0,0.0,0.0,0.0,0.0,0.0,0.0,0.0,0.0,0.0,0.0,0.0,0.0,2.3858,2.3858,2.5582,2.6401,2.6245,2.6539,2.6691,2.6691,0.0,0.0,0.0,0.0,0.0,0.0,0.0,0.0,2.8075,2.8316,2.8645,0.0,0.0,0.0,0.0,0.0,0.0,0.0,0.0,2.9005,2.8998,2.91,2.9134,2.9171,2.9415,2.9551,2.9643,2.9931,3.045,3.1778,0.0,0.0,0.0,0.0,0.0,0.0,0.0,0.0,0.0,0.0,0.0,0.0,0.0,0.0,0.0,0.0,0.0,0.0,0.0,0.0,0.0,0.0,0.0,0.0,0.0,0.0,0.0,0.0,0.0,0.0,0.0,4.0496,4.0496,4.0496,4.0496,4.0496,4.0496,4.0496,4.0545,4.0643,4.0643,4.0666,4.0708,4.0708,4.0728,4.0766,4.0766,4.0832,4.0955,4.1081,4.1148,4.1149,4.1172,4.1191,4.1191,0.0,0.0,0.0,0.0,0.0,0.0,0.0,0.0,0.0,0.0,0.0,0.0,0.0,0.0,0.0,0.0,0.0,0.0,0.0,0.0,0.0,0.0,0.0,2.4389,2.441,2.5449,2.5744,2.5221,2.6211,2.6691,2.6691,2.6691,0.0,0.0,0.0,0.0,0.0,0.0,2.7718,2.8376,2.8376,2.8627,2.8957,0.0,0.0,0.0,0.0,0.0,0.0,0.0,2.9005,2.9044,2.932,2.9402,2.9425,2.9653,2.9845,2.9987,3.0025,3.1416,0.0,0.0,0.0,0.0,0.0,0.0,0.0,0.0,0.0,0.0,0.0,0.0,0.0,0.0,0.0,0.0,0.0,0.0,0.0,0.0,0.0,0.0,0.0,0.0,0.0,0.0,0.0,0.0,0.0,0.0,0.0,0.0,4.0496,4.0496,4.0496,4.0496,4.0496,4.0496,4.0496,4.0496,4.0496,4.0496,4.0496,4.0496,4.0496,4.0581,4.0697,4.0697,4.0747,4.0809,4.0952,4.0996,4.1021,4.115,4.1191,4.1191,0.0,0.0,0.0,0.0,0.0,0.0,0.0,0.0,0.0,0.0,0.0,0.0,0.0,0.0,0.0,0.0,0.0,0.0,0.0,0.0,0.0,0.0,0.0,0.0,0.0,0.0,2.6086,2.6263,2.6556,2.6691,0.0,0.0,0.0,2.6742,0.0,0.0,0.0,0.0,2.7852,2.6869,2.7124,2.7102,2.6986,0.0,0.0,0.0,0.0,0.0,0.0,0.0,0.0,0.0,2.9382,2.9073,2.9097,3.1138,3.051,2.9584,3.1513,3.1604,0.0,0.0,0.0,0.0,0.0,0.0,0.0,0.0,0.0,0.0,0.0,0.0,0.0,0.0,0.0,0.0,0.0,0.0,0.0,0.0,0.0,0.0,0.0,0.0,0.0,0.0,0.0,0.0,0.0,0.0,0.0,0.0,4.0496,4.0496,4.0496,4.0496,4.0496,4.0496,4.0496,4.0496,4.0496,4.0496,4.0496,4.0496,4.0496,4.0527,4.0574,4.0655,4.0707,4.0752,4.0933,4.0996,4.1021,4.115,4.1191,4.1191,0.0,0.0,0.0,0.0,0.0,0.0,0.0,0.0,0.0,0.0,1.7585,0.0,0.0,0.0,0.0,0.0,0.0,0.0,0.0,0.0,0.0,0.0,0.0,0.0,0.0,2.5559,2.6227,0.0,0.0,0.0,0.0,0.0,0.0,2.6725,0.0,2.7571,0.0,0.0,2.7366,2.6222,2.6571,2.6453,2.6144,0.0,0.0,0.0,0.0,0.0,0.0,0.0,0.0,0.0,2.9494,2.9774,3.0219,3.1002,3.084,3.0726,3.2058,0.0,0.0,0.0,0.0,0.0,0.0,0.0,0.0,0.0,0.0,0.0,0.0,0.0,0.0,0.0,0.0,0.0,0.0,0.0,0.0,0.0,0.0,0.0,0.0,0.0,0.0,0.0,0.0,0.0,0.0,0.0,0.0,0.0,4.0496,4.0496,4.0496,4.0496,4.0496,4.0496,4.0496,4.0496,4.0496,4.0496,4.0496,4.0496,4.0496,4.0496,4.0504,4.0602,4.0623,4.0636,4.0832,4.092,4.093,4.1128,4.1191,4.1191,0.0,0.0,0.0,0.0,0.0,0.0,0.0,0.0,0.0,0.0,1.7271,0.0,0.0,0.0,0.0,0.0,0.0,0.0,0.0,0.0,0.0,0.0,0.0,0.0,0.0,0.0,0.0,0.0,0.0,0.0,0.0,0.0,2.6691,2.6725,0.0,2.6843,0.0,2.686,2.6599,2.6162,2.6441,2.6307,2.5971,2.6326,0.0,0.0,0.0,0.0,0.0,0.0,0.0,0.0,2.9634,3.0902,3.1907,3.0009,3.1025,3.2679,0.0,0.0,0.0,0.0,0.0,0.0,0.0,0.0,0.0,0.0,0.0,0.0,0.0,0.0,0.0,0.0,0.0,0.0,0.0,0.0,0.0,0.0,0.0,0.0,0.0,0.0,0.0,0.0,0.0,0.0,0.0,0.0,0.0,4.0496,4.0496,4.0496,4.0496,4.0496,4.0496,0.0,4.0496,4.0496,4.0496,4.0496,4.0496,4.0496,4.0496,4.0496,4.0496,4.0496,4.0496,4.0515,4.0713,4.0785,4.0828,4.1099,4.1171,4.1172,0.0,0.0,0.0,0.0,0.0,0.0,0.0,0.0,0.0,0.0,0.0,0.0,0.0,0.0,0.0,0.0,0.0,0.0,0.0,0.0,0.0,0.0,0.0,0.0,0.0,0.0,0.0,0.0,0.0,0.0,0.0,0.0,0.0,2.6742,0.0,2.7842,2.6793,2.7994,2.7436,2.5716,2.5461,2.5094,2.4734,2.5113,2.5925,0.0,0.0,0.0,0.0,0.0,0.0,0.0,2.9687,2.9764,3.0157,3.1635,3.2025,3.2352,0.0,0.0,0.0,0.0,0.0,0.0,0.0,0.0,0.0,0.0,0.0,0.0,0.0,0.0,0.0,0.0,0.0,0.0,0.0,0.0,0.0,0.0,0.0,0.0,0.0,0.0,0.0,0.0,0.0,0.0,0.0,0.0,0.0,4.0496,4.0496,4.0496,4.0496,4.0496,4.0496,0.0,4.0496,4.0496,4.0496,4.0496,4.0496,4.0496,4.0496,4.0496,4.0496,4.0496,4.0496,4.0519,4.0654,4.0729,4.0742,4.0952,4.103,4.1054,0.0,0.0,0.0,0.0,0.0,0.0,0.0,0.0,0.0,0.0,0.0,0.0,0.0,0.0,0.0,0.0,0.0,0.0,0.0,0.0,0.0,0.0,0.0,0.0,0.0,0.0,0.0,0.0,0.0,0.0,0.0,0.0,0.0,2.6725,0.0,2.7435,2.6742,2.7571,2.6996,2.5607,2.5554,2.5255,2.4906,2.5285,2.615,2.7236,2.764,0.0,0.0,0.0,0.0,0.0,0.0,0.0,3.0275,2.9967,3.0756,3.1814,0.0,0.0,0.0,0.0,0.0,0.0,0.0,0.0,0.0,0.0,0.0,0.0,0.0,0.0,0.0,0.0,0.0,0.0,0.0,0.0,0.0,0.0,0.0,0.0,0.0,0.0,0.0,0.0,0.0,0.0,0.0,4.0496,4.0496,4.0496,4.0496,4.0496,4.0496,4.0496,4.0496,4.0496,4.0496,4.0496,4.0496,4.0496,4.0496,4.0496,4.0496,4.0496,4.0496,4.0496,4.0496,4.0512,4.0655,4.0724,4.0767,4.0942,4.1049,4.1104,0.0,0.0,0.0,0.0,0.0,0.0,0.0,0.0,0.0,0.0,0.0,0.0,0.0,0.0,0.0,0.0,0.0,0.0,0.0,0.0,0.0,0.0,0.0,0.0,0.0,0.0,0.0,0.0,0.0,0.0,0.0,0.0,0.0,2.7114,0.0,0.0,2.6691,2.6691,2.6353,2.5794,2.5942,2.5852,2.5641,2.5993,2.6795,2.7702,2.7776,2.8319,2.8968,2.8675,0.0,0.0,0.0,0.0,3.0487,2.7659,2.9025,3.1198,0.0,0.0,0.0,0.0,0.0,0.0,0.0,0.0,0.0,0.0,0.0,0.0,0.0,0.0,0.0,0.0,0.0,0.0,0.0,0.0,0.0,0.0,0.0,0.0,0.0,0.0,0.0,0.0,0.0,0.0,4.0496,4.0496,4.0496,4.0496,4.0496,4.0496,4.0496,4.0496,4.0496,4.0496,4.0496,4.0496,4.0496,4.0496,4.0496,4.0496,4.0496,4.0496,4.0496,4.0496,4.0496,4.0512,4.0623,4.0699,4.0779,4.0911,4.1048,4.1148,0.0,0.0,0.0,0.0,0.0,0.0,0.0,0.0,0.0,0.0,0.0,0.0,0.0,0.0,0.0,0.0,0.0,0.0,0.0,0.0,0.0,0.0,0.0,0.0,0.0,0.0,0.0,0.0,0.0,0.0,0.0,0.0,0.0,2.8688,0.0,0.0,0.0,2.6691,2.664,2.6505,2.5911,2.5808,2.6065,2.6519,2.6944,2.7327,2.7679,2.8319,2.8785,2.7391,2.7669,0.0,0.0,0.0,2.8313,2.7852,2.9083,3.0692,0.0,0.0,0.0,0.0,0.0,0.0,0.0,0.0,0.0,0.0,0.0,0.0,0.0,0.0,0.0,0.0,0.0,0.0,0.0,0.0,0.0,0.0,0.0,0.0,0.0,0.0,0.0,0.0,0.0,0.0,4.0496,4.0496,4.0496,4.0496,4.0496,4.0496,4.0496,4.0496,4.0496,4.0496,4.0496,4.0496,4.0496,4.0496,4.0496,4.0496,4.0496,4.0496,4.0496,4.0496,4.0496,4.0496,4.0527,4.053,4.0556,4.0766,4.0847,4.0899,0.0,0.0,0.0,0.0,0.0,0.0,0.0,0.0,0.0,0.0,0.0,0.0,0.0,0.0,0.0,0.0,0.0,0.0,0.0,0.0,0.0,0.0,0.0,0.0,0.0,0.0,0.0,0.0,0.0,0.0,0.0,3.0245,2.9788,0.0,0.0,0.0,0.0,0.0,0.0,2.6657,2.6353,2.6297,2.6506,2.7173,2.7466,2.7624,2.8244,2.8411,2.8301,2.8033,2.7845,2.766,2.7312,0.0,0.0,0.0,0.0,0.0,0.0,0.0,0.0,0.0,0.0,0.0,0.0,0.0,0.0,0.0,0.0,0.0,0.0,0.0,0.0,0.0,0.0,0.0,0.0,0.0,0.0,0.0,0.0,0.0,0.0,0.0,0.0,0.0,0.0,4.0496,4.0496,4.0496,4.0496,4.0496,4.0496,4.0496,4.0496,4.0496,4.0496,4.0496,4.0496,4.0496,4.0496,4.0496,4.0496,4.0496,4.0496,4.0496,4.0496,4.0496,4.0496,4.0496,4.0496,4.0545,4.061,4.071,4.0824,4.0922,0.0,0.0,0.0,0.0,0.0,0.0,0.0,0.0,0.0,0.0,0.0,0.0,0.0,0.0,0.0,0.0,0.0,0.0,0.0,0.0,0.0,0.0,0.0,0.0,0.0,0.0,0.0,0.0,0.0,0.0,3.0651,3.1021,3.0618,0.0,3.07,0.0,0.0,0.0,0.0,0.0,0.0,0.0,0.0,0.0,2.7618,2.7705,2.8212,2.8136,2.7835,2.8026,2.7687,2.7132,2.672,2.644,0.0,0.0,0.0,0.0,0.0,0.0,0.0,0.0,0.0,0.0,0.0,0.0,0.0,0.0,0.0,0.0,0.0,0.0,0.0,0.0,0.0,0.0,0.0,0.0,0.0,0.0,0.0,0.0,0.0,0.0,0.0,0.0,0.0,4.0496,4.0496,4.0496,4.0496,4.0496,4.0496,4.0496,4.0496,4.0496,4.0496,4.0496,4.0496,4.0496,4.0496,4.0496,4.0496,4.0496,4.0496,4.0496,4.0496,4.0496,4.0496,4.0496,4.0496,4.0566,4.0642,4.0686,4.0795,4.0931,0.0,0.0,0.0,0.0,0.0,0.0,0.0,0.0,0.0,0.0,0.0,0.0,0.0,0.0,0.0,1.9696,0.0,0.0,0.0,0.0,0.0,0.0,0.0,0.0,0.0,0.0,0.0,0.0,0.0,0.0,2.9145,3.055,3.1157,3.1089,3.1157,3.1106,3.0869,0.0,0.0,0.0,0.0,0.0,0.0,0.0,0.0,0.0,0.0,0.0,0.0,0.0,0.0,0.0,0.0,0.0,0.0,0.0,0.0,0.0,0.0,0.0,0.0,0.0,0.0,0.0,0.0,0.0,0.0,0.0,0.0,0.0,0.0,0.0,0.0,0.0,0.0,0.0,0.0,0.0,0.0,0.0,0.0,0.0,0.0,0.0,0.0,0.0,0.0,4.0496,4.0496,4.0496,4.0496,4.0496,4.0496,4.0496,4.0496,4.0496,4.0496,4.0496,4.0496,4.0496,4.0496,4.0496,4.0496,4.0496,4.0496,4.0496,4.0496,4.0496,4.0496,4.0496,4.0496,4.0504,4.0534,4.0642,4.0709,4.0745,0.0,0.0,0.0,0.0,0.0,0.0,0.0,0.0,0.0,0.0,0.0,0.0,0.0,1.8417,1.8644,1.9792,2.1005,0.0,0.0,0.0,0.0,0.0,0.0,0.0,0.0,0.0,0.0,0.0,0.0,2.7503,2.901,2.9551,3.0296,3.1275,3.3186,3.2459,2.989,3.1241,0.0,0.0,0.0,0.0,0.0,0.0,0.0,0.0,0.0,0.0,0.0,0.0,0.0,0.0,0.0,0.0,0.0,0.0,0.0,0.0,0.0,0.0,0.0,0.0,0.0,0.0,0.0,0.0,0.0,0.0,0.0,0.0,0.0,0.0,0.0,0.0,0.0,0.0,0.0,0.0,0.0,0.0,0.0,0.0,0.0,0.0,0.0,0.0,0.0,0.0,4.0419,3.895,3.8815,4.0458,4.0496,4.0496,4.0496,4.0496,4.0496,4.0496,4.0496,4.0496,4.0496,4.0496,4.0496,4.0496,4.0496,4.0496,4.0496,4.0496,4.0496,4.0496,4.0496,4.0496,4.0504,4.0552,4.066,4.077,0.0,0.0,0.0,0.0,0.0,0.0,0.0,0.0,0.0,0.0,0.0,0.0,0.0,0.0,1.9774,2.0745,2.2176,2.3182,2.3565,2.3595,0.0,0.0,0.0,0.0,0.0,0.0,0.0,0.0,0.0,0.0,0.0,2.8756,2.9517,3.0565,3.3034,3.2763,0.0,0.0,0.0,2.9076,0.0,0.0,2.7764,0.0,0.0,0.0,0.0,0.0,0.0,0.0,0.0,0.0,0.0,0.0,0.0,0.0,0.0,0.0,0.0,0.0,0.0,0.0,0.0,0.0,0.0,0.0,0.0,0.0,0.0,0.0,0.0,0.0,0.0,0.0,0.0,0.0,0.0,0.0,0.0,0.0,0.0,0.0,0.0,0.0,0.0,0.0,0.0,0.0,4.0419,3.8892,3.8757,4.0458,4.0496,4.0496,4.0496,4.0496,4.0496,4.0496,4.0496,4.0496,4.0496,4.0496,4.0496,4.0496,4.0496,4.0496,4.0496,4.0496,4.0496,4.0496,4.0496,4.0496,4.0496,4.0496,4.0578,4.0708,0.0,0.0,0.0,0.0,0.0,0.0,0.0,0.0,0.0,0.0,0.0,0.0,0.0,0.0,0.0,2.2649,2.3246,2.3595,2.3595,2.3595,0.0,0.0,0.0,0.0,0.0,0.0,0.0,0.0,0.0,0.0,0.0,0.0,2.8925,0.0,3.0482,3.1935,3.3288,0.0,3.3322,3.3102,0.0,3.1445,3.1478,0.0,0.0,0.0,3.1889,3.1629,0.0,0.0,0.0,0.0,0.0,0.0,0.0,0.0,0.0,0.0,0.0,0.0,0.0,0.0,0.0,0.0,0.0,0.0,0.0,0.0,0.0,0.0,0.0,0.0,0.0,0.0,0.0,0.0,0.0,0.0,0.0,0.0,0.0,0.0,0.0,0.0,0.0,0.0,0.0,4.0427,4.0496,4.0496,4.0496,4.0496,4.0496,4.0496,4.0496,4.0496,4.0496,4.0496,4.0496,4.0496,4.0496,4.0496,4.0496,4.0496,4.0496,4.0496,4.0496,4.0496,4.0496,4.0496,4.0496,4.0496,4.0496,4.0496,4.0496,4.0518,0.0,0.0,0.0,0.0,0.0,0.0,0.0,0.0,0.0,0.0,0.0,0.0,0.0,0.0,0.0,2.2672,2.3246,2.3595,2.3595,2.3595,2.3773,2.4158,2.4835,0.0,0.0,0.0,0.0,0.0,0.0,0.0,0.0,0.0,0.0,0.0,2.8942,2.9839,3.0364,3.2493,0.0,0.0,3.2814,3.1852,0.0,0.0,0.0,0.0,0.0,3.3183,0.0,0.0,3.2606,3.1356,0.0,0.0,0.0,0.0,0.0,0.0,2.7688,0.0,0.0,0.0,0.0,0.0,2.6491,2.8767,0.0,0.0,0.0,0.0,0.0,0.0,0.0,0.0,0.0,0.0,0.0,0.0,0.0,0.0,0.0,0.0,0.0,0.0,0.0,0.0,3.8941,3.8659,4.0408,4.0496,4.0496,4.0496,4.0496,4.0496,4.0496,4.0496,4.0496,4.0496,4.0496,4.0496,4.0496,4.0496,4.0496,4.0496,4.0496,4.0496,4.0496,4.0496,4.0496,4.0496,4.0496,4.0496,4.0496,4.0496,4.0566,4.0649,0.0,0.0,0.0,0.0,0.0,0.0,0.0,0.0,0.0,0.0,0.0,0.0,0.0,0.0,0.0,2.3076,2.3399,2.3595,2.3595,2.3815,2.4074,2.4389,2.5125,2.567,0.0,0.0,0.0,0.0,0.0,0.0,0.0,0.0,0.0,0.0,0.0,0.0,0.0,0.0,0.0,0.0,3.2611,0.0,0.0,3.3671,3.3669,0.0,0.0,0.0,3.4945,3.5624,3.4484,0.0,0.0,0.0,0.0,0.0,0.0,0.0,0.0,0.0,0.0,0.0,0.0,0.0,2.6707,2.8992,3.115,0.0,0.0,0.0,0.0,0.0,0.0,0.0,0.0,0.0,0.0,0.0,0.0,0.0,0.0,0.0,0.0,0.0,0.0,4.0742,3.9348,3.907,4.0427,4.0496,4.0496,4.0496,4.0496,4.0496,4.0496,4.0496,4.0496,4.0496,4.0496,4.0496,4.0496,4.0496,4.0496,4.0496,4.0496,4.0496,4.0496,4.0496,4.0496,4.0496,4.0496,4.0496,4.0496,4.0496,4.0545,4.063,0.0,0.0,0.0,0.0,0.0,0.0,0.0,0.0,0.0,0.0,0.0,0.0,0.0,0.0,0.0,0.0,2.3595,2.3595,2.3595,2.4095,0.0,2.4491,2.5449,2.6015,2.6085,0.0,0.0,0.0,0.0,0.0,0.0,0.0,0.0,0.0,0.0,0.0,0.0,0.0,0.0,3.2876,3.1853,3.2936,0.0,0.0,3.4889,0.0,3.7678,3.7661,3.6523,3.7955,3.6653,0.0,0.0,0.0,0.0,0.0,3.1327,0.0,0.0,0.0,0.0,0.0,0.0,0.0,2.7895,3.0398,3.2659,0.0,0.0,0.0,0.0,0.0,0.0,0.0,0.0,0.0,0.0,0.0,0.0,0.0,0.0,0.0,0.0,4.1023,4.0962,4.0824,4.0747,4.0667,4.0533,4.0523,4.0542,4.0518,4.0519,4.0504,4.0527,4.0504,4.0496,4.0496,4.0496,4.0496,4.0496,4.0496,4.0496,4.0496,4.0496,4.0496,4.0496,4.0496,4.0496,4.0496,4.0496,4.0496,4.0496,4.0496,4.0512,4.053,0.0,0.0,0.0,0.0,0.0,0.0,0.0,0.0,0.0,0.0,0.0,0.0,0.0,0.0,0.0,0.0,0.0,2.3595,0.0,0.0,2.4592,2.5028,2.5652,2.6191,2.6556,2.6657,0.0,0.0,0.0,0.0,0.0,0.0,0.0,0.0,0.0,0.0,0.0,0.0,0.0,3.0417,3.2244,0.0,3.285,3.5677,3.5366,3.3872,3.7424,3.7661,3.634,0.0,3.6383,3.5482,0.0,0.0,0.0,0.0,0.0,0.0,0.0,0.0,0.0,0.0,0.0,0.0,2.7271,2.7545,2.8487,0.0,0.0,0.0,0.0,0.0,0.0,0.0,0.0,0.0,0.0,0.0,0.0,0.0,0.0,0.0,0.0,4.1151,4.1104,4.0964,4.0847,4.0775,4.0733,4.0682,4.0696,4.0747,4.0578,4.0552,4.0649,4.0552,4.0496,4.0496,4.0496,4.0496,4.0496,4.0496,4.0496,4.0496,4.0496,4.0496,4.0496,4.0496,4.0496,4.0496,4.0496,4.0496,4.0496,4.0496,4.0574,4.0655,0.0,0.0,0.0,0.0,0.0,0.0,0.0,0.0,0.0,0.0,0.0,0.0,0.0,0.0,0.0,0.0,0.0,0.0,0.0,0.0,2.5047,2.5577,2.6086,2.6453,2.6691,2.6691,0.0,0.0,0.0,0.0,0.0,0.0,0.0,0.0,0.0,0.0,0.0,0.0,2.7692,2.9452,3.1732,0.0,3.3562,3.6452,3.6681,3.5778,3.793,3.8193,3.7367,3.656,3.6303,0.0,0.0,3.3005,3.1659,0.0,3.0328,2.9877,0.0,0.0,0.0,2.9809,0.0,0.0,0.0,2.7717,2.8321,2.9305,0.0,0.0,0.0,0.0,0.0,0.0,0.0,0.0,0.0,0.0,0.0,0.0,0.0,0.0,0.0,4.1191,4.1149,4.1019,4.0947,4.087,4.0801,4.0761,4.0776,4.0797,4.0703,4.0679,4.0747,4.0642,4.0596,4.0596,4.0523,4.0496,4.0496,4.0496,4.0496,4.0496,4.0496,4.0496,4.0496,4.0496,4.0496,4.0496,4.0496,4.0496,4.0496,4.0496,4.0575,4.0697,0.0,0.0,0.0,0.0,0.0,0.0,0.0,0.0,0.0,0.0,0.0,0.0,0.0,0.0,0.0,0.0,0.0,0.0,0.0,0.0,0.0,0.0,2.6453,2.6691,2.6691,2.6691,2.6691,0.0,0.0,0.0,0.0,0.0,0.0,0.0,0.0,0.0,0.0,0.0,0.0,2.9846,0.0,3.3106,3.4285,3.6809,3.7575,3.7444,3.8371,3.8707,3.845,3.6835,0.0,3.6229,3.5917,3.3923,0.0,0.0,0.0,0.0,0.0,0.0,0.0,0.0,0.0,2.8058,0.0,0.0,0.0,2.8712,0.0,0.0,0.0,0.0,0.0,0.0,0.0,0.0,0.0,0.0,0.0,0.0,0.0,0.0,0.0,4.0156,4.0603,4.1012,4.1049,4.0992,4.0877,4.0857,4.0857,4.0874,4.0839,4.0809,4.0847,4.0747,4.0697,4.0697,4.0566,4.0496,4.0496,4.0496,4.0496,4.0496,4.0496,4.0496,4.0496,4.0496,4.0496,4.0496,4.0496,4.0496,4.0496,4.0496,4.0596,4.0724,2.5202,2.5067,0.0,0.0,0.0,0.0,0.0,0.0,0.0,0.0,0.0,0.0,0.0,0.0,0.0,0.0,0.0,0.0,2.6174,0.0,0.0,0.0,0.0,0.0,2.6691,2.6691,2.6691,0.0,0.0,0.0,0.0,0.0,0.0,0.0,2.7472,0.0,0.0,0.0,3.0315,0.0,3.3898,3.3365,0.0,3.5834,3.6434,3.5542,3.7872,3.8707,3.845,0.0,3.6303,3.6046,0.0,3.286,0.0,0.0,0.0,0.0,0.0,0.0,0.0,0.0,2.9374,0.0,0.0,0.0,2.6713,2.6008,0.0,0.0,0.0,0.0,0.0,0.0,0.0,0.0,0.0,0.0,0.0,0.0,0.0,0.0,0.0,0.0,3.8691,4.0996,4.1171,4.1171,4.115,4.1049,4.1026,4.115,4.092,4.086,4.0986,4.0795,4.0697,4.0697,4.0566,4.0496,4.0496,4.0496,4.0496,4.0496,4.0496,4.0496,4.0496,4.0496,4.0496,4.0496,4.0496,4.0496,4.0496,4.0496,4.0616,4.08,0.0,2.575,0.0,0.0,0.0,0.0,0.0,0.0,0.0,0.0,0.0,0.0,0.0,0.0,0.0,0.0,0.0,3.0267,0.0,0.0,0.0,0.0,0.0,0.0,0.0,2.6691,2.6691,2.6691,2.6691,0.0,0.0,0.0,0.0,0.0,2.7837,0.0,3.0078,0.0,0.0,0.0,0.0,0.0,0.0,3.6414,3.7667,3.7132,3.7262,3.7918,3.823,0.0,3.5734,0.0,0.0,0.0,0.0,0.0,0.0,0.0,0.0,0.0,0.0,0.0,0.0,0.0,0.0,0.0,2.575,0.0,0.0,0.0,0.0,0.0,0.0,0.0,0.0,0.0,0.0,0.0,0.0,0.0,0.0,0.0,0.0,0.0,0.0,0.0,3.8945,3.8945,3.8945,4.0329,4.1149,4.1191,4.1082,4.1055,4.1126,4.0961,4.0863,4.0863,4.0747,4.066,4.066,4.066,4.066,4.066,4.066,4.0647,4.0623,4.0665,4.061,4.0519,4.0629,4.061,4.0512,4.0602,4.0685,4.0797,0.0,0.0,0.0,0.0,0.0,0.0,0.0,0.0,0.0,0.0,0.0,0.0,3.1185,3.0423,0.0,0.0,0.0,3.2658,0.0,0.0,3.1069,0.0,0.0,0.0,0.0,0.0,2.6691,2.6691,0.0,0.0,0.0,0.0,0.0,0.0,0.0,2.912,3.0672,0.0,0.0,3.2915,3.3318,3.36,3.4055,3.6821,3.8227,3.856,3.7386,3.7716,3.8193,3.4761,3.5587,0.0,3.4559,0.0,0.0,0.0,0.0,0.0,3.1982,0.0,0.0,0.0,0.0,0.0,0.0,0.0,0.0,0.0,0.0,0.0,0.0,0.0,0.0,0.0,0.0,0.0,0.0,0.0,0.0,0.0,0.0,0.0,0.0,0.0,0.0,3.6094,3.6894,3.7305,3.7305,3.9785,4.1191,4.1191,4.1191,4.1191,4.1191,4.1076,4.0996,4.0994,4.0864,4.0797,4.0797,4.0797,4.0797,4.0797,4.0797,4.077,4.0731,4.0784,4.0718,4.0604,4.0773,4.0743,4.0591,4.0682,4.0785,4.0857,2.8924,2.8906,0.0,0.0,0.0,0.0,0.0,0.0,0.0,0.0,0.0,0.0,0.0,0.0,0.0,0.0,0.0,3.4499,3.4423,0.0,3.2979,0.0,0.0,2.8145,0.0,0.0,0.0,0.0,0.0,0.0,0.0,0.0,0.0,0.0,0.0,2.9393,3.0258,3.2171,3.3903,3.5519,3.7085,3.8021,3.83,0.0,3.6999,3.8689,3.8652,0.0,0.0,3.6743,3.6266,0.0,0.0,0.0,0.0,0.0,0.0,0.0,0.0,0.0,0.0,3.1162,0.0,0.0,0.0,0.0,2.5077,0.0,0.0,0.0,0.0,0.0,0.0,0.0,0.0,0.0,0.0,0.0,0.0,0.0,0.0,0.0,0.0,0.0,0.0,3.3516,3.5879,3.7305,3.7305,3.9785,4.1191,4.1191,4.1191,4.1191,4.1191,4.1076,4.0996,4.0994,4.0864,4.0797,4.0797,4.0797,4.0797,4.0797,4.0797,4.0797,4.0793,4.0797,4.0793,4.0801,4.095,4.0911,4.0789,4.0793,4.0874,4.0992,0.0,0.0,0.0,0.0,0.0,0.0,0.0,3.1575,0.0,0.0,0.0,0.0,0.0,0.0,3.45,0.0,0.0,3.7244,3.6776,3.6518,0.0,0.0,0.0,3.0954,0.0,0.0,0.0,0.0,0.0,0.0,0.0,0.0,0.0,0.0,0.0,2.9734,0.0,0.0,0.0,0.0,0.0,3.6165,3.7151,0.0,0.0,3.8707,3.8707,3.8707,0.0,3.6178,3.6527,3.7606,3.5958,3.5459,3.5771,3.7404,3.5954,0.0,0.0,0.0,3.5514,3.46,0.0,0.0,0.0,0.0,0.0,0.0,0.0,0.0,0.0,0.0,0.0,0.0,0.0,0.0,0.0,0.0,0.0,0.0,0.0,0.0,0.0,0.0,0.0,3.0762,3.1699,3.2207,3.2207,3.6289,3.8613,3.8613,4.0293,4.1191,4.1191,4.115,4.1128,4.1128,4.1081,4.1056,4.1056,4.1056,4.1056,4.1056,4.1056,4.1002,4.095,4.1025,4.0959,4.0816,4.1051,4.1052,4.0925,4.0925,4.0959,4.1,3.276,0.0,0.0,0.0,0.0,0.0,0.0,0.0,0.0,0.0,3.4751,0.0,3.6912,0.0,3.6105,0.0,3.7494,3.8012,3.8642,3.7195,0.0,3.7557,3.4387,0.0,0.0,0.0,0.0,0.0,0.0,2.7516,0.0,0.0,0.0,0.0,0.0,0.0,0.0,0.0,3.396,0.0,0.0,3.5596,0.0,0.0,3.7921,3.8707,0.0,3.8707,3.8469,3.6839,3.7371,3.8432,3.682,3.6707,3.7367,3.8395,3.7202,3.5771,3.6853,3.728,0.0,3.6103,3.4506,0.0,3.1942,0.0,0.0,0.0,0.0,0.0,0.0,0.0,0.0,0.0,0.0,0.0,0.0,2.566,0.0,0.0,0.0,0.0,0.0,0.0,2.7402,2.8164,2.9062,2.9609,0.0,0.0,3.7305,3.7305,3.9844,4.1191,4.1191,4.1191,4.1191,4.1191,4.1191,4.1191,4.1191,4.1191,4.1191,4.1191,4.1191,4.115,4.1078,4.1151,4.1103,4.0959,4.1128,4.1149,4.1077,4.1077,4.1077,4.1081,0.0,0.0,0.0,0.0,3.2018,0.0,0.0,0.0,3.5785,0.0,3.7178,3.6411,3.7855,3.6715,3.6411,3.7736,3.6563,0.0,3.9757,3.6011,0.0,0.0,3.4252,3.2775,3.5292,0.0,0.0,0.0,0.0,0.0,0.0,0.0,0.0,0.0,2.9005,0.0,2.9207,3.243,3.3825,3.3917,3.4564,3.6307,3.8251,3.5903,3.6545,3.8707,3.8707,3.8707,3.8707,3.8707,3.8707,3.8707,3.8707,3.8707,3.8707,3.8707,3.8707,3.8707,3.8707,3.8707,3.8138,3.5775,0.0,0.0,0.0,0.0,3.1872,0.0,0.0,0.0,0.0,0.0,0.0,0.0,0.0,0.0,0.0,0.0,0.0,0.0,0.0,0.0,0.0,2.7949,2.8379,2.5898,2.8047,0.0,0.0,0.0,3.7129,3.7285,3.9629,4.0976,4.1191,4.1074,4.1074,4.1191,4.1191,4.1191,4.1191,4.1191,4.1191,4.1191,4.1191,4.1191,4.1191,4.1191,4.1191,4.1191,4.1191,4.1191,4.1191,4.1191,4.1191,4.1191,3.519,3.4906,3.4712,0.0,3.5095,3.5997,0.0,0.0,0.0,0.0,3.9445,3.9698,3.9546,3.9665,3.9039,3.7252,3.7719,0.0,0.0,0.0,0.0,3.9757,3.8007,3.6706,3.6135,3.4515,0.0,3.2501,0.0,0.0,3.0661,0.0,0.0,0.0,0.0,0.0,2.9207,3.243,3.4156,3.4546,3.2963,3.3788,0.0,0.0,3.6545,3.8707,3.8707,3.8707,3.8707,3.8707,3.8707,3.8707,3.8707,3.8707,3.8707,3.8707,3.8707,3.8707,3.8707,3.8707,3.856,3.7918,3.6362,3.4853,0.0,0.0,0.0,0.0,0.0,0.0,0.0,0.0,0.0,0.0,0.0,0.0,0.0,0.0,0.0,0.0,0.0,0.0,2.5762,2.6309,2.6426,2.5742,2.6914,0.0,0.0,0.0,0.0,3.7226,3.6699,3.793,4.1172,3.9277,3.9277,4.1191,4.1191,4.1191,4.1191,4.1191,4.1191,4.1191,4.1191,4.1191,4.1191,4.1191,4.1191,4.1191,4.1191,4.1191,4.1191,4.1191,4.1191,4.1191,3.6816,0.0,0.0,3.656,0.0,0.0,3.8468,0.0,0.0,4.1231,4.1209,0.0,4.0996,4.1372,4.0832,3.8779,3.8128,0.0,0.0,0.0,0.0,4.0734,3.9513,3.8229,3.7038,3.6111,0.0,3.3926,0.0,0.0,3.1798,0.0,0.0,0.0,0.0,2.9005,0.0,3.243,3.4486,3.5408,3.3678,0.0,0.0,3.5408,3.6545,3.8707,3.8707,3.8707,3.8707,3.8707,3.8707,3.8707,3.8707,3.8707,3.8707,3.8707,3.8707,3.8707,3.8707,3.8707,3.8707,3.8707,3.7646,3.6619,3.6619,3.5787,3.5126,0.0,0.0,0.0,0.0,0.0,0.0,0.0,0.0,0.0,0.0,0.0,0.0,0.0,2.7344,0.0,2.6387,2.5918,2.5859,2.623,0.0,0.0,0.0,0.0,0.0,3.5039,3.5937,3.7031,3.8359,3.6894,3.7285,3.9492,3.9492,4.0098,4.1191,4.1191,4.1191,4.1191,4.1191,4.1191,4.1191,4.1191,4.1191,4.1191,4.1191,4.1191,4.1191,4.1191,4.1191,4.1191,0.0,0.0,0.0,0.0,0.0,0.0,0.0,4.1092,0.0,4.4202,0.0,4.1835,4.2182,4.2345,4.2021,4.0972,0.0,3.8001,4.0688,3.7596,3.7496,4.1616,3.9962,3.8682,3.8131,3.7149,0.0,0.0,0.0,3.1938,3.3141,0.0,0.0,0.0,0.0,0.0,0.0,3.2284,3.4412,0.0,3.5298,3.6288,3.8028,3.6178,3.682,3.8707,3.8707,3.8707,3.8707,3.8707,3.8707,3.8707,3.8707,3.8707,3.8707,3.8707,3.8707,3.8707,3.8707,3.8707,3.8707,3.8707,3.8707,3.8707,3.8707,3.8719,3.8898,3.9481,3.9634,3.9157,0.0,0.0,0.0,0.0,0.0,0.0,0.0,0.0,0.0,0.0,0.0,0.0,2.7402,2.6484,2.6348,0.0,0.0,0.0,0.0,0.0,0.0,3.2734,3.5996,3.6934,3.5234,0.0,3.5625,3.7812,3.7461,3.8672,4.1191,4.1191,4.1191,4.1191,4.1191,4.1191,4.1191,4.1191,4.1191,4.1191,4.1191,4.1191,4.1191,4.1191,4.1191,4.1191,0.0,0.0,0.0,0.0,0.0,4.306,4.4748,4.561,4.5859,4.5234,4.5317,4.4788,4.3028,4.3394,4.2953,4.0909,4.0238,0.0,0.0,0.0,0.0,4.174,4.1442,4.078,3.9788,3.9589,3.9045,0.0,3.4883,3.3419,3.3607,3.0467,0.0,0.0,0.0,0.0,3.2871,3.1439,0.0,3.5206,3.5059,3.5261,3.583,3.7444,3.8322,3.8707,3.8707,3.8707,3.8707,3.8707,3.8707,3.8707,3.8707,3.8707,3.8707,3.8707,3.8707,3.8707,3.8707,3.8707,3.8707,3.8707,3.8707,3.8707,3.8707,3.8869,3.9144,3.9529,3.9819,3.9977,3.9853,0.0,0.0,0.0,0.0,0.0,0.0,0.0,0.0,0.0,0.0,0.0,0.0,0.0,0.0,0.0,0.0,0.0,0.0,0.0,0.0,0.0,3.4023,0.0,0.0,0.0,3.5957,4.0488,3.832,3.8672,4.1191,4.1191,4.1191,4.1191,4.1191,4.1191,4.1191,4.1191,4.1191,4.1191,4.1191,4.1191,4.1191,4.1191,4.1191,4.1191,0.0,0.0,0.0,0.0,0.0,0.0,0.0,4.6484,0.0,4.6524,4.67,4.6181,4.4252,4.4396,4.3841,4.191,4.094,4.0815,4.1676,4.1228,4.1431,4.2641,4.2678,0.0,3.9467,4.0248,3.9619,3.7459,3.5,3.3807,3.3733,3.0509,2.9005,0.0,0.0,3.1109,0.0,0.0,0.0,3.5752,3.6582,3.6912,3.7041,3.8248,3.8707,3.8707,3.8707,3.8707,3.8707,3.8707,3.8707,3.8707,3.8707,3.8707,3.8707,3.8707,3.8707,3.8707,3.8707,3.8707,3.8707,3.8707,3.8707,3.8707,3.8707,3.8803,3.9031,3.9505,3.9731,3.9574,3.8696,3.6526,0.0,0.0,0.0,0.0,0.0,0.0,0.0,0.0,0.0,0.0,0.0,0.0,0.0,0.0,0.0,0.0,0.0,0.0,0.0,0.0,0.0,0.0,0.0,0.0,0.0,3.916,3.7891,3.8672,4.1191,4.1191,4.1191,4.1191,4.1191,4.1191,4.1191,4.1191,4.1191,4.1191,4.1191,4.1191,4.1191,4.1191,4.1191,4.1191,0.0,4.0598,0.0,0.0,4.2176,0.0,4.4433,4.6526,4.7931,4.7638,4.7593,4.6995,4.5381,4.524,4.4551,4.2755,4.156,4.1325,4.2303,4.1881,4.2103,4.3185,4.3423,4.2231,3.9533,4.0526,3.9756,0.0,3.522,3.4156,3.3733,3.087,2.95,0.0,0.0,0.0,0.0,0.0,3.6486,3.6909,3.8193,3.8707,3.8707,3.8707,3.8707,3.8707,3.8762,3.8792,3.8788,3.8877,3.8807,3.8707,3.8707,3.8707,3.8707,3.8707,3.8707,3.8707,3.8707,3.8707,3.8707,3.8707,3.8707,3.8704,3.8777,3.8792,3.8956,3.9595,3.9746,3.9306,3.7786,3.7058,0.0,0.0,0.0,0.0,0.0,0.0,0.0,0.0,0.0,0.0,0.0,0.0,0.0,0.0,0.0,0.0,0.0,0.0,0.0,0.0,0.0,3.5293,3.498,0.0,3.5859,3.8125,3.7578,3.8672,4.1191,4.1191,4.1191,4.1191,4.1191,4.1191,4.1191,4.1191,4.1191,4.1191,4.1191,4.1191,4.1191,4.1191,4.1191,4.1191,0.0,0.0,0.0,0.0,0.0,0.0,0.0,4.748,4.7442,4.8119,4.8229,4.7606,4.5993,4.581,4.4875,4.253,4.286,4.264,4.1341,4.2526,4.302,4.2433,4.3112,4.302,4.1992,4.1389,4.0616,0.0,0.0,3.5293,3.3752,3.199,3.1182,0.0,0.0,0.0,0.0,3.6156,3.7147,3.8487,3.8652,3.8707,3.8707,3.8707,3.8707,3.8735,3.899,3.9058,3.9099,3.9408,3.9154,3.8707,3.8707,3.8707,3.8707,3.8707,3.8707,3.8707,3.8707,3.8707,3.8707,3.8707,3.8707,3.8762,3.9013,3.9058,3.9257,3.9912,4.025,4.0353,4.0181,3.8257,3.5865,0.0,0.0,0.0,0.0,0.0,0.0,0.0,0.0,0.0,0.0,3.0371,0.0,0.0,0.0,0.0,0.0,0.0,0.0,3.3359,0.0,3.4355,3.5859,3.5098,3.6758,4.0801,3.8437,3.8672,4.1191,4.1191,4.1191,4.1191,4.1191,4.1191,4.1191,4.1191,4.1191,4.1191,4.1191,4.1191,4.1191,4.1191,4.1191,4.1191,0.0,0.0,0.0,0.0,0.0,0.0,0.0,4.7609,4.8032,4.7627,4.7571,4.7168,4.6012,4.548,4.4599,4.3149,4.3296,4.3222,4.258,4.313,4.3368,4.302,4.3331,4.2892,4.1625,4.126,4.0471,0.0,0.0,0.0,3.3752,3.2149,3.1929,0.0,0.0,3.5661,3.6358,3.7331,3.812,3.8704,3.8884,3.8933,3.8961,3.9163,3.9242,3.9255,3.9358,3.9389,3.9414,3.9545,3.9432,3.9242,3.9242,3.9242,3.9242,3.9242,3.9242,3.9242,3.9242,3.9242,3.9242,3.9242,3.9242,3.9262,3.9383,3.9389,3.9541,4.0002,4.0321,4.0496,4.0496,3.9669,3.8142,0.0,0.0,0.0,0.0,0.0,0.0,0.0,0.0,0.0,0.0,0.0,3.1367,0.0,0.0,0.0,0.0,0.0,0.0,3.4902,0.0,3.6309,3.9082,3.7734,3.8437,4.1191,4.0137,4.0195,4.1191,4.1191,4.1191,4.1191,4.1191,4.1191,4.1191,4.1191,4.1191,4.1191,4.1191,4.1191,4.1191,4.1191,4.1191,4.1191,4.6936,0.0,4.5263,0.0,4.6435,4.7202,4.667,4.8002,4.8588,4.7249,4.7067,4.6684,4.5662,4.5039,4.4287,4.324,4.3368,4.3313,4.2818,4.3239,4.3404,4.3149,4.3369,0.0,4.148,4.1224,4.0432,3.9056,3.6486,0.0,0.0,0.0,0.0,0.0,3.6266,3.7,3.7088,3.8295,3.8833,3.8844,3.9131,3.9238,3.9264,3.9517,3.9599,3.9611,3.9701,3.9754,3.9765,3.9832,3.9863,3.9832,3.9656,3.9599,3.9599,3.9599,3.9599,3.9599,3.9599,3.9599,3.9599,3.9599,3.9599,3.9622,3.9712,3.9754,3.984,4.0139,4.0364,4.0496,4.0496,4.0496,3.9669,3.7115,0.0,0.0,0.0,0.0,0.0,0.0,0.0,3.4026,3.7124,3.4257,0.0,0.0,0.0,0.0,0.0,0.0,0.0,0.0,0.0,0.0,0.0,3.8457,3.8965,4.1191,4.1191,4.1191,4.1191,4.1191,4.1191,4.1191,4.1191,4.1191,4.1191,4.1191,4.1191,4.1191,4.1191,4.1191,4.1191,4.1191,4.1191,4.1191,4.9382,4.9437,4.9433,4.9433,4.9451,4.9168,4.8306,4.8909,4.889,4.7222,4.6991,4.6413,4.487,4.4727,4.4066,4.2451,4.3039,4.2818,4.1224,4.2616,4.3149,0.0,0.0,4.3112,4.2304,4.1499,4.0708,3.9882,0.0,0.0,3.6266,0.0,3.6248,3.634,3.7955,3.867,3.8701,3.8966,3.9099,3.9107,3.945,3.9599,3.9599,3.9599,3.9599,3.9645,3.9982,4.0091,4.0129,4.0397,4.0489,4.0397,3.9789,3.9599,3.9599,3.9599,3.9599,3.9599,3.9599,3.9599,3.9599,3.9599,3.9599,3.9698,4.0012,4.0091,4.0167,4.0449,4.0496,4.0496,4.0496,4.0496,3.9669,3.7115,0.0,0.0,0.0,0.0,0.0,0.0,3.2936,3.265,3.4464,0.0,0.0,0.0,0.0,0.0,0.0,0.0,0.0,3.3379,3.1836,0.0,3.6035,3.6035,3.7773,4.1191,4.1191,4.1191,4.1191,4.1191,4.1191,4.1191,4.1191,4.1191,4.1191,4.1191,4.1191,4.1191,4.1191,4.1191,4.1191,4.1191,4.1191,4.1191,4.6224,4.7895,4.915,4.8004,4.8962,4.9719,4.9174,4.9037,4.8548,4.7178,4.6514,4.5791,4.4739,4.4395,4.4019,0.0,4.2984,4.269,0.0,4.269,4.28,4.3112,4.2837,4.1791,3.99,4.0139,3.935,3.7441,0.0,0.0,0.0,3.649,3.7153,3.8243,3.8986,3.9314,3.9314,3.9408,3.9438,3.9462,3.9808,3.9932,3.9953,4.0138,4.0202,4.023,4.0328,4.0372,4.0381,4.0473,4.0496,4.0473,4.0274,4.0202,4.0202,4.0202,4.0202,4.0202,4.0202,4.0202,4.0202,4.0202,4.0202,4.0239,4.0356,4.0372,4.0389,4.0481,4.0496,4.0496,4.0496,4.0496,3.9669,3.7115,3.8161,0.0,0.0,0.0,0.0,0.0,3.4493,3.3969,0.0,3.5211,0.0,0.0,0.0,0.0,0.0,0.0,0.0,0.0,3.6426,0.0,3.9512,3.8379,3.8926,4.1191,4.1191,4.1191,4.1191,4.1191,4.1191,4.1191,4.1191,4.1191,4.1191,4.1191,4.1191,4.1191,4.1191,4.1191,4.1191,4.1191,4.1191,4.1191,4.6959,4.8479,4.9626,4.8567,4.9453,5.0122,4.9556,4.9212,4.8525,4.7139,4.6533,4.5905,4.5072,4.4638,0.0,4.4233,4.3569,4.3376,4.3878,4.3451,4.3317,4.3675,4.3215,4.188,3.9662,0.0,0.0,3.7202,3.7307,3.741,3.7541,3.7723,3.8334,3.9289,3.9517,3.9599,3.9611,3.9724,3.9786,3.9808,4.012,4.0241,4.0278,4.0441,4.0496,4.0496,4.0496,4.0496,4.0496,4.0496,4.0496,4.0496,4.0496,4.0496,4.0496,4.0496,4.0496,4.0496,4.0496,4.0496,4.0496,4.0496,4.0496,4.0496,4.0496,4.0496,4.0496,4.0496,4.0496,4.0496,4.0496,4.0496,3.9977,3.8392,3.945,3.9938,3.8354,0.0,0.0,0.0,0.0,0.0,0.0,3.7043,3.6387,0.0,0.0,0.0,0.0,0.0,0.0,3.7578,3.7617,0.0,4.0215,3.9141,3.9473,4.1191,4.1191,4.1191,4.1191,4.1191,4.1191,4.1191,4.1191,4.1191,4.1191,4.1191,4.1191,4.1191,4.1191,4.1191,4.1191,4.1191,4.1191,4.123,5.0297,5.0539,0.0,0.0,5.0616,0.0,4.9606,4.9394,4.8759,4.7201,4.6885,4.6509,4.5691,4.5322,4.5019,4.4714,0.0,0.0,0.0,4.4536,4.4358,4.4061,4.3972,4.3024,4.1045,4.1064,4.0328,3.8765,3.9013,3.9289,3.9599,3.9622,3.9634,3.9634,3.9656,3.9668,3.9679,4.0002,4.0129,4.0148,4.0397,4.0496,4.0496,4.0496,4.0496,4.0496,4.0496,4.0496,4.0496,4.0496,4.0496,4.0496,4.0496,4.0496,4.0496,4.0496,4.0496,4.0496,4.0496,4.0496,4.0496,4.0496,4.0496,4.0496,4.0496,4.0496,4.0496,4.0496,4.0496,4.0496,4.0496,4.0496,4.0496,4.0496,4.0496,4.0458,4.0342,0.0,0.0,0.0,0.0,0.0,0.0,3.8595,3.873,0.0,0.0,0.0,0.0,0.0,3.4551,3.6309,3.6367,3.7148,3.8769,3.8789,3.959,4.1191,4.1191,4.1191,4.1191,4.1191,4.1191,4.1191,4.1191,4.1191,4.1191,4.1191,4.1191,4.1191,4.1191,4.1191,4.1191,4.1191,4.123,4.1387,0.0,0.0,5.0289,4.8952,4.9817,5.0635,5.0423,4.926,4.8279,4.7875,4.6701,4.5825,4.5614,4.5522,4.5448,4.5362,4.4281,4.3888,4.4555,4.397,4.3856,4.4423,4.3821,4.2383,4.0084,4.0634,4.0434,3.9389,3.9457,3.951,3.9611,3.987,3.9982,3.9992,4.0194,4.0283,4.0283,4.0381,4.0417,4.0406,4.0473,4.0496,4.0496,4.0496,4.0496,4.0496,4.0496,4.0496,4.0496,4.0496,4.0496,4.0496,4.0496,4.0496,4.0496,4.0496,4.0496,4.0496,4.0496,4.0496,4.0496,4.0496,4.0496,4.0496,4.0496,4.0496,4.0496,4.0496,4.0496,4.0496,4.0496,4.0496,4.0496,4.0496,4.0496,4.0054,3.8777,3.7507,0.0,0.0,3.6308,3.6941,3.8317,3.974,4.0039,0.0,0.0,0.0,0.0,3.7812,3.8164,3.9902,3.9961,4.0176,4.0586,4.0586,4.0781,4.1191,4.1191,4.1191,4.1191,4.1191,4.1191,4.1191,4.1191,4.1191,4.1191,4.1191,4.1191,4.1191,4.1191,4.1191,4.1191,4.1191,4.1582,4.2148,4.8115,4.9423,5.0404,4.9452,5.0067,5.0577,5.0173,4.8952,4.7971,4.7605,4.6413,4.5594,4.5594,4.5594,4.5594,4.5594,4.4833,4.4541,4.5036,4.4617,4.4486,4.4799,4.4002,4.2673,4.0842,4.0837,4.0518,3.9819,3.9819,3.9893,4.0014,4.0194,4.0276,4.0295,4.0441,4.0496,4.0496,4.0496,4.0496,4.0496,4.0496,4.0496,4.0496,4.0496,4.0496,4.0496,4.0496,4.0496,4.0496,4.0496,4.0496,4.0496,4.0496,4.0496,4.0496,4.0496,4.0496,4.0496,4.0496,4.0496,4.0496,4.0496,4.0496,4.0496,4.0496,4.0496,4.0496,4.0496,4.0496,4.0496,4.0496,4.0496,4.0496,4.0496,3.9861,3.9046,3.8123,3.6584,0.0,3.67,3.6911,3.7706,3.9478,4.0581,4.0801,3.9863,0.0,0.0,3.9746,3.9023,3.9394,4.1133,4.1191,4.1191,4.1191,4.1191,4.1191,4.1191,4.1191,4.1191,4.1191,4.1191,4.1191,4.1191,4.1191,4.1191,4.1191,4.1191,4.1191,4.1191,4.1191,4.1426,4.1758,4.1758,4.2285,4.3047,5.0712,5.0712,5.0712,5.0712,5.0712,5.0423,4.9529,4.8663,4.7817,4.7,4.6144,4.5594,4.5594,4.5594,4.5594,4.5594,4.5594,4.5594,4.5594,4.5594,4.5457,4.5191,4.4329,4.3384,4.2271,4.1264,4.0553,4.0158,4.0158,4.0286,4.0496,4.0496,4.0496,4.0496,4.0496,4.0496,4.0496,4.0496,4.0496,4.0496,4.0496,4.0496,4.0496,4.0496,4.0496,4.0496,4.0496,4.0496,4.0496,4.0496,4.0496,4.0496,4.0496,4.0496,4.0496,4.0496,4.0496,4.0496,4.0496,4.0496,4.0496,4.0496,4.0496,4.0496,4.0496,4.0496,4.0496,4.0496,4.0496,4.0496,4.0496,4.0496,4.0419,4.0169,3.8931,3.7911,3.7661,0.0,3.5648,3.7947,3.7844,3.8519,4.0808,4.1129,4.1191,4.1191,3.9824,3.9648,4.1113,3.9805,3.9668,4.1152,4.1191,4.1191,4.1191,4.1191,4.1191,4.1191,4.1191,4.1191,4.1191,4.1191,4.1191,4.1191,4.1191,4.1191,4.1191,4.1191,4.1191,4.1211,4.1328,4.1797,4.2422,4.2558,4.3144,4.4004,5.0712,5.0712,5.0712,5.0712,5.0712,5.0423,4.9529,4.8663,4.7817,4.7,4.6144,4.5594,4.5594,4.5594,4.5594,4.5594,4.5594,4.5594,4.5594,4.5594,4.5577,4.5522,4.4687,4.3824,4.2963,4.137,4.0504,4.0449,4.0449,4.0465,4.0496,4.0496,4.0496,4.0496,4.0496,4.0496,4.0496,4.0496,4.0496,4.0496,4.0496,4.0496,4.0496,4.0496,4.0496,4.0496,4.0496,4.0496,4.0496,4.0496,4.0496,4.0496,4.0496,4.0496,4.0496,4.0496,4.0496,4.0496,4.0496,4.0496,4.0496,4.0496,4.0496,4.0496,4.0496,4.0496,4.0496,4.0496,4.0496,4.0496,4.0496,4.0496,4.0035,3.8623,3.8161,3.7507,3.6096,0.0,3.7744,3.8237,3.9527,4.0597,4.1111,4.1191,4.1191,4.1191,4.0957,4.0918,4.1191,4.0937,4.0918,4.1191,4.1191,4.1191,4.1191,4.1191,4.1191,4.1191,4.1191,4.1191,4.1191,4.1191,4.1191,4.1191,4.1191,4.1191,4.1191,4.1191,4.1191,4.1269,4.1953,4.2285,4.248,4.3223,4.4043,4.4824,5.0712,5.0712,5.0712,5.0712,5.0308,4.9702,4.8836,4.799,4.7144,4.6317,4.5845,4.5594,4.5594,4.5594,4.5594,4.5594,4.5594,4.5594,4.5594,4.5594,4.5594,4.5594,4.4355,4.3047,4.172,4.092,4.0496,4.0496,4.0496,4.0496,4.0496,4.0496,4.0496,4.0496,4.0496,4.0496,4.0496,4.0496,4.0496,4.0496,4.0496,4.0496,4.0496,4.0496,4.0496,4.0496,4.0496,4.0496,4.0496,4.0496,4.0496,4.0496,4.0496,4.0496,4.0496,4.0496,4.0496,4.0496,4.0496,4.0496,4.0496,4.0496,4.0496,4.0496,4.0496,4.0496,4.0496,4.0496,4.0496,4.0496,4.0496,4.0496,4.0246,3.9477,3.8584,0.0,0.0,3.7635,3.822,3.8282,3.9894,4.1052,4.1191,4.1191,4.1191,4.1191,4.1191,4.1191,4.1191,4.1191,4.1191,4.1191,4.1191,4.1191,4.1191,4.1191,4.1191,4.1191,4.1191,4.1191,4.1191,4.1191,4.1191,4.1191,4.1191,4.1191,4.1191,4.1191,4.1465,4.1875,4.2266,4.2969,4.3848,4.4258,4.4941,4.5703,5.0712,5.0712,5.0712,5.0712,4.9971,4.9106,4.824,4.7432,4.6586,4.571,4.5594,4.5594,4.5594,4.5594,4.5594,4.5594,4.5594,4.5594,4.5594,4.5594,4.5594,4.5594,4.3989,4.2374,4.0843,4.0593,4.0496,4.0496,4.0496,4.0496,4.0496,4.0496,4.0496,4.0496,4.0496,4.0496,4.0496,4.0496,4.0496,4.0496,4.0496,4.0496,4.0496,4.0496,4.0496,4.0496,4.0496,4.0496,4.0496,4.0496,4.0496,4.0496,4.0496,4.0496,4.0496,4.0496,4.0496,4.0496,4.0496,4.0496,4.0496,4.0496,4.0496,4.0496,4.0496,4.0496,4.0496,4.0496,4.0496,4.0496,4.0496,4.0496,4.0362,3.9977,0.0,0.0,0.0,3.8158,3.8397,3.8874,4.0186,4.1081,4.1191,4.1191,4.1191,4.1191,4.1191,4.1191,4.1191,4.1191,4.1191,4.1191,4.1191,4.1191,4.1191,4.1191,4.1191,4.1191,4.1191,4.1191,4.1191,4.1191,4.1191,4.1191,4.1191,4.1308,4.1484,4.1484,4.1953,4.2715,4.293,4.3828,4.5019,4.5234,4.5723,4.6308,5.0712,5.0712,5.0712,5.0712,4.9971,4.9106,4.824,4.7432,4.6586,4.571,4.5594,4.5594,4.5594,4.5594,4.5594,4.5594,4.5594,4.5594,4.5594,4.5594,4.5594,4.5594,4.3989,4.2662,4.1712,4.0912,4.0496,4.0496,4.0496,4.0496,4.0496,4.0496,4.0496,4.0496,4.0496,4.0496,4.0496,4.0496,4.0496,4.0496,4.0496,4.0496,4.0496,4.0496,4.0496,4.0496,4.0496,4.0496,4.0496,4.0496,4.0496,4.0496,4.0496,4.0496,4.0496,4.0496,4.0496,4.0496,4.0496,4.0496,4.0496,4.0496,4.0496,4.0496,4.0496,4.0496,4.0496,4.0496,4.0496,4.0496,4.0496,4.0496,3.9996,3.843,0.0,0.0,3.8164,3.8251,3.8916,4.0595,4.1026,4.1191,4.1191,4.1191,4.1191,4.1191,4.1191,4.1191,4.1191,4.1191,4.1191,4.1191,4.1191,4.1191,4.1191,4.1191,4.1191,4.1191,4.1191,4.1191,4.1191,4.1191,4.1191,4.1191,4.1191,4.1621,4.2305,4.2305,4.2812,4.3672,4.4492,4.4883,4.5098,4.5918,4.623,4.6308,5.0712,5.0712,5.0539,4.999,4.9163,4.8317,4.749,4.6644,4.597,4.5633,4.5594,4.5594,4.5594,4.5594,4.5594,4.5594,4.5594,4.5594,4.5594,4.5594,4.5364,4.4816,4.3701,4.2701,4.1808,4.095,4.0496,4.0496,4.0496,4.0496,4.0496,4.0496,4.0496,4.0496,4.0496,4.0496,4.0496,4.0496,4.0496,4.0496,4.0496,4.0496,4.0496,4.0496,4.0496,4.0496,4.0496,4.0496,4.0496,4.0496,4.0496,4.0496,4.0496,4.0496,4.0496,4.0496,4.0496,4.0496,4.0496,4.0496,4.0496,4.0496,4.0496,4.0496,4.0496,4.0496,4.0496,4.0496,4.0496,4.0496,4.0496,4.0496,4.0285,3.965,0.0,3.9601,3.9737,3.98,4.014,4.0912,4.1126,4.1191,4.1191,4.1191,4.1191,4.1191,4.1191,4.1191,4.1191,4.1191,4.1191,4.1191,4.1191,4.1191,4.1191,4.1191,4.1191,4.1191,4.1191,4.1191,4.1191,4.1191,4.1191,4.123,4.1738,4.2129,4.2441,4.2988,4.3711,4.4531,4.4863,4.5332,4.5859,4.6172,4.6308,4.6308,5.0712,5.0712,5.0442,4.9548,4.8682,4.7836,4.7019,4.6163,4.5594,4.5594,4.5594,4.5594,4.5594,4.5594,4.5594,4.5594,4.5594,4.5594,4.5594,4.5594,4.5325,4.472,4.3682,4.2816,4.222,4.1085,4.0496,4.0496,4.0496,4.0496,4.0496,4.0496,4.0496,4.0496,4.0496,4.0496,4.0496,4.0496,4.0496,4.0496,4.0496,4.0496,4.0496,4.0496,4.0496,4.0496,4.0496,4.0496,4.0496,4.0496,4.0496,4.0496,4.0496,4.0496,4.0496,4.0496,4.0496,4.0496,4.0496,4.0496,4.0496,4.0496,4.0496,4.0496,4.0496,4.0496,4.0496,4.0496,4.0496,4.0496,4.0496,4.0496,4.0496,4.0496,4.0549,4.061,4.0729,4.08,4.0914,4.1051,4.1149,4.1191,4.1191,4.1191,4.1191,4.1191,4.1191,4.1191,4.1191,4.1191,4.1191,4.1191,4.1191,4.1191,4.1191,4.1191,4.1191,4.1191,4.1191,4.1191,4.1211,4.1465,4.1582,4.1621,4.2441,4.2969,4.3262,4.3867,4.4629,4.541,4.541,4.5762,4.6308,4.6308,4.6308,4.6308,5.0673,5.0673,5.0404,4.9529,4.8663,4.7817,4.7,4.6163,4.5594,4.5594,4.5594,4.5594,4.5594,4.5594,4.5594,4.5594,4.5594,4.5594,4.5594,4.5594,4.5594,4.5594,4.3989,4.3104,4.3104,4.1401,4.0516,4.0496,4.0496,4.0496,4.0496,4.0496,4.0496,4.0496,4.0496,4.0496,4.0496,4.0496,4.0496,4.0496,4.0496,4.0496,4.0496,4.0496,4.0496,4.0496,4.0496,4.0496,4.0496,4.0496,4.0496,4.0496,4.0496,4.0496,4.0496,4.0496,4.0496,4.0496,4.0496,4.0496,4.0496,4.0496,4.0496,4.0496,4.0496,4.0496,4.0496,4.0496,4.0496,4.0496,4.0496,4.0496,4.0496,4.0496,4.061,4.071,4.0785,4.0917,4.1052,4.1172,4.1191,4.1191,4.1191,4.1191,4.1191,4.1191,4.1191,4.1191,4.1191,4.1191,4.1191,4.1191,4.1191,4.1191,4.1191,4.1191,4.1191,4.1191,4.1211,4.1211,4.123,4.2031,4.2402,4.2461,4.332,4.4199,4.5,4.5019,4.5527,4.6308,4.6308,4.6308,4.6308,4.6308,4.6308,4.6308,4.8875,4.8875,4.8625,4.7798,4.7432,4.6971,4.6124,4.5768,4.5594,4.5594,4.5594,4.5594,4.5594,4.5594,4.5594,4.5594,4.5594,4.5594,4.5594,4.5594,4.5594,4.5594,4.4528,4.3682,4.3104,4.1989,4.1104,4.0496,4.0496,4.0496,4.0496,4.0496,4.0496,4.0496,4.0496,4.0496,4.0496,4.0496,4.0496,4.0496,4.0496,4.0496,4.0496,4.0496,4.0496,4.0496,4.0496,4.0496,4.0496,4.0496,4.0496,4.0496,4.0496,4.0496,4.0496,4.0496,4.0496,4.0496,4.0496,4.0496,4.0496,4.0496,4.0496,4.0496,4.0496,4.0496,4.0496,4.0496,4.0496,4.0496,4.0496,4.0496,4.0496,4.0496,4.061,4.071,4.0785,4.0917,4.1052,4.1172,4.1191,4.1191,4.1191,4.1191,4.1191,4.1191,4.1191,4.1191,4.1191,4.1191,4.1191,4.1191,4.1191,4.1191,4.1191,4.1191,4.1191,4.1211,4.1777,4.2031,4.207,4.293,4.3301,4.3359,4.4238,4.4766,4.5058,4.5664,4.6074,4.6308,4.6308,4.6308,4.6308,4.6308,4.6308,4.6308,4.8105,4.8105,4.7855,4.7038,4.6904,4.6605,4.5729,4.5594,4.5594,4.5594,4.5594,4.5594,4.5594,4.5594,4.5594,4.5594,4.5594,4.5594,4.5594,4.5594,4.5594,4.5594,4.5094,4.4278,4.3124,4.2258,4.1373,4.0496,4.0496,4.0496,4.0496,4.0496,4.0496,4.0496,4.0496,4.0496,4.0496,4.0496,4.0496,4.0496,4.0496,4.0496,4.0496,4.0496,4.0496,4.0496,4.0496,4.0496,4.0496,4.0496,4.0496,4.0496,4.0496,4.0496,4.0496,4.0496,4.0496,4.0496,4.0496,4.0496,4.0496,4.0496,4.0496,4.0496,4.0496,4.0496,4.0496,4.0496,4.0496,4.0496,4.0496,4.0496,4.0519,4.0574,4.0672,4.0771,4.0864,4.0994,4.1105,4.1191,4.1191,4.1191,4.1191,4.1191,4.1191,4.1191,4.1191,4.1191,4.1191,4.1191,4.1348,4.166,4.168,4.1836,4.2187,4.2187,4.2012,4.168,4.2519,4.291,4.2949,4.3828,4.4219,4.4258,4.5137,4.5508,4.5566,4.6074,4.6308,4.6308,4.6308,4.6308,4.6289,4.6246,4.6248,4.6289,4.7875,4.7875,4.7644,4.6913,4.6778,4.6528,4.5729,4.5594,4.5594,4.5594,4.5594,4.5594,4.5594,4.5594,4.5594,4.5594,4.5594,4.5594,4.5594,4.5594,4.5594,4.5594,4.5594,4.4844,4.3239,4.2354,4.1489,4.0631,4.0535,4.0496,4.0496,4.0496,4.0496,4.0496,4.0496,4.0496,4.0496,4.0496,4.0496,4.0496,4.0496,4.0496,4.0496,4.0496,4.0496,4.0496,4.0496,4.0496,4.0496,4.0496,4.0496,4.0496,4.0496,4.0496,4.0496,4.0496,4.0496,4.0496,4.0496,4.0496,4.0496,4.0496,4.0496,4.0496,4.0496,4.0496,4.0496,4.0496,4.0496,4.0496,4.0496,4.0512,4.0559,4.0674,4.0771,4.0864,4.0988,4.1126,4.1191,4.1191,4.1191,4.1191,4.1191,4.1191,4.1191,4.1191,4.1191,4.123,4.1308,4.1308,4.168,4.248,4.2519,4.2891,4.3691,4.3789,4.3379,4.2539,4.3398,4.3828,4.3848,4.4726,4.5117,4.5156,4.5957,4.6308,4.6308,4.6308,4.6308,4.6308,4.6308,4.6289,4.6268,4.6145,4.6173,4.6247,4.6152,4.6152,4.6095,4.5913,4.5874,4.5825,4.5633,4.5594,4.5594,4.5594,4.5594,4.5594,4.5594,4.5594,4.5594,4.5594,4.5594,4.5594,4.5594,4.5594,4.5594,4.5594,4.5594,4.5114,4.4066,4.3239,4.2393,4.1527,4.0835,4.0496,4.0496,4.0496,4.0496,4.0496,4.0496,4.0496,4.0496,4.0496,4.0496,4.0496,4.0496,4.0496,4.0496,4.0496,4.0496,4.0496,4.0496,4.0496,4.0496,4.0496,4.0496,4.0496,4.0496,4.0496,4.0496,4.0496,4.0496,4.0496,4.0496,4.0496,4.0496,4.0496,4.0496,4.0496,4.0496,4.0496,4.0496,4.0496,4.0496,4.0496,4.0496,4.0595,4.0681,4.0692,4.084,4.0962,4.0994,4.1126,4.1191,4.1191,4.1191,4.1191,4.1191,4.1191,4.1191,4.1191,4.1191,4.1484,4.2109,4.2148,4.2539,4.3398,4.3418,4.3516,4.3691,4.4375,4.4277,4.3437,4.4297,4.4726,4.4746,4.5625,4.6016,4.6035,4.6211,4.6308,4.6308,4.6308,4.6308,4.6308,4.6308,4.6245,4.6144,4.6113,4.6047,4.5985,4.5594,4.5594,4.5594,4.5594,4.5594,4.5594,4.5594,4.5594,4.5594,4.5594,4.5594,4.5594,4.5594,4.5594,4.5594,4.5594,4.5594,4.5594,4.5594,4.5594,4.5594,4.5594,4.5594,4.5383,4.494,4.4105,4.3066,4.1788,4.1335,4.0912,4.0496,4.0496,4.0496,4.0496,4.0496,4.0496,4.0496,4.0496,4.0496,4.0496,4.0496,4.0496,4.0496,4.0496,4.0496,4.0496,4.0496,4.0537,4.0609,4.0609,4.0609,4.0609,4.0609,4.0552,4.0496,4.0496,4.0496,4.0496,4.0496,4.0496,4.0496,4.0496,4.0496,4.0496,4.0496,4.0496,4.0496,4.0496,4.0552,4.0609,4.0609,4.069,4.0762,4.082,4.0931,4.1023,4.1081,4.115,4.1191,4.1191,4.1191,4.1191,4.1191,4.1543,4.1777,4.1777,4.2168,4.2578,4.3008,4.3027,4.3418,4.4297,4.4316,4.4512,4.4941,4.5391,4.5391,4.4941,4.5391,4.5625,4.5644,4.6094,4.6308,4.6308,4.6308,4.6308,4.6308,4.6308,4.6308,4.6289,4.6225,4.6152,4.6082,4.5986,4.5906,4.5845,4.5594,4.5594,4.5594,4.5594,4.5594,4.5594,4.5594,4.5594,4.5594,4.5594,4.5594,4.5594,4.5594,4.5594,4.5594,4.5594,4.5594,4.5594,4.5594,4.5594,4.5594,4.5594,4.5594,4.5594,4.5594,4.4893,4.3778,4.2239,4.1942,4.1431,4.0727,4.0573,4.0496,4.0496,4.0496,4.0496,4.0496,4.0515,4.0523,4.0549,4.054,4.0554,4.0554,4.0554,4.0554,4.0554,4.0554,4.063,4.0718,4.0718,4.0718,4.0718,4.0718,4.0629,4.0554,4.0554,4.0554,4.0554,4.0554,4.0554,4.0554,4.0554,4.0554,4.0554,4.0554,4.0523,4.0504,4.0542,4.0623,4.0703,4.0713,4.077,4.087,4.0988,4.1023,4.1077,4.1172,4.1191,4.1191,4.1191,4.1328,4.1465,4.1601,4.2226,4.2617,4.2617,4.3281,4.3769,4.3906,4.3926,4.4316,4.5195,4.5215,4.5566,4.6289,4.6308,4.6308,4.6308,4.6308,4.6308,4.6308,4.6308,4.6308,4.6308,4.6308,4.6308,4.6308,4.6308,4.6308,4.6289,4.6149,4.6082,4.6036,4.5838,4.5775,4.5775,4.5594,4.5594,4.5594,4.5594,4.5594,4.5594,4.5594,4.5594,4.5594,4.5594,4.5594,4.5594,4.5594,4.5594,4.5594,4.5594,4.5594,4.5594,4.5594,4.5594,4.5594,4.5594,4.5594,4.5594,4.5594,4.5479,4.494,4.3951,4.2508,4.1731,4.1604,4.0854,4.0496,4.0496,4.0496,4.0496,4.0504,4.063,4.0667,4.068,4.0747,4.0755,4.0755,4.0755,4.0755,4.0755,4.0755,4.0764,4.0796,4.0796,4.0796,4.0796,4.0796,4.0764,4.0755,4.0755,4.0755,4.0755,4.0755,4.0755,4.0755,4.0755,4.0755,4.0755,4.0755,4.0623,4.0523,4.0655,4.0686,4.0718,4.0779,4.0896,4.0988,4.0994,4.1102,4.1171,4.1191,4.1191,4.1191,4.1191,4.1816,4.2539,4.3281,4.3457,4.3516,4.3516,4.3633,4.4023,4.4785,4.4824,4.5215,4.6094,4.6113,4.6172,4.6308,4.6308,4.6308,4.6308,4.6308,4.6308,4.6308,4.6308,4.6308,4.6308,4.6308,4.6308,4.6308,4.6308,4.6308,4.6289,4.6149,4.6033,4.5894,4.5699,4.5637,4.5637,4.5568,4.5594,4.5594,4.5594,4.5594,4.5594,4.5594,4.5594,4.5594,4.5594,4.5594,4.5594,4.5594,4.5594,4.5594,4.5594,4.5594,4.5594,4.5594,4.5594,4.5594,4.5594,4.5594,4.5594,4.5594,4.5594,4.5421,4.5037,4.3797,4.272,4.1788,4.1412,4.0969,4.0496,4.0496,4.0537,4.0616,4.0667,4.0729,4.0767,4.08,4.0797,4.0797,4.0797,4.0797,4.0797,4.0797,4.0854,4.0914,4.0914,4.0914,4.0914,4.0914,4.0864,4.0797,4.0797,4.0797,4.0797,4.0797,4.0797,4.0797,4.0797,4.0797,4.0797,4.0797,4.0738,4.069,4.0747,4.0816,4.0889,4.0908,4.1023,4.1105,4.1105,4.1151,4.1367,4.1816,4.1875,4.2051,4.2539,4.291,4.3281,4.3652,4.4141,4.4433,4.4433,4.4883,4.5312,4.5703,4.5723,4.5898,4.6289,4.6308,4.6308,4.6308,4.6308,4.6308,4.6308,4.6308,4.6308,4.6308,4.6308,4.6308,4.6308,4.6308,4.6268,4.6198,4.6198,4.6145,4.6072,4.5963,4.5853,4.5729,4.5624,4.5594,4.5594]}]]